GFSSGP_925_spd_000.txt.gz
Wind_Speed
20 19 12 3 3 4 3 4 3 5 4 3 0 2 4 2 2 3 4 21 7 21 23 21 18 19 15 14 12 10 10 9 7 7 7 11 8 6 6 5 4 4 4 4 4 6 6 5 8
20 16 4 2 4 2 4 4 2 7 3 5 2 1 2 2 1 3 6 12 13 21 23 21 19 19 16 14 11 10 10 8 8 9 8 10 7 6 6 5 5 4 5 5 6 6 5 4 6
15 7 3 3 3 4 4 3 5 4 5 4 2 3 3 2 1 10 5 17 21 21 21 20 20 19 17 14 12 10 9 8 8 8 7 9 8 6 6 5 7 6 6 4 6 6 5 4 5
8 6 4 3 3 6 4 8 9 4 4 5 3 2 1 2 4 7 14 18 21 20 20 20 21 19 18 16 13 10 11 8 9 9 9 9 7 7 6 7 7 6 6 5 4 6 6 6 7
5 3 3 2 4 4 5 7 8 6 2 2 3 4 2 5 3 13 18 19 22 22 20 20 20 18 19 17 15 11 11 11 9 9 10 9 11 8 8 6 7 6 6 5 6 6 9 8 8
4 3 3 2 5 5 7 8 8 4 4 3 4 7 4 4 12 13 17 18 19 21 21 22 20 18 18 18 15 12 12 12 12 12 12 11 8 8 8 7 7 8 7 7 6 7 9 10 10
4 3 3 4 6 5 5 9 5 6 2 5 5 5 2 5 12 14 17 17 19 20 23 24 21 20 20 19 16 14 13 13 14 14 14 12 10 12 9 7 7 10 10 9 8 9 10 12 12
4 3 1 4 3 5 4 11 7 4 4 2 4 5 5 7 18 16 16 16 20 21 22 24 21 20 22 20 19 16 13 16 18 16 15 15 14 14 12 11 12 12 11 11 11 12 12 13 14
3 3 2 5 3 4 7 7 5 4 4 2 5 2 4 14 21 19 17 17 21 23 24 23 21 21 22 22 19 18 16 19 18 19 19 16 15 16 13 15 14 14 14 14 14 14 14 15 17
4 4 7 6 2 5 8 6 7 7 9 2 3 4 6 24 24 19 15 20 24 26 27 25 23 21 21 20 20 20 19 20 20 21 21 21 17 17 17 17 16 15 17 17 17 16 16 17 20
5 6 5 8 9 6 6 8 3 4 6 5 5 5 5 7 15 15 20 26 30 27 26 28 26 24 22 21 19 19 21 20 23 23 23 22 19 20 20 20 20 20 20 21 19 20 20 20 21
3 8 6 8 7 4 5 4 7 5 8 5 9 6 8 8 9 16 20 27 23 24 27 25 27 27 25 23 21 21 22 23 25 26 24 24 23 22 23 23 23 25 23 22 22 21 22 23 23
4 6 7 12 10 7 7 7 8 6 12 6 9 8 13 10 13 21 25 23 23 25 27 28 27 27 28 27 24 23 25 27 23 25 24 25 25 25 22 25 24 26 24 23 23 22 23 24 23
5 5 7 7 9 5 5 8 2 7 7 9 5 10 9 10 17 16 22 29 28 29 29 28 31 30 28 30 28 27 26 26 24 24 26 26 28 28 28 28 29 30 28 27 26 27 26 26 26
5 6 7 9 6 6 2 8 9 11 5 9 8 9 9 12 7 13 11 20 25 28 28 28 30 31 31 32 32 30 27 27 27 26 26 28 29 32 32 33 33 33 31 29 29 30 29 28 29
2 2 2 5 4 7 8 9 13 9 5 11 10 6 6 5 4 4 5 12 19 23 28 27 28 32 32 33 33 31 30 30 28 28 28 29 31 31 32 33 35 35 33 30 32 33 33 33 33
3 3 5 9 7 3 6 7 11 2 6 7 3 5 5 6 9 13 11 8 9 8 20 26 27 30 31 33 33 33 31 30 31 29 29 31 32 32 32 34 36 36 36 34 34 36 35 34 36
5 4 5 6 4 7 6 11 9 5 4 3 7 6 6 7 6 11 15 14 11 9 11 6 18 25 29 30 32 31 30 31 31 32 32 31 32 31 32 34 36 37 38 38 37 37 36 37 32
4 3 4 8 9 8 8 6 11 3 5 8 6 6 6 5 1 12 17 18 19 19 14 11 14 5 22 26 27 28 30 32 32 33 31 31 31 31 32 34 36 37 38 40 37 36 33 35 31
5 6 9 9 4 1 1 8 7 3 4 5 8 6 5 4 6 10 17 20 24 24 23 19 14 17 7 18 24 19 18 22 30 29 28 28 29 30 31 33 36 37 38 37 36 34 30 28 25
6 8 5 6 6 4 0 6 2 2 3 4 3 4 4 6 7 8 12 19 22 25 25 24 22 20 18 8 9 13 11 9 11 13 17 19 21 24 27 31 35 36 35 35 34 33 30 27 27
8 8 8 3 2 3 2 4 3 4 5 3 5 6 6 7 6 6 9 17 20 22 24 26 27 27 25 22 19 16 12 9 10 12 12 13 13 15 16 19 25 32 35 35 38 35 34 28 24
10 6 3 0 1 3 2 1 6 6 6 7 7 7 6 6 7 6 7 13 17 20 23 24 26 28 27 27 25 23 21 18 17 18 19 20 19 19 20 21 21 19 25 32 34 34 30 29 28
6 4 7 4 2 2 7 7 5 8 11 6 4 6 8 7 6 5 8 13 16 18 20 21 24 25 25 25 25 25 23 22 22 22 22 22 23 23 25 26 26 24 22 23 26 30 30 31 30
5 6 1 1 1 6 1 3 8 8 8 15 11 9 8 7 7 6 6 8 11 15 16 17 20 23 23 24 26 24 23 22 22 21 22 23 25 25 27 27 28 28 28 28 26 25 26 30 31
6 7 5 6 4 4 1 6 6 5 3 9 9 9 8 7 6 6 6 7 9 11 14 17 21 23 23 22 22 21 20 21 21 22 23 23 24 25 27 27 28 28 29 30 31 31 29 27 27
5 4 4 2 2 2 3 6 2 7 8 10 10 8 8 7 6 7 6 8 9 14 16 18 19 21 23 23 22 23 22 23 23 23 23 25 26 28 30 31 31 31 31 31 32 30 31 31 29
4 4 2 2 3 4 4 4 4 2 7 8 8 9 7 6 6 5 4 6 11 17 17 19 19 20 20 20 20 20 21 22 23 24 26 28 30 31 31 31 31 31 32 33 34 31 31 31 30
2 1 2 3 4 4 1 5 5 8 8 11 9 8 9 8 7 5 4 11 17 16 18 17 18 19 19 19 19 19 20 22 24 27 28 29 29 29 28 28 28 28 29 30 31 31 30 29 29
3 6 5 4 3 1 3 5 3 1 7 8 10 8 4 6 7 5 9 17 16 15 15 16 16 17 16 17 18 20 21 24 27 30 30 31 30 31 30 28 28 28 30 29 29 31 30 26 31

GFSSGP_925_spd_003.txt.gz
Wind_Speed
21 22 9 4 3 4 2 4 3 6 4 2 3 3 2 1 2 3 2 15 8 16 22 22 20 17 17 13 11 9 9 8 8 7 6 8 5 6 5 4 3 3 3 2 2 6 4 5 8
23 15 4 2 4 3 4 4 3 4 5 6 2 3 2 3 1 1 2 18 8 16 22 22 20 19 16 14 12 11 10 10 9 8 7 10 6 6 6 5 5 5 4 3 5 4 5 6 7
18 8 3 4 2 4 4 4 5 5 7 3 3 1 2 2 1 2 5 14 14 20 20 20 19 18 16 14 13 12 11 10 10 10 9 10 9 6 6 5 6 6 5 5 7 5 5 6 7
10 7 4 3 3 5 4 7 5 7 6 5 1 5 3 2 2 2 5 13 18 19 19 19 19 18 16 15 14 12 11 11 10 11 8 11 10 7 7 6 7 7 7 6 7 9 6 8 7
6 3 4 3 4 4 5 6 6 8 5 5 6 4 3 2 4 5 10 15 18 19 19 19 19 18 17 15 14 12 11 10 11 8 10 11 9 10 10 8 8 9 9 8 8 8 10 9 10
4 3 3 3 5 5 7 6 4 4 3 4 3 3 4 2 8 11 12 16 16 18 19 19 19 19 17 16 15 13 11 11 12 11 10 10 11 10 9 9 10 11 11 10 9 9 10 12 12
4 3 3 4 4 6 4 7 6 5 4 4 7 2 4 3 11 11 12 16 17 19 20 19 20 19 17 17 16 15 12 12 14 13 12 13 12 10 10 10 10 12 13 12 12 11 11 12 13
4 4 2 4 3 6 4 9 5 6 4 4 1 4 5 5 16 13 14 14 17 20 20 20 20 19 19 19 18 17 14 12 14 16 15 15 17 16 16 14 14 13 14 14 14 13 12 13 14
4 2 3 5 3 5 5 7 6 5 4 5 1 2 5 6 17 15 14 15 18 21 21 22 21 20 20 20 20 19 17 14 16 18 17 17 17 19 19 18 18 17 15 15 15 14 14 15 17
4 4 7 6 3 5 7 4 6 6 8 5 4 2 4 12 17 13 15 16 20 24 23 23 22 21 20 21 21 20 19 17 17 19 20 21 21 19 18 19 19 19 18 18 17 16 16 18 20
5 6 5 6 9 6 4 7 4 4 6 5 6 6 3 6 10 13 19 22 24 23 22 25 24 22 21 22 21 20 20 19 19 20 21 23 22 21 21 22 22 22 20 20 20 21 20 21 22
3 8 6 5 3 3 6 4 7 7 11 8 8 7 5 9 10 16 20 23 23 22 23 25 25 24 24 23 22 20 20 20 21 21 22 23 24 25 25 25 24 23 23 23 23 24 24 23 24
4 5 5 9 9 7 6 8 8 8 12 8 9 5 8 10 11 21 23 22 22 24 23 24 24 26 27 27 26 22 22 22 21 21 22 25 27 28 27 26 24 25 26 25 26 26 26 26 25
6 6 9 6 10 5 6 9 2 6 7 9 6 10 9 9 8 9 10 18 20 24 26 25 28 28 27 28 29 27 24 22 22 23 23 25 27 27 28 28 28 28 27 27 28 29 29 30 29
3 4 7 8 8 8 2 10 9 11 5 11 11 8 7 6 7 11 13 17 19 25 27 27 27 28 29 29 29 29 27 25 25 25 24 25 26 28 28 29 31 32 31 31 31 32 32 33 32
4 2 3 4 3 5 9 14 13 11 3 10 5 5 7 6 6 7 6 6 8 15 22 24 25 26 29 32 30 29 29 27 27 27 26 26 27 27 28 30 33 33 33 34 34 34 35 35 36
1 3 5 8 4 1 4 7 14 0 5 8 4 6 6 6 8 15 14 12 11 12 13 12 17 21 24 28 30 29 28 29 30 29 29 29 27 28 29 32 34 35 35 36 37 37 35 34 33
5 3 5 5 4 1 3 12 14 2 3 4 5 6 6 7 7 13 18 16 17 13 14 16 5 10 17 21 23 26 27 28 29 30 30 29 29 29 30 32 35 37 38 39 39 38 35 36 33
4 4 3 5 6 5 8 10 15 6 3 5 7 6 6 6 4 14 21 24 25 25 20 18 17 12 8 17 19 20 24 26 27 27 28 28 28 28 29 31 33 35 37 39 35 33 31 30 30
3 2 5 8 4 4 3 9 10 4 4 5 8 6 5 5 6 10 19 24 26 25 24 23 23 22 14 4 10 7 5 6 8 11 13 15 18 20 23 26 30 31 32 34 34 30 26 24 26
4 4 4 6 8 4 5 7 5 2 2 3 3 4 5 6 6 6 11 20 23 25 25 26 26 27 24 16 4 4 6 10 15 17 16 16 15 15 15 16 17 21 24 29 30 30 27 24 23
11 8 3 6 4 3 3 5 5 4 4 4 5 5 6 6 4 5 8 15 20 22 24 27 29 30 29 27 26 25 22 17 16 17 18 19 19 19 20 20 20 21 20 20 25 27 24 23 21
8 6 6 5 4 3 2 2 6 3 7 8 7 6 6 6 6 6 7 14 16 19 23 25 28 29 27 27 25 24 23 20 20 20 19 19 18 20 23 24 25 25 25 25 24 24 23 23 24
3 4 5 3 2 2 7 7 5 5 11 5 4 6 7 7 6 6 9 13 16 19 22 24 27 27 26 26 26 25 23 22 22 22 23 23 23 23 24 26 26 27 27 27 27 26 26 25 24
5 5 1 2 1 5 1 3 9 4 7 11 11 9 8 7 6 6 6 10 16 19 20 22 24 25 23 23 23 22 21 21 21 21 22 23 25 27 27 28 29 29 28 28 29 29 27 27 26
8 8 5 6 4 4 4 6 5 6 7 8 10 9 7 7 5 6 6 11 14 16 19 20 21 21 20 20 20 19 19 20 20 21 22 22 24 25 27 30 30 30 30 30 31 32 31 29 30
5 4 5 3 1 1 4 7 3 6 5 9 11 9 8 7 6 7 7 12 15 18 17 17 18 19 19 18 17 18 19 20 20 21 22 24 25 25 28 29 29 30 29 29 30 27 29 30 28
6 7 3 2 3 4 4 5 5 2 3 5 9 10 8 6 7 6 7 13 15 16 16 16 16 16 16 15 16 18 19 20 21 23 25 27 27 28 29 29 28 28 27 28 29 28 29 29 26
3 2 5 4 4 3 2 6 5 5 8 12 9 9 7 7 7 6 8 14 16 14 13 14 14 14 15 16 16 17 20 22 24 26 27 28 29 30 29 29 28 28 29 29 27 29 28 26 29
2 7 6 4 4 2 3 5 4 4 8 7 7 4 5 6 7 7 10 14 13 12 11 12 12 14 14 14 15 17 21 24 26 27 28 29 29 30 29 30 29 29 29 30 28 31 27 29 29

GFSSGP_925_spd_006.txt.gz
Wind_Speed
21 20 9 4 4 5 2 5 2 5 4 1 5 2 3 2 3 4 2 13 3 12 18 19 17 14 14 11 11 9 9 7 7 7 5 6 6 5 3 4 4 3 3 4 3 5 5 5 8
20 12 5 2 4 3 4 4 4 2 4 8 4 2 2 4 2 3 1 13 6 12 16 18 18 16 14 12 12 10 10 8 8 7 7 8 7 3 5 5 5 4 5 4 5 4 6 7 6
14 8 3 4 3 3 4 3 5 7 9 4 3 3 2 3 2 3 4 13 9 12 16 17 18 16 15 13 11 10 9 10 9 9 9 10 7 5 5 6 5 6 6 6 6 6 4 6 7
9 7 4 4 2 4 4 4 4 9 6 4 2 5 3 4 2 3 4 12 11 14 16 17 17 16 14 12 11 10 9 9 9 9 9 10 8 6 6 6 6 7 7 7 7 9 8 8 8
6 3 4 3 4 4 5 5 6 5 6 4 1 4 4 2 5 4 8 11 13 15 16 16 16 16 15 14 12 12 10 10 10 10 10 11 11 7 8 9 7 8 9 9 9 10 10 11 10
4 3 3 2 4 6 7 5 3 3 5 6 1 2 4 3 3 6 9 11 12 13 15 16 16 17 15 14 14 13 11 11 10 10 7 8 8 11 10 10 10 9 10 11 11 11 11 11 13
4 3 3 2 4 6 4 6 3 5 6 4 1 3 4 4 6 7 8 10 12 13 14 16 16 17 16 14 14 13 11 11 10 12 10 9 10 11 13 10 10 10 11 13 12 12 13 13 13
4 3 2 3 3 6 4 8 4 4 6 7 3 4 4 3 7 8 9 10 12 13 15 16 16 17 17 16 16 15 13 12 10 12 14 13 15 16 14 14 15 12 12 14 13 13 14 14 14
4 3 2 4 5 5 3 7 4 3 5 5 3 3 5 11 9 9 11 11 13 15 16 17 17 19 19 18 18 17 15 14 13 13 15 16 17 17 19 18 17 17 15 14 15 15 16 16 18
4 4 8 6 4 4 5 2 6 6 7 5 3 4 5 4 9 11 12 12 15 17 18 19 18 20 20 18 18 18 17 17 16 15 17 18 19 19 17 17 17 17 17 16 16 17 18 19 20
5 6 5 5 7 3 4 7 3 3 7 6 8 8 5 2 9 14 17 17 17 15 17 19 18 21 21 19 18 18 18 19 18 17 17 18 20 20 19 19 19 19 19 20 20 21 21 22 23
3 7 5 4 2 2 4 5 7 7 10 9 9 6 5 7 9 16 12 11 13 14 17 18 19 23 22 20 20 18 19 19 20 18 18 19 19 20 20 21 21 21 20 22 22 24 24 25 25
4 4 3 7 9 7 4 9 8 10 13 7 10 9 10 8 10 8 14 15 14 18 19 19 19 24 23 23 23 22 21 20 19 19 18 19 20 22 21 22 23 23 22 23 24 25 26 28 28
6 7 8 5 10 5 6 9 4 6 5 9 8 11 8 7 7 6 11 16 15 19 21 20 22 23 23 25 25 25 23 22 20 20 20 20 21 22 23 24 24 26 26 27 28 30 30 31 32
3 3 7 6 5 7 6 12 12 12 2 9 10 10 5 6 7 6 7 10 11 15 18 19 20 22 24 25 25 25 24 24 23 22 21 21 22 23 23 25 28 29 28 29 30 32 32 34 36
6 2 3 4 2 4 6 17 11 8 5 7 8 7 5 6 7 11 11 9 9 10 14 11 14 16 20 23 25 25 23 23 24 23 22 22 22 23 25 27 30 31 31 31 31 32 34 37 38
3 4 6 7 5 3 5 8 8 2 4 5 4 3 4 6 10 17 15 14 12 10 16 15 4 8 13 16 20 22 22 22 22 23 24 24 24 24 25 28 30 31 33 33 33 34 32 33 30
6 4 3 5 2 2 5 13 17 5 2 4 4 3 4 7 7 13 16 17 18 17 16 18 16 7 3 8 12 15 17 19 20 20 21 22 23 23 23 24 27 28 30 31 31 31 31 30 33
6 4 6 4 4 2 7 8 15 8 5 4 5 4 4 7 3 14 20 22 23 22 23 24 25 20 9 3 4 6 8 10 9 9 9 10 10 11 13 15 17 19 22 25 26 28 29 28 27
3 3 5 6 1 3 7 10 12 7 6 4 8 6 4 5 6 9 18 23 24 25 28 29 28 25 20 13 9 6 9 15 17 16 16 17 17 16 17 16 17 17 17 19 21 23 21 18 21
3 5 4 5 7 3 6 8 6 2 1 6 5 4 4 6 7 5 11 19 23 27 28 29 29 28 26 20 14 16 16 20 22 23 22 20 19 19 18 18 19 20 20 21 21 19 18 19 22
9 6 3 3 4 3 5 6 6 5 4 5 7 6 6 6 3 5 7 15 21 22 25 27 27 28 26 25 27 27 24 22 17 17 17 18 18 20 21 22 23 23 24 24 23 23 22 20 17
4 6 6 3 3 2 1 2 7 1 5 6 7 7 6 6 6 6 8 16 17 20 23 26 28 28 27 27 26 25 23 18 18 19 20 21 21 22 24 26 26 26 26 26 25 26 27 24 20
6 5 2 3 2 2 6 7 5 4 6 4 4 6 7 7 6 5 12 17 18 20 22 24 26 26 24 24 24 24 23 22 23 24 26 25 26 26 27 29 28 27 28 28 28 28 29 27 26
5 7 2 1 1 6 1 2 8 4 5 8 12 10 8 7 7 6 7 11 17 18 19 21 23 23 22 23 23 22 22 22 23 24 25 27 28 29 29 29 30 29 28 27 28 28 27 28 27
7 8 5 6 4 4 3 6 5 2 6 7 9 10 8 7 6 7 7 12 18 18 18 19 20 21 19 20 20 20 20 20 20 20 20 21 21 22 24 27 27 28 27 28 28 27 27 26 28
6 9 4 5 2 1 3 7 8 4 6 3 10 11 9 8 7 7 8 14 16 17 16 16 18 18 18 17 17 18 19 19 18 19 20 22 23 23 25 25 26 27 27 28 28 26 27 29 27
7 8 2 2 3 4 4 5 5 5 2 3 8 10 8 6 7 7 8 14 16 15 15 16 16 17 16 15 16 16 17 18 20 21 22 23 23 24 25 26 27 28 29 30 30 26 29 28 23
2 4 4 4 3 4 1 5 5 5 4 8 7 6 8 8 7 7 8 14 15 14 13 15 15 15 15 14 15 18 20 19 20 21 21 22 22 24 26 27 29 30 31 31 31 28 25 27 25
4 7 6 5 4 1 3 6 2 6 5 7 7 6 7 7 7 7 11 15 13 13 13 14 14 14 14 13 14 16 18 20 21 21 22 23 25 26 27 28 29 30 30 29 27 27 26 25 27

GFSSGP_925_spd_009.txt.gz
Wind_Speed
19 16 6 4 2 3 1 4 1 2 3 2 3 3 3 3 3 2 0 11 3 11 16 18 17 14 11 10 7 7 7 6 6 5 5 5 6 3 3 2 1 3 3 3 2 2 5 5 7
19 11 4 2 3 2 3 3 1 1 7 10 4 3 4 3 2 2 2 13 5 13 16 18 16 13 13 9 8 8 7 7 6 7 6 7 7 3 3 3 3 3 4 3 4 5 5 7 7
13 7 3 3 2 2 2 1 5 8 11 4 3 2 1 2 1 2 2 12 8 13 15 16 17 13 12 10 8 8 7 8 7 8 6 8 8 5 4 6 5 4 5 5 6 6 5 6 8
8 6 3 3 1 3 3 4 3 10 3 3 2 6 3 3 2 1 3 12 9 13 14 15 16 14 13 12 10 7 8 8 8 8 9 8 9 7 3 5 6 5 6 6 7 6 8 8 8
6 2 3 2 3 4 4 4 5 4 5 6 1 3 3 1 3 2 5 13 11 14 14 14 15 12 14 12 10 9 8 8 8 8 8 9 9 9 6 8 7 5 6 7 8 8 9 9 11
3 2 2 1 3 4 6 5 3 3 4 8 4 4 3 3 1 2 7 10 11 14 15 14 14 14 13 12 10 10 9 9 8 10 8 8 10 9 9 11 8 7 7 8 9 9 10 10 11
4 3 3 2 3 5 3 4 2 5 6 2 4 4 2 5 2 3 7 9 11 12 14 14 13 14 13 12 10 11 9 9 9 9 11 7 9 9 9 7 9 8 9 10 11 11 11 12 12
3 3 4 3 3 5 3 4 3 2 5 9 1 3 3 3 5 4 6 7 10 12 13 13 13 14 14 13 12 12 11 10 10 8 10 10 11 13 12 12 12 12 10 11 12 12 13 13 13
2 2 4 4 5 4 2 4 2 2 4 5 3 3 4 11 2 5 5 7 9 11 12 13 14 15 15 15 14 14 12 11 11 11 11 14 15 15 15 16 15 14 14 12 13 13 14 16 17
3 4 9 5 4 4 3 3 3 3 4 4 5 4 5 8 3 6 8 6 7 12 13 14 15 16 16 16 15 15 16 15 14 14 13 15 17 16 16 15 14 15 15 15 15 16 16 16 16
5 5 5 4 6 4 4 4 2 2 5 5 10 11 9 3 5 8 8 8 9 12 14 15 16 17 18 18 16 15 17 17 17 16 15 15 17 17 17 17 16 16 16 17 18 18 19 19 20
3 6 5 3 3 2 4 3 6 7 11 7 8 7 7 10 10 11 10 10 11 12 14 16 17 18 19 19 18 16 17 17 16 15 15 16 16 17 17 17 17 18 18 19 19 21 22 23 23
4 3 4 7 6 6 3 11 9 10 15 12 8 6 10 9 10 10 10 10 12 13 15 16 16 19 20 21 19 18 19 17 15 14 15 15 16 17 17 18 19 20 21 22 23 24 24 25 25
7 10 12 4 8 4 6 9 4 18 6 9 4 9 11 8 6 4 4 6 8 10 13 15 17 19 20 23 21 20 19 17 17 16 15 15 17 18 18 19 20 21 22 23 25 24 24 23 22
5 2 4 5 4 6 5 8 9 17 5 7 7 6 7 7 8 6 5 5 5 5 10 11 14 16 20 21 20 20 18 17 17 17 17 16 17 18 19 21 22 23 24 25 24 25 25 25 24
8 3 9 3 3 3 5 10 7 8 2 4 4 3 6 7 7 7 7 6 6 6 12 9 5 10 13 17 16 16 15 14 14 15 16 16 17 17 19 21 23 23 24 24 23 22 21 20 21
4 5 6 7 6 5 6 7 4 2 4 5 2 5 6 6 8 10 11 10 10 10 12 14 8 2 4 6 6 8 8 8 9 11 12 13 14 14 16 18 20 20 21 21 20 18 16 19 20
7 7 4 5 2 2 4 12 14 8 7 6 2 4 6 6 6 8 12 14 15 16 18 19 17 12 7 6 5 5 8 7 7 8 8 8 9 9 10 12 13 15 16 16 15 16 16 20 23
6 6 9 2 2 1 4 6 14 6 4 5 4 7 7 6 3 7 14 17 20 23 24 25 24 19 16 16 15 18 18 18 20 20 19 19 18 17 16 15 16 16 15 15 15 14 16 18 17
5 4 4 3 1 2 6 14 13 4 4 4 10 9 9 7 5 8 12 19 23 23 26 29 28 23 23 22 18 18 19 24 24 23 22 21 20 19 19 19 19 19 18 18 17 16 16 16 18
4 5 4 4 3 1 5 6 5 2 1 4 5 8 8 10 9 6 12 15 19 22 26 28 30 30 26 24 23 25 24 21 20 21 21 20 19 19 19 19 19 19 18 17 17 15 15 15 17
10 4 3 3 4 2 4 6 5 5 2 4 6 8 10 10 7 6 11 13 15 21 26 29 30 31 29 26 26 26 21 16 14 16 17 18 19 20 21 21 22 21 20 19 19 18 18 18 17
4 6 3 1 3 1 1 2 6 2 3 6 8 7 8 9 9 8 9 12 16 20 24 27 28 28 26 25 24 24 21 17 16 17 18 19 20 20 22 22 22 21 19 19 19 20 20 16 17
9 7 5 4 2 3 5 6 5 3 4 5 4 7 9 10 9 7 10 13 16 19 22 24 26 25 24 23 22 22 20 17 17 19 19 18 18 18 22 23 22 20 19 19 19 19 18 18 18
4 6 2 1 4 5 2 1 8 3 4 7 14 13 12 11 11 9 9 11 14 17 18 20 22 22 21 22 22 20 19 19 19 18 18 19 19 19 23 23 23 20 20 19 19 20 18 20 20
6 6 4 5 4 2 3 5 5 2 3 4 6 11 11 11 10 10 10 12 14 16 17 19 19 19 19 20 19 18 18 18 17 16 16 15 16 16 19 20 20 21 22 22 20 19 17 18 18
4 5 3 4 2 1 3 5 7 1 3 2 10 13 13 11 10 10 11 13 13 14 15 17 17 18 17 17 16 17 16 17 16 16 16 16 16 16 19 20 21 22 22 21 20 18 18 19 20
7 8 3 1 4 3 3 4 4 4 4 3 7 13 10 9 10 9 11 13 13 14 16 15 15 17 16 15 14 15 15 15 15 15 17 18 18 18 19 20 20 19 20 20 20 20 19 19 22
4 2 2 3 2 3 1 4 4 5 3 6 10 9 11 11 11 10 12 13 14 15 14 14 14 14 14 13 13 13 14 14 15 16 17 16 16 17 18 19 20 20 21 23 22 21 20 23 23
5 8 9 4 3 1 2 5 1 5 6 7 9 9 8 8 9 10 14 14 13 13 12 13 12 12 11 10 10 12 13 15 16 15 15 16 17 18 19 21 22 21 21 22 22 21 23 24 26

GFSSGP_925_spd_012.txt.gz
Wind_Speed
17 16 6 3 4 5 7 4 1 1 2 2 7 7 7 8 5 4 3 7 4 9 13 16 16 13 10 11 9 6 4 3 4 3 3 2 3 3 3 2 0 2 3 4 4 5 5 5 5
15 9 3 2 5 7 6 2 4 3 9 12 7 4 6 2 1 2 2 9 5 10 13 14 17 14 11 9 4 5 5 5 4 5 3 5 7 4 4 2 2 2 4 3 4 5 7 6 4
10 5 3 2 2 6 2 1 6 10 11 4 3 3 3 1 2 3 3 10 6 10 11 13 17 14 12 9 6 5 5 5 5 5 6 6 8 4 4 4 4 5 3 5 5 6 6 7 7
6 3 3 4 5 3 4 5 7 11 2 1 6 7 3 3 2 3 3 8 6 9 10 12 16 13 12 10 9 6 5 5 6 6 8 8 7 7 5 3 4 5 6 5 5 6 6 8 8
2 3 5 4 4 4 6 6 8 8 7 8 6 1 3 4 2 2 4 7 6 8 8 9 15 14 11 12 9 6 5 5 6 6 7 7 7 9 7 6 7 7 5 6 6 7 7 9 9
4 3 7 8 4 5 7 3 4 6 6 6 6 8 2 4 3 1 6 7 5 7 8 8 12 12 12 10 9 7 6 6 6 6 7 7 8 10 10 7 7 8 6 7 8 9 10 10 10
7 6 11 9 9 7 3 2 4 8 8 0 10 5 3 9 6 2 5 6 6 7 7 7 8 10 12 9 9 8 8 6 7 6 9 8 6 7 4 6 8 9 10 8 9 10 11 11 13
4 4 9 8 8 6 1 3 6 6 6 9 2 2 1 11 7 2 4 5 7 7 8 7 8 8 9 9 10 9 9 8 7 8 7 10 9 10 10 10 10 12 13 11 10 11 12 13 14
2 7 12 14 9 3 2 4 3 5 10 6 5 5 7 6 4 2 4 6 7 8 9 9 9 9 10 9 8 10 9 8 8 9 9 7 9 9 9 10 14 14 13 13 12 12 13 15 16
10 10 16 9 9 7 3 9 10 8 10 12 8 6 5 8 7 5 6 8 10 10 10 11 11 11 11 10 9 9 9 9 8 8 7 6 8 8 10 12 15 15 15 15 14 15 15 16 13
11 17 12 10 9 6 7 11 5 11 11 7 12 12 12 14 11 8 7 9 10 9 10 12 12 12 13 11 9 9 8 8 8 9 8 7 7 8 9 10 10 10 12 11 11 12 12 12 14
13 15 13 11 7 7 11 9 13 15 20 17 15 14 13 10 9 10 9 7 10 10 9 10 12 13 14 12 11 10 9 8 8 7 7 7 7 7 8 9 10 11 10 11 11 12 13 15 17
19 17 13 13 12 12 11 14 18 20 23 19 18 13 10 11 12 9 6 5 6 8 9 10 12 14 14 14 12 11 9 9 8 7 6 7 6 7 8 9 10 11 12 12 13 14 15 16 17
12 18 16 14 14 12 14 18 5 20 17 17 15 13 9 7 7 6 4 3 4 5 6 8 12 14 14 15 13 10 9 8 7 6 6 6 6 7 8 10 10 11 11 12 13 15 16 18 18
23 12 13 15 16 15 9 18 19 21 13 15 10 7 2 3 3 4 4 3 3 3 5 6 9 13 15 13 11 9 7 6 6 5 6 5 6 7 8 10 10 11 12 13 14 15 17 18 19
18 17 17 18 15 12 9 18 11 5 2 2 2 1 2 5 4 5 5 4 3 4 6 6 3 5 10 9 7 6 4 4 3 3 4 5 6 7 8 9 10 11 12 12 14 15 17 18 19
16 15 22 18 13 13 13 12 7 6 12 13 9 3 4 5 6 8 8 6 6 6 7 8 7 6 7 7 6 5 3 2 2 2 3 4 4 5 5 7 9 10 9 10 12 14 15 18 18
18 16 12 17 9 11 14 16 14 13 10 10 6 6 6 6 7 7 8 8 8 9 12 12 12 12 11 11 11 12 10 10 10 11 11 11 12 11 9 9 10 11 11 12 14 15 15 17 18
19 18 15 13 6 6 13 16 14 16 10 11 8 9 8 8 7 8 9 10 12 14 16 16 16 14 13 14 15 14 15 15 16 16 16 16 15 15 14 12 12 13 12 13 14 15 17 18 18
17 15 15 10 5 6 13 17 17 17 11 8 10 12 12 11 9 10 11 13 15 16 18 18 18 18 15 14 14 14 15 16 15 15 15 15 15 15 14 13 12 13 12 13 15 16 18 17 19
15 15 14 9 4 7 9 18 11 5 5 3 7 11 13 14 12 11 12 13 14 16 16 20 20 19 18 17 16 15 15 14 12 12 12 14 13 14 13 13 12 13 13 13 14 15 15 18 18
16 11 7 7 2 5 3 5 9 8 6 7 11 13 13 14 12 11 13 14 15 15 16 19 19 19 18 16 16 15 14 13 11 11 10 10 12 13 14 13 13 12 12 13 15 15 15 16 17
15 11 10 4 6 4 9 6 5 3 7 9 13 15 14 13 13 12 12 14 14 13 15 17 19 20 18 17 15 15 14 11 9 8 9 9 10 11 14 13 13 13 13 13 13 15 15 14 16
13 12 7 3 1 7 11 9 5 4 2 9 14 15 15 14 13 12 14 15 14 13 14 15 17 17 16 17 16 16 13 11 8 9 9 10 10 11 13 13 13 12 13 13 14 14 14 15 16
15 15 3 5 4 6 3 7 11 4 2 9 17 17 16 15 14 13 13 14 14 13 13 14 15 16 14 15 14 13 12 10 9 9 10 11 12 12 14 15 14 13 14 14 14 15 15 15 16
12 16 4 5 6 5 3 6 1 5 2 5 13 17 16 16 14 14 14 15 13 12 12 13 13 14 12 12 12 11 10 9 9 9 10 10 10 11 12 12 12 13 14 15 15 15 16 16 17
5 6 2 2 1 3 5 4 4 2 2 5 12 17 17 16 15 14 15 15 14 13 12 12 13 12 10 10 9 10 9 9 8 8 8 8 9 10 11 12 14 15 16 16 17 17 18 19 18
8 12 5 3 5 5 4 4 2 2 0 5 14 19 18 16 15 13 13 15 13 13 12 11 11 11 9 8 8 8 8 8 7 7 8 8 9 10 12 13 14 16 16 17 18 18 19 19 21
10 7 4 3 3 3 3 3 3 4 5 5 12 18 17 17 15 13 14 14 13 13 11 11 10 10 8 7 6 6 6 6 6 7 8 9 10 11 12 14 15 16 17 18 19 20 19 22 23
12 10 11 6 5 1 4 2 3 4 5 5 10 16 16 16 14 13 15 16 14 13 12 10 10 9 7 6 5 6 5 5 6 7 9 10 11 12 13 14 15 17 18 19 20 20 22 24 25

GFSSGP_925_spd_015.txt.gz
Wind_Speed
16 15 12 6 5 6 12 11 4 5 4 4 8 9 10 11 8 4 4 6 5 8 11 13 14 14 10 9 12 7 4 3 3 3 2 1 1 3 3 4 3 3 4 4 5 7 7 4 3
15 14 6 3 5 9 10 10 9 2 7 10 9 7 6 1 5 8 6 6 6 8 10 12 14 11 9 9 5 4 4 3 3 3 2 1 2 2 2 1 2 3 4 4 6 6 6 4 5
15 10 7 4 4 10 7 3 5 8 11 5 5 3 5 4 7 5 6 8 7 8 9 10 13 12 8 8 5 5 3 2 3 2 3 2 4 5 4 4 1 3 4 5 4 5 5 6 7
8 6 5 8 12 5 10 6 6 9 5 2 7 9 5 9 4 6 6 7 8 8 9 9 13 11 10 8 6 5 3 3 3 2 4 5 5 6 6 3 1 3 6 5 5 5 5 7 7
10 6 9 11 11 5 7 7 6 7 7 9 6 4 3 7 5 4 5 6 7 8 8 9 14 11 9 8 8 4 3 2 3 2 3 3 7 8 7 6 3 5 7 5 7 7 7 8 7
6 4 11 12 12 5 7 6 7 8 6 7 5 9 4 9 7 3 5 5 5 8 8 9 13 13 9 9 7 5 4 2 2 3 4 4 7 3 6 5 5 6 8 7 7 8 10 10 9
11 10 15 17 14 10 8 1 9 6 10 4 8 7 8 12 8 2 4 5 6 8 9 8 10 11 10 9 7 6 5 4 3 4 4 7 6 4 5 3 5 7 7 10 10 9 10 11 10
8 11 19 16 12 16 3 4 4 9 10 8 2 4 4 9 7 3 3 5 6 7 9 9 10 10 11 10 10 9 7 4 4 5 5 6 9 8 9 9 11 10 12 13 13 11 11 12 14
8 11 14 19 16 12 3 8 5 5 12 11 9 7 5 5 3 1 2 6 8 8 10 10 10 10 10 9 11 7 8 7 6 8 7 5 6 6 5 7 11 14 13 13 13 13 13 14 16
12 13 21 16 12 12 10 7 9 9 13 12 10 8 7 4 8 6 6 8 10 11 11 11 11 10 10 9 8 7 9 8 8 7 5 5 5 6 6 9 12 12 13 13 13 13 13 14 12
18 20 18 18 11 13 13 12 15 11 15 14 8 10 12 13 13 8 7 7 9 12 11 12 11 11 11 10 9 8 7 7 6 7 6 5 5 5 5 6 6 7 9 8 9 11 11 11 13
22 21 22 20 12 11 15 14 16 16 17 15 14 16 15 12 10 9 9 8 8 9 10 10 12 12 12 11 10 8 7 6 6 5 5 5 5 5 5 6 6 7 7 8 10 11 11 14 15
23 23 20 20 17 14 15 18 18 21 19 19 17 15 15 13 12 12 8 7 6 9 9 10 11 13 12 12 10 9 7 6 6 4 4 4 4 5 5 7 7 8 8 9 11 12 13 15 17
12 24 22 18 18 18 17 19 18 19 18 19 17 16 13 12 9 10 8 6 6 6 6 7 10 12 12 12 10 8 7 5 5 3 3 3 4 5 6 7 8 8 9 10 12 14 16 16 17
21 21 19 24 19 21 18 22 24 21 20 16 16 15 7 6 7 5 3 4 2 1 2 4 7 11 12 11 9 8 6 4 3 2 2 3 4 5 6 7 8 9 10 12 13 14 15 17 17
24 18 18 18 20 20 14 22 16 11 6 9 5 4 4 4 3 2 1 1 2 2 1 2 2 6 10 10 9 7 4 3 2 1 2 3 4 5 6 6 8 10 11 10 11 13 14 15 16
15 18 25 21 23 20 19 19 17 18 8 12 11 8 5 4 3 3 3 4 5 5 5 6 7 8 10 10 8 7 7 6 5 6 7 6 7 7 6 8 8 9 8 9 11 13 14 16 18
21 25 19 23 20 17 20 22 18 16 12 11 11 12 8 7 4 5 6 7 8 9 10 12 13 13 13 13 12 12 13 13 12 13 13 11 12 11 10 9 10 10 9 11 13 15 15 17 19
22 20 22 21 20 17 17 21 20 18 17 15 11 10 10 9 7 7 8 10 12 13 15 15 15 14 15 15 15 14 15 14 15 15 13 13 12 12 12 10 11 12 11 12 14 15 17 17 18
23 22 22 14 15 11 14 17 19 17 18 18 13 13 13 11 10 10 11 12 14 16 16 17 16 15 15 14 15 16 15 15 14 13 12 12 12 13 12 13 12 13 13 13 15 16 16 15 18
26 24 19 16 13 11 13 18 21 19 22 9 11 12 14 14 13 12 13 14 15 16 16 17 17 18 18 18 19 18 16 14 12 10 10 12 12 13 13 13 12 12 13 13 15 15 16 15 16
19 17 16 15 8 8 9 7 12 14 13 12 12 14 15 14 14 12 13 15 15 15 16 17 17 17 15 14 15 14 13 13 10 8 8 8 11 11 13 13 13 12 12 12 13 13 14 15 14
12 22 16 12 8 4 12 6 14 11 15 13 14 15 16 15 14 14 12 16 15 14 15 16 17 17 15 15 15 15 14 11 9 7 7 8 8 10 13 12 12 11 11 11 13 14 15 15 16
9 19 13 7 3 7 13 13 11 12 14 16 14 16 16 16 15 13 15 16 15 13 14 14 16 16 15 16 15 15 13 11 9 9 8 7 8 9 11 11 11 11 12 13 14 15 15 16 16
13 17 6 5 4 6 5 11 13 10 6 7 16 17 18 16 15 14 14 14 15 14 14 14 14 15 14 14 14 13 12 10 10 8 7 8 9 9 11 12 12 12 13 14 15 16 17 17 18
12 17 8 7 9 12 7 7 4 8 4 9 14 17 18 17 15 14 14 15 15 14 13 14 14 14 12 12 12 11 9 8 8 8 8 8 8 9 11 12 13 14 14 15 16 17 17 18 19
7 10 2 3 7 8 8 10 7 5 6 8 15 18 19 18 16 16 14 16 15 14 13 13 13 12 11 10 9 9 9 9 7 7 7 7 8 9 10 12 13 14 15 16 17 18 20 20 21
8 8 7 3 7 5 8 6 6 10 8 10 14 19 18 17 16 15 13 16 15 14 13 12 11 11 10 9 8 7 7 7 6 6 7 7 8 9 11 12 13 15 16 18 19 20 21 22 21
6 3 5 3 2 3 6 4 11 5 3 8 13 18 19 18 16 15 13 16 15 14 13 12 11 10 8 7 7 6 6 6 6 6 7 7 8 9 10 12 14 16 18 20 20 22 23 22 25
10 9 13 6 5 5 4 5 5 4 2 5 12 16 18 17 16 15 14 17 16 15 13 12 10 9 7 6 5 5 5 5 6 6 7 8 9 10 11 13 16 18 19 20 21 23 22 25 26

GFSSGP_925_spd_018.txt.gz
Wind_Speed
18 17 18 5 2 2 6 9 7 4 3 5 7 5 8 9 5 3 6 9 12 14 14 17 15 13 11 9 10 3 4 3 4 6 5 3 3 4 6 5 5 5 5 6 7 7 6 7 5
18 19 15 3 2 3 5 12 5 1 7 7 8 5 5 3 7 8 9 9 12 15 11 14 14 13 9 8 8 3 5 4 4 5 3 2 2 1 3 3 3 5 4 5 5 6 5 5 4
16 16 1 3 4 5 4 7 10 10 9 4 5 1 4 6 10 5 15 11 13 13 11 16 14 11 9 11 5 6 5 3 3 3 3 1 2 4 0 3 1 3 4 4 3 4 5 4 5
7 5 3 4 10 12 5 6 7 7 9 4 7 8 6 14 6 8 11 11 13 13 11 15 13 12 11 9 6 6 4 3 3 2 5 1 2 2 4 3 1 2 5 6 3 3 3 5 5
11 3 4 6 11 9 3 6 7 3 5 6 5 7 5 8 10 9 10 9 13 14 11 12 15 14 14 10 9 6 3 3 4 2 3 1 4 4 5 6 2 2 5 6 3 4 5 7 7
4 3 5 8 12 15 3 6 2 5 9 5 1 7 4 11 11 6 8 8 11 13 10 12 16 15 13 11 9 5 5 4 4 3 4 0 2 3 3 8 4 2 3 4 5 6 7 8 9
7 5 10 11 14 15 2 8 2 6 7 6 2 3 6 10 7 5 6 10 8 12 11 9 16 15 12 10 8 6 5 5 4 4 5 6 5 1 1 5 4 6 7 8 9 9 9 9 10
6 7 14 11 10 14 8 3 3 3 6 9 2 3 4 5 7 6 4 6 8 10 12 12 12 13 12 13 12 9 6 5 3 4 3 4 9 6 6 8 8 11 9 11 10 10 10 11 11
6 6 11 15 14 14 6 3 5 4 5 7 8 7 10 10 8 9 6 5 7 10 11 12 14 13 13 13 14 12 7 7 7 7 4 3 2 5 7 7 7 11 11 12 12 12 11 12 14
10 8 15 12 12 11 8 4 3 5 7 9 6 10 10 8 4 4 10 16 17 15 14 13 13 14 12 11 13 9 7 8 7 6 8 1 3 4 6 6 10 9 8 8 10 10 11 12 10
17 17 12 17 18 14 5 8 6 7 8 8 9 9 8 5 6 12 8 11 17 19 18 16 15 13 14 12 8 11 10 6 8 6 6 2 3 3 4 4 7 7 8 11 10 12 13 13 13
19 20 18 18 17 7 5 6 10 10 9 9 10 8 8 9 5 10 6 5 6 15 15 16 14 15 13 13 13 10 10 9 6 6 5 4 3 3 2 4 5 8 7 10 11 12 14 15 17
21 17 20 16 17 17 8 8 12 13 10 11 13 11 11 9 8 12 8 2 6 11 13 12 14 15 14 13 11 9 9 9 6 4 3 3 1 2 2 4 6 8 8 10 11 12 15 16 18
8 19 19 19 18 15 16 14 10 11 9 12 10 14 8 9 2 4 9 7 4 8 12 12 14 14 14 13 11 9 7 6 7 4 3 1 2 1 4 5 7 7 9 9 11 13 15 16 18
16 19 15 22 19 16 11 19 18 13 12 17 13 10 10 6 6 3 3 4 2 4 5 5 8 11 14 14 12 8 8 7 6 5 3 2 1 1 3 5 6 7 10 10 10 12 13 14 16
7 13 16 19 12 16 12 18 16 13 15 20 12 6 7 7 1 3 2 2 3 3 5 5 8 14 13 14 12 8 9 9 7 6 4 5 3 4 3 6 8 10 8 11 10 15 17 17 18
10 12 23 14 17 14 18 19 15 18 18 7 7 8 9 8 6 7 3 4 4 5 7 6 8 11 14 16 13 14 13 14 14 12 10 9 9 12 11 10 8 11 11 11 12 14 16 19 21
13 14 15 16 15 17 20 17 13 13 7 9 10 8 9 10 8 9 6 6 7 10 11 12 15 16 18 18 18 19 19 19 17 16 16 14 12 12 12 12 11 9 11 13 14 16 17 17 20
16 18 15 17 15 21 21 22 12 11 13 10 9 7 9 10 10 8 10 10 11 13 15 17 19 19 20 21 23 22 22 20 19 17 14 13 13 13 12 11 11 12 13 14 14 16 18 18 21
20 22 21 11 20 19 21 19 13 11 16 13 11 9 9 12 9 7 11 14 15 14 16 17 19 21 22 23 23 23 22 18 17 16 15 12 14 13 14 13 13 13 13 13 15 16 17 14 20
24 20 17 15 20 7 7 10 11 11 13 12 9 8 12 16 11 8 9 15 16 16 18 18 20 21 22 24 24 23 22 18 15 13 13 12 13 14 14 14 13 13 12 13 13 15 16 16 19
23 23 22 20 16 9 10 4 16 23 17 13 9 7 14 14 12 8 9 15 17 17 18 19 19 20 20 19 21 18 18 17 14 13 11 11 12 13 14 12 12 11 11 12 13 14 15 15 18
20 14 23 24 15 6 6 4 9 12 18 14 9 9 14 14 13 10 9 18 17 16 18 18 20 21 20 20 20 20 19 15 13 11 11 9 8 9 13 11 11 10 12 12 13 15 15 15 16
17 15 21 23 6 5 11 7 6 7 12 12 9 10 14 14 12 11 20 20 17 17 18 19 20 20 20 20 20 19 17 14 13 11 9 9 8 8 12 11 10 10 12 13 14 15 17 18 17
25 16 7 6 3 4 16 7 9 4 7 15 14 13 14 13 12 12 10 13 17 17 18 18 20 20 20 20 18 17 15 13 12 10 9 8 7 8 11 11 11 11 12 14 16 17 19 19 21
24 8 4 5 8 5 8 7 4 6 8 11 12 14 14 13 12 12 9 16 19 19 16 18 19 20 18 18 16 15 13 12 11 10 8 8 8 9 10 11 12 13 14 16 17 20 20 22 22
7 12 20 8 7 6 5 3 4 8 6 10 13 15 15 13 13 12 11 19 20 19 18 19 19 18 17 16 15 13 12 11 10 8 8 8 8 8 10 11 13 15 16 18 19 21 22 23 26
8 7 9 4 7 7 6 8 5 9 8 7 13 15 13 12 14 11 10 18 21 20 20 18 17 18 16 15 13 12 11 9 8 7 8 7 8 9 11 13 15 17 18 19 20 22 24 26 26
7 3 11 4 2 4 5 2 9 9 11 11 11 16 15 13 14 12 9 21 22 21 19 19 18 17 15 14 12 10 10 8 6 6 6 8 8 10 11 14 16 18 20 21 22 24 24 26 25
11 4 5 1 2 1 3 2 6 8 7 9 9 15 14 12 12 11 11 19 22 20 19 19 17 16 14 13 11 10 8 5 5 5 7 7 9 10 12 15 17 19 21 23 25 26 27 23 25

GFSSGP_925_spd_021.txt.gz
Wind_Speed
17 20 24 4 4 4 3 6 1 8 3 2 2 1 3 3 3 2 9 12 16 18 22 20 17 16 13 14 12 5 3 5 7 8 6 6 6 7 6 7 5 5 5 4 3 3 3 3 3
16 20 8 2 3 2 5 3 7 5 4 5 6 2 4 1 3 6 7 14 15 16 21 20 19 16 12 14 13 8 6 7 7 8 6 5 5 5 5 5 4 5 4 3 2 1 1 2 2
16 14 2 2 2 4 4 0 3 5 7 3 4 3 3 2 4 6 14 17 16 15 19 21 19 15 13 15 10 9 7 7 7 10 7 5 5 5 3 3 3 4 5 4 2 0 0 1 4
8 7 4 1 9 11 5 7 2 2 6 6 2 4 4 4 2 12 16 18 16 17 19 19 18 16 15 14 10 9 8 7 7 7 9 4 3 4 6 4 2 1 4 4 2 1 1 1 2
7 2 0 2 7 8 6 3 3 3 2 3 2 1 3 4 13 15 15 19 20 18 18 17 17 16 16 12 11 9 7 7 7 7 8 4 1 4 8 6 3 1 1 2 1 3 4 5 7
2 2 1 4 7 9 7 4 4 2 3 7 2 3 1 5 8 13 11 17 18 18 16 16 18 17 17 13 12 8 6 6 7 7 8 5 3 2 5 7 4 1 3 3 4 5 6 7 7
4 1 5 5 7 8 5 4 5 3 3 3 4 3 2 1 8 10 10 14 15 13 11 15 18 17 16 13 12 8 7 7 7 7 9 7 5 2 3 9 6 4 5 7 9 8 8 8 9
3 3 5 5 8 11 4 3 2 4 3 3 2 3 4 6 12 13 12 12 15 11 11 12 16 17 16 14 12 11 7 7 7 6 5 7 9 6 4 4 7 8 8 10 11 10 9 9 10
1 3 8 10 9 11 7 4 2 3 3 2 4 3 7 18 16 15 14 14 15 16 14 15 15 16 14 15 14 12 8 8 7 6 5 3 4 8 7 6 6 6 9 10 10 8 8 9 10
5 5 9 4 9 7 13 5 3 2 3 3 5 8 9 14 15 12 13 18 19 21 19 18 18 18 15 18 16 13 10 8 6 6 6 4 3 4 7 6 5 6 6 7 7 7 10 11 11
5 10 5 5 13 12 8 4 2 2 3 4 6 4 2 8 5 6 12 22 27 27 23 23 20 19 17 20 18 13 10 9 8 9 7 5 4 4 1 2 5 4 7 8 8 10 11 13 14
10 12 13 13 17 14 6 5 4 5 7 4 8 7 4 8 6 8 8 9 16 26 28 25 22 19 21 17 14 10 14 12 10 8 8 8 5 5 2 2 3 5 6 8 11 11 11 13 13
14 14 14 16 18 19 11 11 9 6 7 7 10 10 11 9 10 15 6 1 3 25 27 26 23 23 19 19 16 13 16 13 10 11 9 7 5 3 2 1 3 5 6 7 8 8 11 14 14
9 11 16 19 17 12 16 9 5 6 7 7 11 11 10 10 11 7 4 2 2 12 23 26 23 21 21 17 16 13 12 11 11 8 7 5 5 3 1 2 3 5 5 8 8 8 10 10 12
7 13 15 17 14 15 12 17 15 10 7 10 16 10 11 5 8 7 7 8 5 7 13 19 21 19 21 18 15 13 11 11 8 6 5 4 2 2 2 3 2 8 8 6 6 8 10 11 14
5 6 14 7 12 9 12 21 9 8 7 12 14 10 7 8 7 9 7 5 5 5 7 11 14 16 19 19 16 13 13 14 12 10 9 6 4 4 6 3 8 9 6 7 8 11 12 14 15
4 8 7 10 7 7 9 15 11 9 10 16 10 10 9 7 6 11 8 6 5 6 9 8 11 16 19 21 19 18 19 16 13 12 8 6 12 11 7 8 7 6 6 9 11 12 14 16 17
13 7 6 7 6 10 14 18 11 9 11 15 11 10 9 8 7 12 11 7 7 9 8 9 12 17 27 26 25 24 23 22 18 15 12 11 11 10 8 8 9 8 8 11 13 13 15 13 18
5 8 11 6 9 10 18 18 20 15 15 10 9 8 7 8 8 15 13 10 12 11 13 17 26 30 30 31 29 27 25 22 19 17 13 12 12 11 9 9 10 10 10 12 13 14 17 16 23
13 14 20 15 14 11 14 19 23 17 13 12 10 9 11 8 8 9 15 14 15 14 15 19 22 24 26 27 24 26 25 20 19 17 15 13 12 11 12 10 11 10 10 11 12 15 15 9 19
15 16 16 15 14 16 10 16 23 15 19 14 11 8 17 18 14 9 11 18 19 20 22 24 25 28 27 26 26 26 25 22 19 15 14 12 12 12 11 11 10 10 10 12 12 13 15 13 16
16 13 15 17 11 10 3 8 16 17 14 9 12 9 17 12 11 10 12 16 20 19 21 23 26 29 28 26 29 29 26 21 16 14 12 10 10 12 11 10 10 10 10 11 12 13 14 15 17
18 5 11 12 14 14 19 8 7 8 20 19 17 11 17 17 18 15 14 21 20 20 22 23 23 24 26 26 25 25 22 19 18 15 13 9 8 10 10 10 9 10 11 11 12 14 15 16 15
2 1 12 8 9 12 20 14 6 8 20 20 13 16 17 15 14 14 20 27 23 23 24 26 28 26 26 26 25 24 23 21 18 14 12 8 6 8 10 10 9 9 10 11 13 14 15 16 16
5 4 3 6 6 13 10 13 15 5 11 13 16 20 18 17 17 17 16 16 22 24 25 26 27 26 26 25 24 21 19 17 15 11 9 6 5 8 10 10 10 10 11 12 13 15 16 18 18
13 15 7 7 8 8 10 8 7 19 8 11 19 23 20 18 16 16 15 18 22 25 24 26 26 25 23 22 21 19 17 16 13 10 8 7 7 7 8 9 9 11 12 13 15 17 18 20 21
10 13 25 6 5 5 5 8 4 2 8 17 18 20 19 17 16 16 15 21 25 25 27 27 26 24 22 20 19 18 15 13 12 9 7 7 6 6 8 9 11 13 14 16 17 19 21 22 22
13 15 10 5 5 5 9 5 5 6 10 15 18 19 16 16 16 15 14 20 25 27 27 26 24 24 21 19 18 17 15 12 10 7 7 6 5 7 9 11 13 15 17 18 19 22 23 22 26
9 4 8 3 7 4 5 5 5 12 15 17 17 17 18 18 16 15 14 21 26 29 29 27 25 24 21 19 17 16 14 10 7 6 5 5 5 8 10 12 15 17 19 21 22 22 21 25 18
10 12 13 7 10 5 4 3 3 9 9 13 14 15 15 16 14 14 14 20 23 26 28 28 25 22 21 18 16 15 12 8 6 4 4 5 7 9 12 14 17 19 22 23 23 23 27 19 24

GFSSGP_925_spd_024.txt.gz
Wind_Speed
19 21 22 5 3 4 3 4 3 7 5 3 3 4 4 2 3 3 5 17 12 23 26 21 19 19 17 17 16 12 6 8 9 10 10 11 10 8 7 6 5 4 3 3 3 4 3 3 5
18 21 6 2 3 1 4 4 1 3 4 9 4 4 3 2 1 5 9 16 16 22 25 23 21 19 16 17 15 12 9 9 11 10 9 10 9 9 9 6 5 4 2 2 3 4 5 6 5
16 7 2 3 3 4 4 3 5 3 3 5 1 5 3 1 2 7 5 21 18 22 23 23 22 18 15 18 14 11 9 9 11 11 10 9 11 9 8 6 4 2 2 1 1 1 1 2 4
6 6 3 2 8 7 5 7 5 5 3 3 2 6 3 2 5 8 16 21 18 20 21 23 22 18 17 17 14 11 9 9 10 12 10 7 8 10 9 7 4 1 3 3 3 1 1 2 3
3 3 0 3 7 6 3 5 4 5 1 3 6 3 3 2 9 14 20 22 19 20 20 22 21 19 18 16 13 12 9 10 10 10 10 6 5 6 10 10 5 1 1 1 1 3 3 5 6
2 3 2 6 7 7 6 5 4 4 1 4 3 2 2 5 13 15 19 20 18 21 22 21 21 19 19 16 14 11 9 10 10 10 9 7 5 2 10 9 6 2 2 2 3 5 6 6 7
4 3 5 5 6 7 6 4 2 4 5 1 2 2 2 3 13 15 14 20 19 20 22 21 22 20 19 16 14 11 10 10 10 10 12 10 6 4 5 8 6 4 4 5 6 8 7 7 8
3 4 4 5 6 10 5 3 2 4 4 1 4 3 4 6 16 15 12 21 22 21 19 19 22 21 21 17 15 13 11 11 10 9 10 11 9 6 4 5 6 6 6 8 9 9 8 7 8
1 2 6 9 8 8 4 3 5 5 4 2 2 5 4 10 13 16 17 20 22 22 20 18 21 22 21 18 17 14 11 11 8 8 7 6 7 8 7 5 5 5 6 6 5 5 5 7 8
5 7 10 6 10 9 2 4 7 3 1 2 2 4 9 14 14 14 12 17 24 25 25 22 21 22 21 19 18 16 13 10 9 10 9 7 6 7 8 9 7 4 4 4 4 6 6 7 9
5 12 6 5 9 7 6 4 6 5 5 5 4 3 1 4 10 12 17 23 29 29 27 27 25 23 22 22 20 17 13 12 12 10 9 8 6 6 5 4 6 6 6 6 6 7 8 10 12
7 6 11 5 6 5 4 3 7 4 6 4 5 5 4 7 8 13 18 24 28 26 29 28 28 27 25 23 21 19 17 15 13 11 11 10 8 8 4 4 4 4 6 7 8 9 8 9 10
5 7 9 9 10 14 14 12 8 10 10 9 8 6 7 8 9 18 19 15 14 26 33 31 29 28 26 24 21 20 17 14 12 12 11 11 9 7 4 2 1 4 4 3 3 4 5 6 7
5 6 8 9 11 8 11 12 4 7 9 9 8 10 9 10 10 12 14 17 15 15 30 33 30 27 27 26 22 17 13 16 13 14 10 9 5 4 3 2 1 3 2 4 4 6 7 8 11
4 7 7 6 4 5 7 21 21 10 9 10 9 10 8 10 14 14 20 19 13 16 23 30 31 28 25 24 22 16 13 17 17 15 11 7 4 5 5 4 0 4 3 4 5 7 9 11 13
4 4 4 3 6 5 8 26 10 8 7 11 11 11 8 11 11 15 13 12 10 11 18 21 28 27 25 22 19 18 18 19 18 14 11 7 5 4 3 2 3 3 3 6 8 10 12 13 15
3 4 6 4 9 5 12 23 10 10 8 10 10 10 9 8 7 13 13 12 11 11 15 18 18 23 25 22 20 20 22 23 20 16 12 6 6 4 4 4 3 3 5 7 9 10 12 12 17
12 6 6 5 4 8 16 19 10 10 8 12 13 15 8 9 11 15 13 12 10 12 13 14 16 18 26 26 25 23 24 23 21 17 14 11 9 7 6 6 5 5 6 9 10 11 11 9 18
7 5 7 3 8 7 11 16 17 14 13 11 11 10 8 9 5 12 13 12 12 12 12 15 20 25 32 33 30 29 26 23 20 18 14 12 10 9 7 7 7 7 10 11 11 11 13 10 21
11 13 15 8 9 9 11 16 13 16 15 15 18 11 9 6 7 7 12 13 14 14 15 21 27 30 32 32 28 29 28 22 21 19 16 13 11 10 9 8 8 9 9 10 11 13 12 8 16
14 17 11 12 11 15 12 22 14 15 13 15 17 13 9 16 13 8 8 15 17 18 21 25 28 29 31 30 31 29 26 25 23 19 17 13 11 10 9 8 8 9 9 10 11 12 13 11 10
15 11 11 9 7 5 4 10 10 6 16 15 20 11 12 15 8 6 7 12 22 22 23 26 29 29 29 30 31 31 28 25 20 18 16 13 10 9 8 7 8 8 9 9 10 10 12 13 12
9 5 5 3 8 8 16 8 6 9 11 16 20 15 15 18 17 15 12 18 24 26 27 29 31 31 29 27 28 28 26 24 21 18 15 11 9 8 8 7 7 8 8 9 10 12 13 13 13
3 4 3 2 1 9 22 11 11 10 16 16 18 13 15 17 13 10 14 20 24 27 29 29 30 27 27 27 27 28 28 26 23 18 14 9 7 6 7 7 7 7 8 10 11 12 13 14 14
11 6 3 4 6 12 10 11 22 8 13 13 16 12 15 17 17 15 15 14 20 27 31 29 31 28 28 28 27 26 25 23 20 16 12 8 5 5 6 6 7 8 9 10 11 13 14 15 16
13 15 4 7 4 6 6 10 10 14 25 19 9 15 18 18 17 17 15 18 20 27 31 31 32 30 30 29 26 24 22 20 17 13 10 7 5 4 5 5 6 8 9 11 12 14 16 16 16
6 10 22 5 4 4 5 6 10 9 9 7 10 17 20 19 19 17 14 20 22 26 31 34 33 31 30 29 26 23 20 18 16 12 9 6 4 3 4 5 8 10 11 13 15 16 17 17 19
14 7 5 5 6 10 7 5 10 13 13 6 15 19 17 16 16 15 14 18 20 27 31 31 31 30 28 27 24 22 19 16 13 10 7 5 3 3 5 7 10 12 13 15 17 17 18 18 19
9 11 10 6 6 5 4 7 10 15 12 13 13 17 20 19 17 15 12 18 22 29 31 30 29 29 26 25 23 21 18 15 11 8 6 4 2 4 7 9 11 14 16 17 18 19 20 19 16
15 17 19 7 13 4 2 8 1 8 15 17 16 14 14 16 16 14 14 19 21 25 29 30 29 28 25 23 22 19 16 13 9 7 4 3 3 5 8 10 13 16 18 20 21 21 18 19 22

GFSSGP_925_spd_027.txt.gz
Wind_Speed
18 19 18 5 3 4 2 5 1 5 4 1 3 4 3 2 2 3 0 17 8 23 26 22 18 18 18 16 15 12 8 7 8 8 10 11 10 8 7 6 4 3 2 2 2 2 3 3 2
16 16 4 2 3 2 4 4 1 4 3 7 0 1 2 0 0 1 5 17 12 23 26 23 20 19 17 16 15 11 8 8 9 10 11 10 10 8 7 7 5 3 1 1 1 2 3 4 5
11 5 3 3 3 5 5 5 4 7 8 1 2 4 1 1 1 8 3 15 20 23 24 22 21 19 16 17 15 11 9 9 10 9 10 11 9 9 8 6 5 3 1 1 1 1 2 3 4
5 5 4 3 8 6 5 3 3 8 5 1 2 3 2 3 2 7 14 18 19 22 23 22 22 19 16 18 14 12 10 10 11 10 10 10 11 11 9 7 4 2 2 3 4 2 1 1 3
3 3 1 2 7 4 4 4 3 6 5 1 1 3 1 5 2 12 22 18 19 21 21 22 22 19 17 18 15 12 10 10 11 11 10 8 8 8 11 11 6 1 1 2 1 1 3 4 5
2 3 1 6 8 3 5 5 2 3 5 1 4 3 3 3 6 15 20 19 17 19 20 22 22 19 18 18 15 13 11 10 11 11 10 8 7 3 11 11 7 3 2 1 2 3 5 6 6
5 3 5 4 5 5 6 4 3 4 3 4 6 4 3 3 10 12 18 18 17 18 20 22 22 20 19 19 16 14 11 11 11 11 12 10 7 3 8 8 6 5 4 4 5 6 6 7 7
4 4 3 6 6 10 3 2 2 4 6 1 4 3 3 5 10 11 16 19 19 20 21 22 23 22 21 20 16 14 12 11 11 11 13 12 8 6 5 7 6 6 5 6 7 7 6 6 7
3 1 7 9 7 6 1 2 3 3 2 2 1 4 3 8 15 11 11 16 18 21 23 23 23 23 22 21 18 16 13 12 10 10 9 11 11 9 6 5 5 5 7 6 6 5 5 7 8
4 5 8 4 5 5 0 4 5 6 7 3 1 2 6 13 16 12 12 17 21 23 25 24 24 25 23 22 19 18 15 12 11 10 9 8 7 8 8 7 6 5 5 6 6 7 7 8 10
4 12 9 3 5 6 4 4 3 3 6 7 5 4 6 5 6 9 14 19 28 27 25 26 25 25 24 24 21 19 16 13 12 12 11 8 7 6 6 6 6 5 5 7 7 7 8 9 8
4 4 5 1 3 3 4 3 4 4 6 6 6 5 3 7 8 11 15 21 22 25 29 29 28 27 26 24 22 20 18 15 14 13 12 10 7 6 5 3 2 3 4 6 7 7 5 7 9
4 3 6 7 8 7 9 13 7 10 9 10 9 6 9 7 9 15 19 19 24 29 31 33 31 30 27 26 23 21 18 16 14 13 11 10 9 8 5 4 2 1 1 2 3 4 6 8 7
2 4 6 5 8 6 10 12 4 4 5 9 9 12 10 9 11 12 13 18 20 27 30 36 34 32 30 28 24 21 19 17 14 12 10 9 8 8 7 6 4 1 2 3 4 5 8 10 12
4 6 6 5 4 6 2 20 22 9 9 11 11 10 10 10 13 12 21 21 24 26 26 29 36 32 31 29 25 21 20 19 14 12 13 12 10 7 6 5 1 1 2 3 5 7 9 11 13
3 2 2 2 9 6 9 23 1 13 15 12 12 9 10 12 12 19 21 22 21 21 23 23 31 32 28 27 24 21 16 15 18 18 16 11 6 3 3 1 2 4 4 6 8 11 12 13 16
4 5 3 5 6 4 10 12 5 9 10 11 10 10 10 10 10 19 19 17 15 13 15 18 26 29 27 26 24 20 20 24 22 20 17 13 7 5 4 4 4 4 5 7 10 11 13 14 19
7 4 3 4 2 4 11 18 12 9 9 10 10 9 9 8 12 17 15 14 13 12 11 13 21 27 28 28 27 26 28 26 24 20 16 13 9 8 7 6 6 6 7 9 11 10 11 10 20
5 4 4 4 6 5 9 15 12 8 10 17 11 11 13 10 7 10 13 13 12 13 16 17 20 27 32 32 31 31 30 25 21 18 16 13 11 10 8 7 7 8 10 11 12 12 13 12 21
8 12 16 6 7 6 10 21 17 15 16 13 13 14 15 6 6 7 12 13 14 16 16 18 22 29 33 34 31 32 33 25 22 20 17 15 13 10 9 8 9 9 9 10 12 13 12 11 17
11 16 16 16 11 10 11 24 18 14 19 16 16 15 13 12 11 8 9 17 16 18 18 22 26 30 31 34 32 32 27 27 24 20 19 16 12 10 8 8 8 9 9 10 10 12 13 11 10
16 8 11 10 5 7 3 9 7 5 15 19 18 17 14 10 9 9 7 11 20 19 20 24 27 30 32 33 36 36 31 24 20 21 19 16 11 10 8 8 7 7 8 8 9 10 11 10 9
7 5 8 7 5 6 14 6 6 8 16 15 8 14 12 11 13 12 13 17 24 24 25 27 29 31 32 33 34 31 30 27 26 22 19 15 12 9 8 7 6 7 7 7 8 9 10 10 9
2 5 7 3 3 10 9 10 11 10 13 8 9 11 11 11 13 9 11 18 22 24 28 29 32 31 30 29 28 29 31 32 28 22 18 14 11 8 7 6 6 6 6 7 8 9 9 10 11
13 6 3 5 6 8 6 10 23 9 6 5 10 11 11 9 13 15 15 12 20 27 30 31 32 28 26 26 26 29 30 29 26 21 17 14 10 7 6 5 5 5 6 7 9 10 11 11 12
16 13 4 6 5 4 11 11 13 14 23 24 24 16 8 12 14 17 18 16 20 26 31 30 32 30 28 27 27 26 26 24 21 17 14 11 9 6 5 4 4 5 6 8 10 11 13 13 13
6 11 17 5 3 3 5 8 8 13 13 10 11 9 11 14 15 17 16 17 21 25 29 33 33 31 30 29 28 26 24 22 20 16 13 10 8 6 4 3 4 6 8 10 12 13 14 15 15
9 6 4 5 5 6 9 8 11 5 17 23 12 12 10 13 15 14 13 18 20 26 30 30 32 33 31 30 28 26 23 19 17 14 12 9 7 4 3 4 5 8 9 11 14 15 16 16 16
9 7 5 2 4 4 5 8 9 15 18 17 10 9 15 16 17 15 13 17 22 28 30 31 32 33 31 29 27 25 22 18 15 12 10 7 5 3 4 5 8 11 13 14 16 17 16 16 19
16 17 16 7 7 9 8 16 5 8 12 9 9 12 11 12 13 14 14 18 21 23 27 30 32 32 30 28 26 24 20 16 13 10 8 6 4 4 5 7 10 13 14 16 17 15 16 19 22

GFSSGP_925_spd_030.txt.gz
Wind_Speed
15 15 13 5 4 4 3 5 1 5 2 0 1 3 4 3 4 4 1 14 8 23 25 19 17 18 16 15 13 10 7 5 6 7 8 12 9 3 4 4 3 3 2 1 1 4 4 3 1
14 10 4 2 4 2 5 4 4 3 5 7 3 4 0 2 2 1 4 15 11 25 26 23 19 18 18 15 13 11 8 7 7 8 8 9 8 6 5 4 4 3 2 2 2 2 2 2 2
7 5 3 3 3 6 5 4 4 5 7 3 2 1 3 1 2 3 2 17 16 25 27 24 20 19 17 16 14 11 9 8 8 8 8 9 8 7 6 6 4 2 2 2 2 1 1 3 3
3 5 4 3 8 5 6 2 3 9 7 1 1 2 1 1 1 4 7 14 19 23 25 22 21 18 16 16 13 11 9 8 9 8 8 9 9 10 9 6 3 1 3 4 5 3 2 1 2
4 3 1 2 6 4 4 3 4 5 5 3 3 2 1 1 2 5 14 14 17 20 21 20 20 18 16 15 13 11 9 8 10 9 9 9 10 10 10 8 5 1 2 2 2 1 2 3 4
3 3 2 5 6 3 5 4 3 3 4 6 3 5 4 2 4 11 15 13 14 18 20 19 19 18 16 15 13 11 9 8 9 10 9 8 6 5 11 12 7 3 0 1 1 2 4 5 5
5 4 5 4 4 5 4 5 3 4 5 4 2 3 3 1 6 13 14 14 13 16 18 20 20 18 16 16 14 11 9 8 9 9 10 8 7 4 5 9 5 4 2 3 4 6 6 6 6
4 3 3 6 6 7 3 3 2 3 5 3 3 3 2 2 11 12 14 14 13 16 18 19 20 19 18 18 15 12 10 8 9 8 11 10 6 4 3 5 4 4 3 4 6 6 6 5 6
3 1 5 6 7 5 1 1 4 4 3 4 2 2 3 3 15 14 13 13 14 17 19 19 20 21 19 19 16 13 11 9 9 8 10 11 9 7 5 4 4 4 3 4 5 5 5 6 6
4 4 6 5 6 3 2 2 2 4 6 4 4 4 4 11 15 14 12 16 19 21 22 21 20 22 21 20 18 16 13 10 10 9 8 8 7 8 7 6 4 4 4 4 5 6 6 7 8
3 7 3 3 3 3 3 4 2 2 4 7 2 8 5 4 7 9 11 15 23 21 22 23 23 22 22 23 20 18 15 12 11 11 10 7 5 5 5 5 5 5 4 5 4 5 5 6 7
3 5 4 2 4 4 2 4 6 4 7 3 4 6 4 5 7 9 13 16 18 19 22 23 24 24 24 24 22 19 17 15 14 13 11 9 6 5 4 3 2 3 2 2 3 3 3 5 8
4 4 4 4 7 7 6 10 8 10 9 10 9 6 10 9 10 15 16 15 16 20 23 25 26 27 26 26 23 21 20 17 15 14 12 9 7 6 4 4 3 2 0 2 1 2 4 5 7
2 3 5 5 5 5 8 13 4 8 8 9 8 9 9 9 13 14 14 19 17 20 23 23 30 30 29 28 26 23 20 18 16 14 12 9 7 5 6 6 5 3 2 1 2 4 6 8 9
3 5 6 6 6 7 4 15 17 14 11 13 14 10 11 10 13 17 20 16 20 20 22 22 26 32 33 31 27 23 21 19 16 15 12 12 10 8 8 7 4 1 2 2 4 5 6 7 10
2 1 3 4 5 6 9 19 9 8 15 15 14 10 10 13 14 22 23 21 22 21 22 18 21 28 34 32 29 25 20 19 17 16 19 16 14 13 8 4 3 2 3 4 6 8 9 12 14
4 8 5 6 2 4 10 5 2 5 4 9 9 10 10 11 11 26 27 22 23 20 17 18 20 25 32 31 27 24 20 19 20 22 21 19 16 13 5 3 3 3 4 6 8 10 13 15 18
4 7 10 8 3 4 9 15 14 9 11 13 10 10 9 10 14 20 17 19 17 14 12 12 18 23 29 28 27 25 23 26 26 24 22 19 15 10 8 7 6 4 5 8 10 10 13 13 19
4 3 9 4 7 7 12 17 18 14 12 13 13 12 11 11 12 18 18 13 13 15 13 13 19 25 32 33 33 29 31 28 26 23 19 16 15 13 11 10 7 6 8 11 11 10 12 15 21
8 13 19 13 12 10 13 24 20 17 20 18 15 16 12 10 7 7 11 13 17 17 17 16 21 28 32 34 32 33 34 27 27 22 19 16 16 15 13 10 9 8 8 10 12 14 11 11 18
6 11 8 14 9 12 12 25 17 18 21 23 20 19 16 12 12 8 8 19 18 19 20 21 23 30 32 33 33 34 28 28 26 23 21 18 16 15 12 10 9 9 9 12 13 13 13 11 12
13 8 14 13 6 7 3 10 5 4 10 11 15 13 14 14 9 8 8 11 22 22 19 21 25 29 30 34 38 43 31 26 21 27 24 20 15 14 11 9 9 9 10 11 11 11 11 10 11
4 6 8 10 8 6 8 6 5 5 8 9 9 11 14 16 15 13 12 21 26 22 22 22 25 28 31 35 39 37 30 21 31 28 24 20 17 13 11 9 9 9 9 9 9 9 10 10 8
3 4 4 3 4 11 11 9 13 7 9 8 9 11 14 12 10 12 12 18 22 21 23 25 28 28 31 33 35 35 35 35 33 28 24 20 16 13 11 9 9 9 8 8 8 8 9 9 8
9 3 3 5 6 7 7 11 22 6 8 8 10 11 10 9 8 9 11 11 20 25 28 28 30 30 30 31 31 29 31 34 33 28 24 20 16 13 10 8 8 7 7 7 7 8 9 8 9
17 10 5 5 4 4 5 8 9 9 16 18 16 14 6 6 7 10 12 12 22 25 31 28 31 32 29 28 27 28 30 31 28 24 20 16 14 12 9 7 7 7 6 6 7 8 9 9 10
5 11 14 5 3 3 5 8 10 9 10 12 8 11 13 8 9 11 11 16 21 25 29 34 33 31 29 27 28 29 30 28 26 21 18 16 13 11 8 6 6 5 5 6 9 10 10 12 10
8 1 4 6 5 5 6 7 12 9 17 14 11 12 10 7 8 9 10 12 18 21 28 32 34 33 31 30 31 30 29 26 23 20 18 15 13 10 7 6 5 4 5 7 9 11 11 10 12
8 9 6 3 4 4 4 6 6 11 7 9 16 12 9 12 14 12 10 15 22 23 27 32 33 35 33 32 32 30 27 25 22 19 16 13 11 8 6 5 4 5 7 8 11 11 11 13 16
18 13 17 7 6 4 3 17 6 5 6 7 13 10 4 8 9 11 11 15 20 23 25 29 32 36 34 33 31 29 27 24 21 18 15 12 10 7 5 3 4 7 8 10 12 12 14 15 17

GFSSGP_925_spd_033.txt.gz
Wind_Speed
12 12 10 4 1 2 2 3 1 3 1 1 3 3 2 1 3 2 1 13 10 24 25 22 19 18 17 15 12 10 7 5 4 6 7 9 8 5 2 4 4 5 4 1 3 6 6 5 4
10 8 4 2 2 1 3 3 4 2 3 7 1 2 1 2 1 1 6 10 13 25 25 19 21 18 17 14 12 10 7 6 6 6 6 10 6 5 5 5 4 4 3 2 2 4 2 2 1
5 4 2 2 3 5 4 4 4 4 8 3 2 2 2 2 1 2 4 13 17 25 24 20 19 17 17 15 12 10 7 5 7 8 9 9 7 5 5 6 4 3 3 2 2 1 1 1 2
1 4 3 2 9 4 4 1 2 6 3 1 1 4 2 2 0 3 5 15 19 26 23 20 18 18 16 13 13 10 8 8 8 8 8 7 7 8 6 4 2 4 4 6 5 4 4 3 4
4 2 2 2 6 3 4 4 3 4 3 5 3 2 2 1 4 5 14 15 21 24 23 19 18 17 16 14 12 10 9 9 9 9 9 8 8 7 8 5 2 2 3 4 4 4 4 3 3
2 2 2 8 7 3 4 5 2 2 3 5 2 1 2 2 4 10 15 16 18 22 22 20 18 17 16 15 13 11 10 9 10 10 9 9 6 6 6 10 4 0 2 3 3 4 5 5 5
5 4 4 4 4 5 5 4 4 4 2 4 1 2 2 3 6 13 14 13 15 18 20 20 18 18 16 15 13 12 10 8 9 10 10 9 5 4 4 10 5 2 1 2 4 4 4 4 4
4 3 5 5 8 8 3 4 2 4 2 4 3 3 2 2 10 14 13 11 11 16 17 19 20 19 16 15 14 12 10 8 8 9 11 10 7 3 6 7 3 2 0 1 4 4 4 4 4
2 2 6 7 8 5 1 3 1 2 2 3 2 1 4 3 11 13 11 11 12 14 18 18 20 20 19 18 16 13 11 8 8 8 10 10 8 6 4 4 4 3 1 1 2 3 3 4 5
2 3 8 6 5 3 2 1 4 3 3 3 4 2 8 2 7 11 12 13 14 16 18 19 20 21 20 19 18 15 13 11 10 10 10 10 9 8 6 5 4 3 2 1 2 3 3 4 4
3 5 3 2 2 1 2 3 2 3 5 7 6 4 5 0 5 8 9 11 15 16 18 20 21 21 21 21 20 18 15 13 11 10 9 8 7 6 6 5 5 4 2 2 1 3 3 3 5
2 5 4 2 3 2 3 2 5 5 9 3 4 5 5 9 7 9 11 12 13 16 18 20 22 22 23 21 22 20 18 15 13 13 11 9 7 5 4 3 3 3 2 1 1 1 2 5 5
3 3 3 4 5 5 6 12 12 13 11 9 12 8 13 11 13 13 14 14 13 16 17 20 23 25 25 24 23 22 20 18 15 14 13 10 8 6 5 4 5 5 3 2 1 1 4 5 6
2 2 6 6 8 6 10 16 7 9 11 16 12 14 13 11 13 12 15 18 17 19 19 19 24 26 27 27 26 24 22 20 16 16 14 12 9 8 8 8 7 4 3 1 1 2 4 6 6
2 4 6 8 7 8 4 15 16 16 14 18 16 12 13 14 18 17 20 22 21 19 16 17 20 24 30 30 28 26 24 21 20 18 16 14 13 12 10 7 6 4 2 1 1 3 4 5 7
3 2 3 3 2 6 10 15 9 9 11 19 20 19 18 20 20 23 28 25 24 22 21 19 19 23 29 32 31 28 25 23 21 19 18 17 18 15 15 9 6 5 3 2 2 4 5 9 11
4 4 6 5 2 4 10 6 2 2 4 8 9 12 13 14 18 21 29 27 25 25 23 22 19 23 26 29 30 28 25 22 23 20 20 22 20 19 16 13 9 6 5 4 5 7 9 12 14
4 4 4 6 1 4 14 19 16 15 13 16 12 11 12 13 15 19 24 23 18 20 21 20 19 23 24 27 28 27 26 23 23 24 25 24 21 18 16 14 11 8 6 6 6 7 9 12 15
1 3 10 7 6 11 16 22 19 18 18 18 17 17 16 15 15 20 24 22 18 19 18 18 20 25 28 31 32 27 28 26 26 27 27 24 21 18 17 15 12 9 6 8 7 6 8 13 17
9 14 16 15 14 11 17 27 18 18 21 20 21 19 18 18 14 12 18 19 20 21 19 18 20 25 28 30 25 23 31 26 28 28 25 23 20 16 16 14 12 9 8 9 9 9 6 9 15
7 11 10 13 10 13 17 25 17 15 18 19 21 21 21 20 17 16 13 18 21 21 24 21 22 26 29 32 32 30 28 29 25 25 24 21 20 18 15 14 12 10 9 9 9 10 9 6 9
13 8 12 12 7 6 3 11 9 6 12 11 13 15 18 20 18 19 14 15 22 28 25 22 23 28 30 33 36 43 30 26 21 30 27 24 20 18 15 13 11 10 9 9 9 9 9 7 6
6 5 8 8 8 11 13 7 8 2 5 8 10 14 15 17 17 19 16 22 27 27 27 25 25 28 31 34 37 33 28 23 32 31 28 25 22 18 15 13 11 10 9 9 8 7 7 7 5
2 3 6 4 7 9 11 11 19 7 7 5 11 10 10 13 14 14 13 17 16 25 25 25 28 28 31 34 35 36 39 37 36 33 30 26 23 19 15 13 11 10 8 7 6 6 6 6 5
11 4 2 4 6 8 5 11 21 8 18 16 12 12 13 9 9 9 10 11 16 23 27 27 28 28 30 32 33 34 35 39 41 36 34 30 24 20 16 13 11 9 7 6 5 5 6 6 5
13 11 5 6 5 5 2 9 10 13 16 15 10 9 10 7 7 9 12 11 19 23 27 26 29 29 29 30 31 31 34 35 35 34 32 26 23 20 16 13 10 8 6 4 4 5 6 6 7
5 10 8 8 13 10 8 13 11 14 11 10 7 7 12 13 10 11 11 14 19 22 27 31 32 30 31 31 32 31 32 33 35 32 27 25 22 19 15 11 9 6 4 3 5 6 6 7 6
8 2 4 5 5 9 5 7 11 7 10 10 4 7 9 10 9 9 11 14 19 20 21 25 30 33 32 32 32 33 35 35 33 30 27 24 21 17 14 10 7 5 3 4 5 7 7 7 9
8 8 7 3 5 6 9 10 7 10 10 6 4 6 8 10 10 9 10 13 17 20 23 24 30 34 32 34 35 38 37 33 30 28 24 22 19 15 12 9 6 3 3 4 6 7 7 9 10
16 12 17 8 10 6 5 20 3 6 5 3 7 6 7 7 3 7 10 14 20 21 22 24 27 30 33 37 40 38 36 32 29 26 22 19 17 14 10 7 4 3 3 5 7 7 8 10 11

GFSSGP_925_spd_036.txt.gz
Wind_Speed
10 9 6 4 5 5 6 4 2 3 4 1 3 6 4 8 2 1 4 8 10 20 20 20 20 16 16 15 13 12 9 8 8 8 8 11 9 8 7 4 5 5 3 3 7 7 5 7 7
7 5 3 2 6 8 7 5 8 1 5 6 6 7 7 2 1 4 10 8 13 20 19 20 20 17 17 15 13 11 9 7 8 9 9 13 9 7 6 6 5 5 4 3 3 1 2 1 2
4 3 4 4 7 12 5 6 6 2 4 3 3 3 3 1 2 4 4 11 16 19 19 17 20 18 16 15 13 11 9 8 9 10 13 13 8 7 7 6 5 5 6 5 5 3 1 2 3
5 5 3 9 15 8 7 3 4 3 3 1 3 5 2 1 2 4 7 10 17 17 16 17 20 17 16 14 13 10 9 9 10 11 12 11 8 8 7 5 4 6 7 8 8 7 5 4 4
5 3 8 11 18 12 9 5 5 6 5 4 4 1 1 3 3 5 12 11 16 17 16 16 18 17 16 13 13 10 9 10 10 10 10 10 8 8 7 4 3 4 5 6 5 5 4 3 3
6 4 8 15 17 10 11 10 10 10 6 5 4 5 0 2 3 6 11 12 15 17 15 14 16 17 16 14 13 11 9 10 11 11 11 9 7 7 7 7 3 2 4 4 4 4 3 3 3
12 9 15 17 15 13 13 7 11 11 10 7 1 5 2 3 4 9 11 12 14 15 16 14 15 15 15 14 12 11 10 9 11 11 11 8 5 4 8 11 6 3 2 2 3 3 3 2 2
6 6 14 12 16 18 5 7 6 8 7 1 2 5 4 4 6 10 11 12 12 15 15 15 15 15 14 13 12 11 10 9 10 11 11 10 6 2 6 10 5 3 2 1 1 2 2 2 2
2 7 12 19 15 10 4 9 10 2 7 3 3 3 3 0 8 10 11 11 12 14 15 15 15 15 14 13 13 12 10 9 9 9 12 10 7 5 6 7 6 4 3 1 0 1 2 2 3
9 10 15 7 11 7 5 8 3 6 10 11 8 5 2 3 9 12 13 14 14 15 16 15 16 16 15 13 12 13 11 9 9 9 9 9 8 7 6 6 6 5 3 2 1 1 2 3 1
9 13 9 6 6 3 8 10 8 11 14 13 11 6 1 1 7 10 12 11 13 13 15 17 17 17 16 15 14 13 12 11 10 11 10 9 8 6 7 6 5 5 3 2 1 2 2 2 2
8 10 10 7 9 6 10 8 13 14 19 8 8 6 8 8 6 9 12 12 12 13 15 16 18 19 19 16 17 15 15 14 12 12 12 10 9 7 6 5 5 5 4 3 3 2 2 2 3
9 9 8 10 10 12 13 18 21 20 18 17 16 15 16 14 13 11 11 13 12 14 15 17 19 20 20 20 18 18 17 16 14 14 13 12 11 9 6 5 4 4 4 3 2 1 1 2 4
1 6 9 9 13 13 16 21 19 18 18 22 23 23 22 21 19 17 13 14 15 15 15 16 20 21 21 22 21 20 18 17 16 16 15 14 12 11 9 8 7 6 5 3 2 1 2 3 4
6 11 13 15 13 13 10 21 21 21 22 25 22 21 21 22 26 22 20 17 16 16 15 16 17 20 22 22 22 21 20 19 18 17 17 16 15 14 13 11 9 6 4 3 2 1 2 3 5
5 6 6 3 1 4 9 16 6 10 13 17 20 21 22 22 24 29 26 22 18 15 14 12 13 18 22 23 23 22 21 21 19 18 18 19 18 17 16 14 11 8 5 3 2 2 2 4 6
8 8 9 10 4 4 10 12 3 3 9 12 13 13 14 17 20 27 29 26 22 19 18 16 14 17 19 21 22 23 22 22 20 18 19 21 20 20 18 14 11 9 7 5 3 2 3 5 7
5 12 9 11 2 9 17 22 20 19 21 20 18 17 17 18 18 20 23 25 27 23 20 18 16 16 17 18 21 22 22 21 20 19 23 23 23 21 19 14 12 10 8 6 4 4 5 7 9
5 7 11 10 9 17 19 22 21 21 24 24 23 22 23 23 20 24 23 21 19 20 20 19 16 15 18 21 24 25 24 18 18 18 22 27 26 23 18 16 10 11 8 7 5 4 5 6 10
14 16 17 15 13 14 19 33 24 25 29 26 25 25 25 25 24 23 26 27 23 21 20 19 18 18 21 20 22 21 19 14 22 23 23 25 25 22 19 15 12 12 10 8 7 5 2 4 9
16 16 15 17 16 18 21 27 15 8 14 17 22 25 25 25 24 23 24 28 26 23 21 19 18 19 21 21 20 18 17 19 16 20 24 22 24 22 18 17 13 12 10 9 7 6 4 4 5
14 8 12 13 8 6 3 12 18 16 15 14 15 16 18 19 20 22 22 25 29 26 21 19 19 21 22 25 23 25 22 22 19 21 23 25 22 20 18 17 13 11 10 9 7 6 5 3 3
7 5 7 8 11 14 15 7 14 5 13 12 16 17 14 14 16 19 20 26 26 25 22 21 21 22 23 25 23 24 21 20 23 20 25 26 24 21 15 14 13 11 10 9 7 6 4 3 1
2 6 9 10 6 8 17 16 20 14 12 10 9 9 10 10 12 15 19 20 23 23 20 22 24 24 23 25 24 27 28 29 28 25 30 29 23 18 13 14 12 10 10 8 6 5 3 2 0
10 3 3 4 6 8 2 10 22 10 5 13 20 19 13 14 13 13 13 14 19 21 21 23 24 24 25 25 26 26 27 28 31 32 35 24 25 17 15 14 12 10 9 7 5 4 2 1 2
15 9 5 6 6 8 4 11 10 11 10 16 17 12 11 12 12 13 13 12 18 23 25 25 26 24 25 25 26 24 27 27 31 30 31 23 19 17 16 13 11 10 9 6 4 2 1 1 3
5 9 12 14 20 15 11 22 24 25 22 20 20 17 10 10 13 11 13 11 16 20 25 27 27 25 26 26 26 25 29 31 27 33 29 23 17 17 15 13 11 9 7 5 3 1 1 3 4
12 3 4 6 5 10 13 20 14 14 9 7 9 9 8 11 14 12 10 10 15 19 23 23 23 24 26 27 26 25 28 30 34 33 28 21 18 17 15 12 10 8 6 4 2 1 2 3 5
10 8 7 8 9 6 14 9 2 10 10 15 4 4 9 11 14 13 9 9 13 17 21 23 24 26 26 25 25 27 32 34 32 26 21 20 18 16 14 12 9 7 4 2 1 2 3 5 6
15 15 19 9 13 11 16 23 7 12 9 4 4 9 9 11 11 10 5 7 13 18 21 24 25 25 25 26 28 29 34 32 26 23 20 19 18 15 13 10 8 5 3 0 1 3 5 7 8

GFSSGP_925_spd_039.txt.gz
Wind_Speed
10 9 8 7 6 6 12 8 10 6 5 9 3 6 6 12 7 1 8 6 14 20 21 21 21 18 15 15 13 12 10 8 8 9 10 10 11 10 8 8 7 6 6 7 9 11 10 9 8
7 8 8 6 7 11 11 12 8 7 2 3 8 9 9 7 6 8 12 8 16 19 20 19 21 16 15 14 13 11 9 8 7 8 9 12 10 8 6 9 7 7 5 3 4 4 5 5 5
7 7 7 5 12 14 12 6 8 3 4 6 4 4 3 3 5 10 9 13 17 17 18 21 20 16 16 13 11 9 8 8 9 9 11 11 10 9 10 8 7 7 6 6 4 2 3 3 4
6 7 6 10 17 16 16 1 3 7 4 3 3 5 5 5 4 5 13 14 17 16 17 20 20 17 15 13 11 9 7 8 10 12 14 11 10 11 9 8 7 8 9 9 8 7 5 4 3
13 7 11 15 21 20 7 9 6 7 2 5 2 8 1 7 8 9 13 14 17 17 15 17 19 17 14 13 12 9 8 9 10 12 12 10 10 9 7 6 6 7 7 7 6 5 4 4 3
8 8 12 16 21 19 15 10 11 11 9 7 7 9 2 9 9 9 12 13 15 17 15 15 17 15 14 12 11 10 9 9 9 10 10 8 7 7 8 6 4 5 5 5 5 3 3 3 3
14 11 16 20 18 18 15 11 12 13 14 10 5 8 6 9 7 10 11 12 14 15 15 15 16 16 15 12 11 10 10 10 10 11 10 9 8 7 8 9 7 4 4 4 2 2 3 2 1
11 14 21 19 19 21 11 9 10 13 13 2 2 8 5 9 7 10 10 11 13 15 15 15 17 16 16 14 13 12 11 11 12 13 12 9 6 2 2 12 8 5 3 3 1 2 1 1 1
10 14 16 21 22 15 4 7 12 6 10 6 8 12 7 3 7 9 10 10 12 14 15 15 17 17 16 16 15 13 12 11 12 13 14 11 7 5 9 7 8 6 4 2 1 1 2 2 3
11 14 20 16 15 16 12 12 11 9 15 16 11 7 1 2 7 10 11 13 13 15 17 16 17 18 17 16 18 14 13 11 11 11 12 11 9 9 6 6 6 4 3 1 0 2 3 3 1
13 20 14 10 9 9 12 12 13 11 15 15 17 13 8 4 8 12 13 14 16 16 17 17 17 17 17 16 15 16 16 13 12 12 12 12 11 8 9 6 5 4 2 3 0 1 1 1 2
15 16 19 10 6 9 12 14 16 18 17 15 10 8 1 8 9 12 14 15 13 17 17 18 18 18 18 17 17 15 16 14 13 13 13 12 11 11 10 8 7 6 5 3 1 1 0 2 3
13 16 11 13 14 14 14 17 18 18 16 16 18 14 14 15 14 13 12 16 16 16 17 18 19 19 19 18 17 17 16 15 15 14 14 13 12 11 10 8 7 6 4 3 2 1 1 2 4
2 10 14 14 15 15 17 20 19 16 20 22 22 21 20 20 18 19 17 16 17 17 18 18 20 20 20 20 18 18 17 17 17 15 16 15 13 11 10 9 7 6 6 4 2 1 1 2 4
8 13 15 19 19 15 10 19 24 25 23 24 22 21 22 23 26 24 24 19 19 20 19 20 20 21 21 21 20 19 18 17 20 17 18 17 14 14 12 11 10 10 8 5 3 1 2 3 5
8 11 13 3 6 9 10 16 7 8 18 19 22 21 22 23 24 29 29 26 23 20 18 19 17 20 21 21 20 19 19 20 22 19 20 20 17 15 15 13 9 9 7 6 4 2 1 3 5
12 9 14 10 7 7 13 12 8 2 9 13 14 16 17 19 22 29 30 31 28 25 21 19 19 20 22 23 22 21 21 21 22 21 20 19 17 18 17 13 10 9 8 7 5 3 2 2 4
12 15 13 11 5 8 15 21 20 19 19 18 18 17 17 18 18 22 28 31 32 28 26 24 23 21 21 21 22 22 22 22 23 23 20 20 18 20 18 15 12 8 8 7 6 4 3 3 5
9 9 12 10 8 15 20 23 20 19 20 21 21 21 21 22 20 25 25 26 30 33 32 30 26 24 22 22 22 22 23 22 22 21 19 19 18 23 20 17 14 8 8 8 6 5 3 4 8
13 14 15 14 13 12 17 29 24 25 27 23 23 24 25 24 23 23 29 30 31 32 33 31 29 25 23 22 22 20 20 24 21 16 17 19 20 22 22 18 14 11 10 9 7 4 4 4 8
13 14 13 14 16 18 22 26 19 15 16 21 22 23 25 24 24 23 24 30 30 33 31 30 30 26 25 23 21 18 20 21 18 19 19 19 24 24 23 19 16 12 10 10 8 6 5 4 3
11 9 10 11 9 6 5 11 16 16 17 15 15 15 16 18 20 21 22 22 30 31 31 29 28 26 26 26 25 27 21 20 16 26 22 22 21 23 19 18 17 13 10 10 8 6 5 3 2
6 3 5 8 10 14 15 9 13 9 11 13 15 14 14 14 13 15 17 21 27 26 29 27 25 25 25 28 26 26 21 19 24 26 24 22 23 22 20 17 15 13 10 9 8 6 5 4 2
4 3 6 7 6 8 16 16 19 8 9 6 6 4 6 6 9 10 14 19 21 25 21 25 24 26 25 27 26 27 25 26 28 29 26 28 23 22 19 16 14 12 11 10 8 6 5 3 2
8 1 2 4 5 8 2 10 17 16 10 7 8 11 14 8 7 13 14 13 17 19 24 21 24 25 26 26 26 26 26 27 29 32 30 30 25 23 21 18 16 12 11 9 7 5 3 2 0
12 8 4 5 7 11 5 10 8 10 5 5 11 16 15 10 12 6 13 13 16 20 23 24 26 26 26 26 25 25 25 25 25 27 28 25 26 24 23 17 14 13 11 9 7 4 3 1 1
6 8 10 11 16 11 9 20 24 21 21 14 16 15 17 16 9 10 10 12 19 19 23 26 27 27 26 26 25 24 24 25 27 26 26 25 24 24 20 18 15 13 10 8 6 3 2 2 3
12 0 2 4 5 10 10 19 14 13 12 7 13 11 9 6 9 9 9 12 17 19 22 26 27 26 26 26 23 23 23 23 29 29 30 27 24 21 20 16 14 12 9 6 4 2 2 2 4
11 9 7 8 7 6 12 9 10 10 12 13 14 13 1 8 10 12 12 14 12 16 20 23 24 25 26 26 24 24 24 27 31 32 30 27 22 20 17 14 12 10 8 5 3 1 2 4 6
14 14 17 7 9 8 11 21 12 13 13 9 12 5 9 9 12 10 12 9 7 12 18 22 23 25 26 27 26 25 27 30 31 30 27 24 22 16 15 13 11 8 6 4 2 2 4 6 8

GFSSGP_925_spd_042.txt.gz
Wind_Speed
8 13 12 7 2 4 8 11 1 3 2 5 5 4 6 8 3 3 13 11 27 25 25 24 21 18 15 15 13 12 10 10 9 8 11 12 12 11 10 11 10 10 11 13 14 14 12 10 8
8 11 12 3 4 6 9 15 6 2 4 9 8 5 6 1 8 8 11 13 23 27 23 23 22 18 16 15 14 11 9 8 9 9 11 14 12 11 11 11 10 10 9 9 10 9 10 8 7
7 10 2 4 5 10 9 6 7 7 6 2 5 9 6 4 8 13 20 20 24 25 24 23 21 16 17 15 14 12 9 9 9 10 15 12 11 11 12 11 11 10 9 8 6 6 5 4 4
8 5 4 5 13 13 17 12 5 5 3 1 5 4 5 12 3 15 18 20 21 25 26 23 20 17 15 14 13 12 10 11 12 14 14 12 13 12 11 10 11 12 12 11 10 8 6 5 5
10 4 6 8 14 16 15 6 5 1 4 2 4 7 6 9 15 18 17 20 20 25 25 23 20 18 15 14 13 11 11 13 14 17 14 11 12 11 10 9 10 10 10 10 9 8 6 5 5
4 3 5 12 15 14 15 10 5 3 8 7 2 7 4 17 16 16 15 18 21 22 22 22 20 18 16 14 13 12 12 13 15 15 13 13 12 10 9 7 8 8 8 8 6 5 4 4 4
8 6 9 13 13 12 11 9 7 7 7 7 5 4 8 9 19 16 14 16 21 22 24 21 21 18 17 15 14 12 11 12 13 14 13 13 12 9 9 8 6 6 6 6 4 3 4 4 3
4 5 14 12 12 14 10 5 8 7 8 3 4 2 4 5 14 16 13 16 17 20 21 22 20 20 19 17 15 14 13 13 14 14 14 11 9 6 8 12 8 6 5 5 3 3 3 3 3
8 6 10 15 14 13 12 3 4 2 6 7 3 4 8 8 10 15 13 15 15 18 20 24 25 20 18 16 16 14 13 13 14 16 15 12 9 6 11 15 11 7 5 4 3 3 3 3 4
6 8 11 10 12 10 13 3 4 4 8 8 7 7 12 7 8 12 13 14 18 18 19 20 26 23 20 20 17 16 15 14 15 15 16 14 12 12 12 13 9 7 5 5 4 4 5 2 1
7 13 10 13 15 6 10 11 0 6 6 7 9 8 10 11 11 11 15 19 19 21 19 20 21 22 25 26 20 18 16 12 13 13 14 16 14 15 12 8 10 7 6 6 5 5 5 2 1
15 12 15 16 10 4 6 8 10 7 9 10 10 7 5 6 6 10 11 16 23 23 22 21 21 22 23 24 24 22 19 16 20 19 17 15 16 14 14 11 9 8 4 6 6 7 1 4 2
12 16 12 10 8 7 7 9 10 14 10 11 10 10 5 5 7 14 16 17 15 24 25 23 21 23 23 22 22 23 23 23 21 21 19 17 16 14 14 14 12 10 11 8 6 4 5 2 1
5 8 12 14 7 8 12 12 11 8 12 15 15 12 9 8 9 17 17 12 15 17 24 24 24 24 24 24 25 23 24 26 21 21 20 18 17 16 16 13 14 12 9 8 8 7 5 2 1
4 7 11 13 11 10 6 15 17 19 18 17 14 14 14 12 16 15 22 19 20 20 24 26 27 25 25 25 21 22 20 21 23 20 21 20 18 18 16 15 14 13 12 11 10 6 5 2 2
4 9 7 9 19 15 13 14 11 10 18 20 18 14 14 13 17 27 27 28 25 23 21 26 30 31 28 27 26 24 23 22 24 20 23 22 20 21 19 20 16 13 13 11 9 7 3 1 2
9 6 12 10 6 5 7 6 10 5 4 7 10 13 13 13 13 23 27 32 32 26 25 24 28 32 32 30 30 27 24 25 25 25 23 26 22 23 23 19 15 14 12 11 9 8 6 2 2
8 13 11 9 6 4 8 14 13 13 14 12 9 9 9 9 10 18 26 31 30 31 30 27 21 27 26 28 28 29 26 26 25 27 26 29 25 24 21 21 18 17 15 12 10 7 5 2 3
13 9 9 10 8 7 9 16 15 14 14 17 15 12 14 16 11 21 24 24 24 28 29 34 31 31 31 28 30 30 31 25 28 28 29 31 28 25 26 24 22 17 15 12 10 9 5 3 4
8 9 10 9 10 8 11 19 17 20 21 18 19 16 15 13 12 14 21 24 30 28 27 27 27 29 38 34 30 27 27 25 30 31 29 31 28 27 26 25 23 20 19 15 11 8 6 3 6
8 7 8 10 11 11 14 18 12 11 21 22 21 19 15 14 14 15 15 22 26 29 31 28 28 29 31 34 30 25 27 26 28 30 29 27 26 27 26 25 24 20 19 17 12 10 7 6 4
7 3 6 6 6 4 8 7 6 9 8 8 10 10 11 12 13 14 14 14 21 28 32 35 32 32 31 35 31 35 29 24 27 36 32 28 26 25 26 26 22 21 19 17 13 10 9 7 6
5 5 4 5 6 7 5 4 6 3 6 6 7 7 9 8 9 10 11 18 28 26 20 35 37 32 32 37 32 35 30 23 31 32 32 28 26 25 25 24 23 20 18 17 13 11 9 9 7
6 3 4 4 1 4 11 9 5 3 1 1 6 3 13 6 4 4 4 7 11 20 27 24 29 36 29 33 31 35 34 32 32 32 32 30 29 27 26 24 22 20 18 16 14 11 9 8 7
6 3 2 2 3 6 3 8 11 14 13 11 6 3 5 5 2 3 6 6 13 18 18 23 20 29 28 30 27 32 29 33 34 35 34 32 30 29 26 24 23 20 18 15 12 10 8 7 5
9 5 3 5 2 4 6 7 6 11 13 5 4 5 7 7 2 3 3 6 14 16 21 21 18 22 27 30 29 28 30 31 31 32 34 32 31 32 27 23 21 19 16 15 11 9 7 4 3
5 5 2 4 5 2 5 6 9 19 14 10 5 5 6 8 5 3 4 7 16 22 19 21 23 21 26 29 27 27 33 32 31 30 33 34 30 30 27 24 21 19 17 13 10 7 4 3 3
7 4 2 1 2 5 5 8 6 6 7 8 9 8 11 5 5 3 6 8 19 26 22 23 23 26 26 28 25 32 32 31 30 33 31 28 30 29 28 24 21 19 17 13 11 7 5 4 3
7 5 3 3 4 3 5 4 5 3 2 7 8 6 5 6 5 4 4 8 20 28 14 22 22 21 26 25 31 34 34 34 32 31 32 33 31 29 26 22 19 15 13 11 9 6 4 2 3
7 7 9 4 5 5 3 11 21 6 6 7 11 8 7 5 3 4 4 6 17 18 9 18 22 24 28 31 33 33 34 31 32 31 32 33 30 27 24 20 17 14 11 8 7 5 2 3 5

GFSSGP_925_spd_045.txt.gz
Wind_Speed
10 8 12 2 3 4 4 7 3 7 3 1 3 5 3 2 1 2 4 19 24 31 27 25 23 20 20 18 17 16 16 15 14 15 15 14 13 13 12 11 12 12 14 17 17 16 14 13 11
8 8 3 1 4 1 5 9 12 7 3 4 6 4 4 2 3 7 12 26 28 32 29 26 23 20 20 18 17 16 15 14 15 14 15 16 13 12 12 12 12 12 12 13 13 12 11 9 8
7 2 2 4 4 6 5 4 9 4 6 4 4 1 1 2 4 13 20 30 27 30 27 27 23 20 21 20 18 16 15 15 15 17 19 15 13 13 11 12 12 12 11 11 10 8 6 5 6
1 3 3 2 8 8 11 7 6 2 4 5 3 3 4 4 16 14 32 31 27 30 28 27 23 20 20 19 18 15 15 16 17 19 17 16 16 15 13 13 13 13 13 12 10 8 7 6 7
3 1 2 4 9 7 8 6 8 3 3 2 0 2 4 5 21 28 32 29 31 30 27 27 23 21 20 18 16 15 16 17 20 18 18 17 17 15 13 13 13 13 13 12 11 9 8 8 6
0 3 2 9 6 6 10 9 5 3 3 2 2 3 2 20 22 26 28 29 32 32 29 27 23 21 19 19 17 16 17 18 21 20 16 17 16 15 12 12 12 11 11 10 9 8 7 7 6
5 3 6 4 5 6 11 8 7 8 4 4 2 3 0 3 18 21 23 26 30 32 30 27 24 21 19 19 17 17 18 21 21 19 17 18 14 13 11 10 10 10 9 8 7 8 7 7 7
4 4 4 6 8 7 8 4 5 7 7 2 2 3 4 6 20 18 18 29 29 29 26 26 25 23 22 20 18 17 18 20 21 20 19 18 15 12 13 11 10 9 8 7 7 8 8 7 7
2 2 5 7 7 5 12 4 4 2 4 3 3 4 8 18 16 14 19 28 28 27 25 26 26 24 22 21 19 18 17 19 20 19 18 16 13 10 15 16 12 9 8 7 7 7 7 8 9
5 6 6 4 7 5 5 4 6 2 3 1 4 4 13 18 16 15 13 16 25 27 27 27 28 27 24 22 21 20 18 19 20 19 20 15 14 10 13 18 13 9 8 8 7 8 7 5 6
5 5 5 12 11 1 4 6 4 4 1 6 5 7 5 12 17 16 18 21 23 26 26 31 30 28 27 26 24 22 20 19 19 20 20 18 16 15 14 15 12 10 9 10 11 10 7 6 6
5 5 12 11 12 4 3 5 6 1 4 8 5 3 4 8 8 13 18 26 27 28 29 29 32 31 30 28 28 25 22 19 20 20 20 22 16 22 17 11 12 11 11 11 11 10 7 7 5
6 6 10 9 8 4 4 4 4 7 8 11 11 5 4 6 7 11 18 22 30 32 33 32 29 32 33 32 30 27 24 20 21 21 19 23 22 23 16 15 15 12 12 12 13 12 9 7 4
5 3 3 5 7 5 6 6 2 3 6 11 10 13 6 7 10 14 13 15 20 31 36 35 33 31 35 35 32 29 26 24 25 26 24 22 22 21 18 20 18 14 18 17 14 12 10 7 5
3 2 6 6 5 5 7 7 8 10 9 12 14 12 13 10 17 16 23 21 17 18 35 39 36 34 33 34 32 29 26 26 29 29 27 25 23 21 22 21 20 21 18 16 15 13 10 7 4
3 3 1 7 10 9 9 13 5 11 8 14 19 17 14 16 12 26 31 29 27 23 20 39 40 37 37 33 30 31 28 31 32 32 29 26 24 24 24 24 23 20 18 16 15 12 10 7 4
1 3 6 7 8 6 12 3 14 9 14 10 14 15 16 19 15 26 30 35 37 34 29 36 39 40 39 38 35 30 32 30 37 30 30 29 27 28 28 26 24 20 20 17 14 13 10 7 3
5 4 3 6 5 5 6 8 8 10 8 11 10 9 10 13 17 29 33 33 34 38 36 31 39 42 43 41 37 36 31 30 33 34 32 31 30 30 28 25 23 22 21 18 15 12 9 6 2
5 4 3 5 6 3 8 10 10 11 10 16 15 11 14 15 12 20 21 22 32 38 33 37 30 40 38 32 31 31 32 33 35 36 34 33 35 33 29 27 25 24 22 19 17 14 10 5 1
6 4 5 7 4 5 12 20 17 18 18 17 22 14 16 16 9 10 21 25 21 25 24 24 27 34 44 40 37 30 33 35 36 35 33 36 39 37 31 29 28 26 23 21 19 17 12 5 3
2 2 3 5 7 5 9 10 8 7 14 18 19 19 15 15 13 11 11 21 24 23 26 28 22 20 33 41 39 27 32 29 27 30 34 38 39 36 32 31 30 27 25 24 21 17 14 9 4
1 4 2 3 4 3 6 7 6 9 9 6 11 12 15 14 10 8 9 13 25 28 33 29 31 27 23 35 39 35 33 23 24 37 38 39 37 34 32 31 29 26 24 23 20 16 13 11 9
3 5 5 4 4 5 3 3 8 7 5 8 6 10 10 13 12 13 12 21 29 31 29 22 31 37 34 33 42 41 31 35 32 35 38 38 36 32 30 30 28 26 24 21 20 17 14 12 12
6 5 4 3 3 3 8 7 5 3 4 1 1 4 7 8 8 7 9 13 15 15 17 23 23 25 34 34 42 40 39 35 36 36 36 35 33 32 32 30 27 25 23 21 19 16 13 11 9
5 5 3 0 2 6 2 4 7 9 11 9 8 8 6 7 2 2 4 2 1 5 10 16 18 23 23 32 38 41 44 43 44 42 37 36 34 32 33 30 27 24 23 21 18 16 14 11 9
4 5 4 4 3 4 5 7 6 11 13 8 6 3 4 5 5 6 2 4 7 9 11 18 22 22 23 29 37 40 40 39 37 39 37 33 31 33 34 31 26 25 22 19 17 14 12 9 7
3 3 5 1 2 3 5 7 9 7 8 8 7 6 8 9 7 3 6 4 6 10 13 19 23 25 22 31 35 37 37 35 34 34 32 32 30 32 33 31 28 24 22 20 16 14 11 7 5
5 5 2 2 2 5 6 5 8 4 5 8 9 9 9 9 2 5 2 2 5 13 18 22 23 25 24 32 34 34 33 32 31 30 31 32 30 30 34 30 25 23 20 17 14 13 11 8 5
3 3 3 2 4 4 4 5 5 6 1 4 4 4 6 11 8 6 2 1 6 12 16 23 18 23 25 30 27 31 29 28 29 30 30 30 30 32 31 28 26 23 20 15 12 9 8 6 4
5 5 5 4 4 4 3 6 9 12 6 14 18 19 9 9 6 2 2 3 8 12 18 19 15 21 28 31 32 32 31 30 29 30 30 31 32 32 29 28 25 20 17 13 11 9 7 4 2

GFSSGP_925_spd_048.txt.gz
Wind_Speed
12 9 9 4 3 4 4 6 3 8 7 3 3 6 3 2 2 3 5 13 27 32 28 25 23 23 23 22 21 20 19 17 17 16 14 13 13 12 11 11 12 14 18 15 16 15 13 12 10
10 6 1 2 4 1 5 4 9 8 6 7 4 5 3 1 2 6 15 22 32 32 28 26 24 23 23 22 21 20 18 17 17 17 16 14 13 11 11 12 12 13 14 15 14 12 11 9 8
6 1 3 4 4 6 5 4 3 5 5 4 2 3 5 3 1 15 10 29 32 32 29 26 23 22 22 21 20 19 18 17 17 17 17 14 13 11 12 12 13 12 12 12 11 9 8 6 6
2 3 3 3 7 8 7 4 2 9 7 1 2 5 2 3 8 11 29 32 33 32 29 27 23 21 21 20 19 17 17 17 18 19 17 14 13 13 12 12 13 12 11 10 9 7 7 6 7
2 2 2 4 8 6 6 4 6 8 7 2 2 3 0 1 7 23 34 31 33 32 29 27 23 21 22 20 18 17 18 18 20 20 17 16 14 13 13 13 13 13 12 11 9 9 8 8 7
2 3 2 7 7 5 7 7 2 6 7 3 3 6 2 4 24 29 31 31 30 32 31 27 23 22 21 19 18 17 20 21 22 20 18 18 16 14 13 13 13 12 12 11 10 9 9 8 7
4 4 5 5 5 6 10 5 5 9 9 5 5 4 1 1 22 28 29 29 29 30 32 29 25 23 21 20 17 18 21 23 22 20 19 19 17 15 13 13 13 12 11 10 10 9 9 9 9
5 3 3 5 5 7 4 1 4 6 11 2 4 6 4 7 21 25 27 28 29 31 32 31 27 25 23 21 19 19 22 22 26 21 20 20 17 14 13 11 11 10 9 9 9 9 9 9 8
4 3 4 5 8 5 2 4 6 2 3 1 1 7 7 24 22 24 23 23 27 28 32 31 30 27 24 22 20 19 21 24 24 22 21 21 18 15 14 13 11 10 9 9 9 9 9 9 9
4 5 8 5 5 3 3 2 5 6 3 3 3 4 16 22 21 22 20 19 22 24 30 31 30 28 25 24 22 21 21 24 25 24 23 20 18 17 18 17 13 10 9 9 9 9 9 9 8
5 5 8 4 5 3 5 5 4 2 4 3 1 3 4 6 15 18 21 30 33 32 31 32 31 30 29 27 25 23 23 23 24 24 24 22 19 15 15 21 17 13 11 11 10 10 8 9 8
3 7 5 3 6 2 3 3 3 4 6 3 2 1 5 7 6 11 21 26 29 33 34 32 33 32 32 29 29 28 26 25 25 25 24 24 22 18 18 21 19 15 14 14 12 11 10 8 8
3 3 4 6 7 4 5 6 6 6 9 10 2 5 7 6 9 16 17 26 31 31 35 35 36 35 35 34 32 31 30 28 26 26 27 26 25 23 22 20 17 17 17 16 15 13 10 9 6
4 8 6 4 4 3 5 6 5 3 7 10 7 7 8 8 9 10 13 21 24 32 32 35 38 38 37 38 35 34 31 29 28 27 28 29 28 24 27 23 18 19 17 16 16 17 14 10 7
2 5 2 4 3 4 3 15 8 9 10 10 15 10 8 9 16 15 21 19 19 22 36 37 38 40 40 40 38 36 33 31 30 28 27 28 30 26 27 23 22 20 18 18 19 18 14 10 7
5 4 1 4 3 6 8 20 3 10 7 11 11 14 13 10 14 26 26 26 29 20 18 34 40 40 43 41 40 39 36 33 31 30 30 30 32 27 28 25 25 22 22 23 22 18 13 10 8
1 3 5 6 7 6 9 3 10 16 11 9 12 10 12 12 11 24 32 32 31 31 28 22 33 36 44 42 40 40 38 34 33 33 33 35 33 30 29 27 25 26 26 24 21 17 13 11 8
6 4 3 5 4 2 7 9 10 6 7 10 10 10 11 12 17 21 27 33 38 38 32 26 25 35 42 43 40 38 39 35 34 36 35 36 36 31 30 28 30 28 26 23 19 17 15 12 9
3 2 2 4 4 5 7 6 12 10 7 10 15 13 14 15 15 19 25 24 28 35 35 30 28 32 38 33 32 32 37 38 36 37 38 38 35 34 33 33 32 29 27 25 21 18 15 11 8
1 3 4 6 1 3 7 15 14 14 13 16 21 21 18 13 11 9 22 26 23 21 21 29 33 28 41 36 38 32 39 41 39 36 41 41 39 37 36 37 35 31 27 24 23 22 17 7 9
4 3 2 4 5 1 7 9 6 6 7 9 17 19 15 15 17 15 11 21 27 26 23 22 22 23 31 38 33 34 31 29 34 36 40 41 43 42 40 39 37 33 30 28 25 23 19 12 8
2 1 3 3 4 4 5 6 5 8 12 7 8 8 11 12 11 12 9 14 27 30 29 26 24 21 23 34 34 34 32 22 29 41 42 43 42 44 41 39 37 35 31 27 26 23 19 15 12
3 4 4 2 3 4 3 2 8 5 7 6 6 8 8 10 8 9 9 20 28 26 26 27 25 28 25 30 39 39 29 27 35 39 41 41 38 39 42 39 36 33 30 27 25 21 18 14 14
7 5 6 4 3 2 4 4 6 3 4 2 4 9 9 8 6 8 14 17 19 13 12 14 20 23 20 24 31 38 37 32 31 36 37 35 36 36 35 34 33 32 29 27 23 20 17 15 12
5 6 2 4 2 6 3 3 9 9 12 4 8 9 9 8 7 5 5 2 4 5 5 4 6 11 16 21 26 34 38 42 43 42 40 39 39 37 36 34 33 31 29 24 22 20 18 15 13
4 6 4 4 3 4 3 5 6 4 6 3 6 4 9 11 9 8 5 3 6 5 3 2 6 9 15 21 25 29 38 40 39 41 42 41 40 39 36 33 31 29 27 24 21 19 15 12 11
3 2 4 3 4 3 4 6 9 3 5 7 8 9 10 10 10 9 7 5 5 3 5 7 10 15 20 23 25 28 34 36 41 41 39 40 38 35 32 30 29 27 25 24 21 18 15 15 11
4 6 3 3 1 4 4 4 5 5 4 2 7 7 8 8 13 9 7 11 11 8 10 10 13 17 21 20 23 28 33 37 38 40 38 34 32 31 31 30 29 27 25 22 20 17 14 11 9
3 2 1 3 4 3 4 5 6 4 4 4 7 7 13 14 14 11 7 14 9 12 12 15 16 18 14 19 23 26 30 31 31 32 32 30 29 31 32 32 30 27 23 20 17 14 12 8 8
4 6 6 3 3 2 3 8 6 5 3 6 16 13 9 12 10 12 8 11 10 14 15 15 17 15 16 22 24 25 27 27 27 25 26 28 30 29 31 32 29 25 22 18 16 14 9 6 3

GFSSGP_925_spd_051.txt.gz
Wind_Speed
8 8 7 4 3 4 3 6 3 4 4 2 4 2 5 1 3 4 0 14 25 32 26 22 22 21 19 19 19 19 19 16 14 14 12 10 10 9 8 9 8 12 12 11 10 12 13 10 8
5 5 2 2 4 1 5 4 5 6 4 7 2 0 2 1 2 5 13 12 27 32 26 25 22 22 21 21 20 19 19 17 17 15 12 11 10 9 10 10 11 15 14 13 11 11 10 8 7
2 1 3 4 4 6 5 5 4 4 7 3 3 2 5 3 2 15 6 24 32 31 28 25 23 23 22 20 19 18 16 16 16 15 14 12 10 9 10 11 10 11 12 12 10 9 7 6 5
3 3 4 4 8 6 7 4 2 8 6 3 2 4 1 2 8 9 18 31 32 31 29 26 23 22 21 20 19 18 16 15 15 14 15 12 10 10 10 10 11 11 10 9 8 6 6 4 6
3 3 2 3 7 5 3 6 4 7 5 6 6 4 1 2 5 14 30 32 32 31 29 26 22 20 20 19 18 17 16 17 16 17 15 12 12 11 11 11 11 10 10 9 7 6 6 6 8
3 3 2 6 8 4 5 5 2 3 4 8 3 5 3 1 16 24 28 30 29 31 28 25 21 20 19 18 16 16 16 16 19 19 15 14 13 12 11 12 12 11 9 8 8 7 7 7 7
6 4 5 3 11 6 5 4 4 5 6 10 3 6 2 2 17 27 28 27 27 28 27 25 22 20 19 17 16 15 17 19 20 19 17 16 14 13 12 12 11 10 10 9 8 7 7 8 8
4 4 5 5 5 7 2 6 2 4 8 4 9 5 4 5 22 26 25 24 25 27 27 26 23 22 20 18 16 16 18 19 21 19 19 18 16 14 12 12 11 10 9 8 8 8 8 8 7
4 3 5 6 7 4 1 2 2 2 5 3 3 4 3 26 26 24 22 18 22 25 28 28 26 24 23 20 18 17 19 21 20 20 19 19 18 15 13 11 11 11 10 9 9 8 8 7 6
4 5 9 6 5 1 4 3 4 6 6 4 4 3 12 27 26 21 20 19 21 24 27 28 28 27 25 23 21 19 21 21 25 22 21 22 19 17 15 13 12 11 10 10 9 9 9 8 7
5 5 5 4 4 1 2 6 2 3 5 3 3 6 4 5 6 16 19 23 29 26 29 28 31 29 28 27 25 23 23 25 26 24 23 23 21 19 18 18 16 13 12 12 11 11 10 9 7
3 6 4 5 5 1 0 4 4 4 7 2 4 5 6 2 6 10 15 20 23 27 29 29 31 31 31 29 28 27 26 27 28 27 26 25 23 21 20 22 21 17 15 13 13 12 10 9 9
4 2 4 4 6 3 1 6 6 6 11 4 7 5 8 8 6 11 18 19 21 22 28 33 33 34 34 33 31 30 29 29 28 28 28 28 26 23 19 19 22 19 16 15 13 13 12 9 9
3 6 7 4 4 3 4 6 4 4 8 10 7 8 9 8 11 9 12 17 19 29 31 33 34 35 35 36 34 34 32 31 30 30 30 29 28 25 22 20 22 21 18 17 15 13 12 11 9
1 3 2 5 3 5 2 10 9 7 9 11 15 8 8 10 18 16 19 15 22 27 29 33 36 36 38 38 37 35 34 33 33 31 30 31 31 28 26 24 24 20 19 18 18 16 15 13 10
6 3 3 3 6 5 7 20 1 10 8 10 11 13 8 9 14 22 26 26 22 20 21 30 34 35 39 38 38 38 37 36 36 32 31 32 32 32 29 27 27 21 21 21 19 21 18 14 10
2 4 4 5 6 4 8 3 4 8 9 11 12 13 9 10 10 20 26 30 31 27 24 23 29 34 38 40 38 38 38 38 37 33 32 32 31 31 32 29 27 24 23 22 23 22 19 15 11
5 5 3 5 2 3 7 8 15 9 5 8 9 11 11 10 15 20 20 21 28 30 29 24 25 31 36 38 35 35 35 38 36 36 35 34 33 32 33 30 28 28 26 26 26 24 18 14 11
5 3 3 3 1 3 6 5 13 9 6 9 11 14 15 15 14 17 26 24 21 24 27 29 26 26 35 32 29 29 33 39 39 38 38 37 36 35 33 32 30 30 30 31 29 24 18 13 12
3 1 3 5 0 2 6 11 17 15 11 14 16 17 17 14 9 9 20 24 23 24 22 21 26 27 34 38 39 32 35 38 41 44 40 41 39 37 37 37 35 34 34 34 31 27 20 13 15
1 3 3 3 3 3 7 7 6 4 4 5 8 11 11 14 16 14 9 22 27 27 28 26 21 19 28 37 36 28 26 24 34 35 39 39 40 38 39 40 38 38 38 38 34 29 24 18 15
4 3 2 2 3 2 4 5 6 7 9 6 7 7 9 10 9 9 8 14 24 27 28 25 26 24 21 28 31 33 32 25 30 38 43 42 39 40 43 42 41 42 41 38 33 28 26 21 16
3 4 4 3 4 2 1 2 8 4 6 4 5 9 9 8 7 10 9 17 20 18 18 19 19 21 22 22 29 38 30 26 27 33 40 42 40 38 41 42 41 42 41 37 33 30 27 23 19
8 5 6 4 2 2 2 4 6 2 2 5 6 8 10 11 11 12 15 15 16 12 14 16 17 18 19 19 24 33 35 30 27 31 34 39 41 38 39 43 42 40 39 35 32 28 25 22 17
5 6 3 4 3 4 3 2 9 9 9 4 4 7 8 8 12 13 13 12 18 10 5 7 9 12 13 19 21 26 34 35 35 36 35 35 38 40 42 44 43 39 35 32 29 27 24 20 16
1 5 4 4 1 3 2 5 5 3 3 5 3 4 5 11 8 8 9 11 15 15 13 7 6 10 11 12 15 18 26 33 37 38 38 39 42 39 41 39 39 35 31 28 27 24 21 17 12
3 2 3 5 3 2 3 7 8 5 4 3 8 8 8 8 9 9 8 13 19 16 16 16 15 15 17 19 20 21 21 29 35 37 38 34 34 39 36 37 34 29 29 28 25 23 18 16 15
3 7 3 3 2 3 4 5 4 3 2 5 10 10 9 7 8 8 7 13 20 19 16 18 16 19 20 23 24 24 22 25 31 34 35 33 32 32 32 32 29 29 27 26 24 21 18 16 14
2 1 5 4 3 3 3 6 5 3 2 5 8 9 7 11 8 8 8 16 22 16 15 17 17 19 22 21 22 20 19 21 24 26 28 28 27 28 29 28 29 29 28 26 24 20 17 13 9
3 5 5 3 3 1 2 6 2 4 5 6 13 11 13 7 8 7 8 16 19 18 15 18 20 19 14 13 12 13 14 16 17 20 22 22 24 24 27 29 29 29 28 24 22 20 16 12 10

GFSSGP_925_spd_054.txt.gz
Wind_Speed
7 7 4 4 3 4 3 6 2 3 2 0 1 3 5 3 4 4 0 12 19 26 23 21 20 19 19 19 19 18 17 15 12 10 10 9 8 6 8 8 7 10 11 8 12 14 15 10 10
3 2 3 2 4 2 5 4 6 4 4 9 5 2 1 1 2 2 12 12 23 31 26 23 22 20 19 18 18 16 16 14 12 11 9 8 8 8 10 10 16 14 13 12 14 14 11 9 8
3 2 3 4 4 6 5 5 5 3 8 3 3 1 2 1 1 10 2 18 26 30 26 24 21 19 19 18 18 17 15 14 13 11 10 10 10 10 11 12 13 14 13 11 10 9 9 7 8
5 4 4 3 8 6 7 2 3 6 4 4 3 6 3 1 2 8 8 23 29 27 24 23 20 20 19 19 18 17 16 15 14 12 12 11 9 11 12 12 12 12 12 10 8 7 6 5 7
4 2 2 2 6 4 4 4 1 4 4 3 4 5 4 2 3 9 18 24 29 26 24 23 22 20 19 18 18 18 16 15 14 13 13 11 10 10 11 12 13 11 9 8 7 5 5 6 8
3 3 2 7 7 1 4 5 1 2 2 6 2 1 4 2 7 15 22 25 26 27 26 24 21 20 19 19 18 18 17 17 14 16 13 11 11 10 11 11 10 9 8 7 7 7 7 8 8
6 4 5 4 10 6 4 4 4 3 2 4 2 4 4 2 9 19 23 24 24 26 27 25 22 20 19 18 17 16 16 17 18 17 14 12 11 10 11 11 11 10 9 9 8 7 8 7 7
4 4 6 5 4 5 4 5 3 4 6 1 6 5 6 3 18 21 20 21 22 24 25 25 22 20 19 19 16 15 16 16 19 17 15 13 12 11 11 11 11 10 9 8 8 8 9 8 7
3 3 5 6 7 4 0 2 2 2 3 3 3 1 5 12 23 22 19 17 19 23 26 25 23 21 21 19 16 15 15 18 19 18 16 15 13 12 11 10 10 9 7 7 8 8 8 7 6
4 4 9 5 5 4 2 2 2 4 6 3 2 7 9 19 21 20 20 17 19 20 22 25 24 23 22 20 18 16 16 19 20 19 18 17 16 14 11 9 9 8 7 7 7 7 7 7 6
4 5 4 3 2 1 3 2 1 1 3 3 2 5 6 3 7 14 16 18 20 19 22 22 25 25 24 23 21 20 19 21 22 21 20 19 18 16 14 12 11 9 9 9 9 9 8 7 6
3 5 4 3 3 1 1 1 3 4 6 4 1 1 3 3 3 6 11 16 19 22 24 22 24 28 27 26 24 23 22 23 23 25 22 22 22 19 17 16 15 13 12 11 11 10 9 9 7
5 2 5 5 4 2 2 4 5 7 7 5 6 5 4 3 5 5 11 13 13 18 21 25 27 27 30 29 27 26 25 25 25 26 25 24 24 22 20 19 19 18 15 13 12 11 10 9 9
6 8 6 4 4 3 4 5 5 5 2 5 5 9 7 6 7 7 6 13 19 20 22 24 28 28 29 32 31 30 28 27 27 28 28 28 27 25 23 20 19 22 19 16 14 13 12 11 10
4 4 3 6 4 5 5 8 8 8 8 11 9 8 9 9 13 15 17 13 19 26 30 29 30 29 30 32 33 32 32 30 31 30 29 30 30 29 25 23 20 22 20 17 17 16 14 13 12
6 3 1 3 8 5 7 8 3 6 8 12 10 8 9 11 14 25 24 22 23 20 26 30 31 31 34 34 35 35 34 33 34 33 31 32 31 30 29 27 24 22 20 20 20 19 17 16 13
2 4 4 5 7 4 8 2 3 4 2 9 10 10 6 8 10 23 25 22 24 23 24 24 30 33 35 37 37 35 34 35 35 34 34 34 32 33 33 32 28 25 23 23 23 22 21 20 16
8 5 3 6 1 2 4 7 8 9 6 8 9 10 10 8 13 21 20 19 23 21 24 25 25 29 33 35 34 32 31 36 36 37 35 36 34 34 34 34 31 27 27 25 25 23 23 20 15
6 4 3 2 1 2 5 4 12 11 7 8 9 11 14 13 9 20 28 27 23 21 20 22 26 29 33 29 27 27 29 31 34 40 38 37 34 33 33 34 34 30 32 30 28 27 25 19 17
5 5 2 2 1 1 5 9 16 14 7 10 12 13 10 8 9 11 20 23 24 26 26 23 23 26 33 34 34 29 32 27 37 39 38 37 38 35 36 36 34 35 34 33 33 33 27 18 20
3 3 2 3 3 2 7 7 5 3 3 5 6 5 6 8 13 12 9 18 20 21 24 25 23 19 25 35 34 27 22 27 21 29 35 39 39 39 38 39 38 37 37 38 38 37 31 22 21
2 5 2 3 2 2 4 5 6 4 7 6 8 9 8 8 7 7 8 13 16 20 20 21 25 23 20 26 31 31 27 24 26 33 41 41 40 40 41 41 42 40 39 39 41 39 34 25 20
3 5 5 3 4 2 2 2 7 2 4 3 7 6 6 6 6 8 7 11 16 15 14 16 16 20 19 19 29 32 28 27 30 29 33 35 40 41 41 41 42 42 41 40 41 40 37 31 26
9 5 6 4 3 1 2 3 5 1 2 4 4 6 7 8 9 10 14 19 25 20 17 10 11 14 15 19 23 30 35 32 29 29 30 33 37 39 40 40 43 42 41 41 41 40 37 32 25
4 5 2 3 3 4 1 0 8 3 4 2 2 7 8 7 9 9 12 14 25 25 19 15 12 11 9 12 17 21 29 30 35 35 34 32 34 37 42 41 41 41 41 40 39 37 34 30 25
2 5 4 4 1 3 3 5 4 3 3 3 2 5 6 8 7 8 9 14 21 25 22 17 14 15 12 11 11 12 17 25 31 33 34 36 37 37 39 42 41 43 42 37 32 31 29 26 23
3 2 3 6 3 3 3 6 6 4 2 3 8 9 10 8 8 8 9 15 22 25 26 18 18 19 19 17 15 16 17 19 25 29 31 34 34 33 32 37 40 37 36 33 29 28 27 24 20
3 7 3 3 2 2 4 4 4 0 1 5 9 10 9 7 8 8 6 14 21 22 22 17 15 18 21 23 21 20 19 18 22 26 28 29 28 27 26 28 29 30 28 26 28 27 25 23 21
2 1 5 4 3 3 2 4 5 4 2 4 9 9 9 9 8 7 6 16 19 20 22 15 18 20 22 21 19 18 17 15 16 19 21 21 20 20 21 23 24 25 26 26 27 26 24 22 19
2 5 4 4 3 1 1 6 3 6 3 2 8 8 6 6 7 8 9 15 20 21 20 14 15 16 16 16 16 12 9 7 8 9 12 13 15 16 18 21 23 23 24 24 25 25 22 20 17

GFSSGP_925_spd_057.txt.gz
Wind_Speed
5 1 1 3 1 2 2 4 1 2 2 2 2 3 3 3 4 2 1 13 21 30 26 21 18 18 19 18 18 18 16 13 12 11 11 9 9 8 7 8 9 9 9 8 15 16 15 12 11
6 4 3 2 3 3 3 3 4 5 3 9 3 3 3 2 0 2 8 9 24 29 25 21 18 19 18 19 19 18 16 12 9 7 9 9 8 8 8 9 12 11 10 16 17 14 12 12 11
8 5 3 3 3 6 4 5 5 2 6 2 2 1 1 3 1 7 2 17 25 27 26 22 21 20 19 18 17 16 15 13 9 9 7 8 8 9 12 14 16 14 14 13 13 11 11 11 11
7 3 3 3 7 5 5 0 3 3 1 2 3 3 2 2 3 5 10 20 22 24 24 22 20 19 17 17 16 16 14 14 12 9 9 8 8 9 11 14 14 11 11 11 10 10 9 8 10
3 2 3 3 7 3 5 3 2 4 3 4 3 2 3 2 1 7 16 21 24 24 22 22 18 19 17 17 17 15 14 14 12 11 10 10 9 11 11 15 14 12 10 8 8 7 8 9 10
2 2 3 11 7 3 5 4 1 2 2 6 2 2 2 1 4 11 16 19 20 22 21 21 19 18 17 17 16 16 15 14 12 12 12 10 10 11 11 13 13 11 9 8 8 8 9 9 9
5 4 7 4 9 5 5 4 4 5 4 4 1 2 1 1 5 13 18 19 19 20 21 22 21 19 18 17 18 17 16 14 13 13 12 10 11 11 11 10 10 9 9 8 8 9 9 9 9
4 2 7 5 7 6 4 6 4 6 3 2 3 3 1 2 9 13 17 18 17 21 22 22 22 20 19 19 18 17 15 17 17 16 12 10 10 10 11 12 11 10 9 9 9 9 9 8 8
3 2 5 9 8 4 4 5 1 1 1 2 1 2 6 3 14 14 14 13 13 17 22 22 21 20 19 18 17 16 15 15 15 18 14 12 11 11 10 10 12 10 9 8 9 9 9 8 7
3 4 8 4 5 4 5 3 2 2 3 1 1 5 6 9 13 14 13 14 15 16 20 22 22 20 19 19 18 17 16 17 20 20 17 15 13 13 11 11 10 9 8 8 9 8 8 7 7
4 5 4 3 4 4 6 3 2 3 2 4 3 2 4 5 8 10 11 11 14 15 19 21 23 22 21 20 19 18 17 18 22 21 19 18 16 15 13 11 11 10 10 9 10 10 9 8 8
3 5 4 3 4 4 4 3 1 3 3 4 4 1 2 7 5 5 8 11 12 16 17 20 19 24 24 23 22 20 19 20 22 22 21 21 20 19 16 15 13 12 12 11 11 11 10 9 8
3 2 4 3 3 2 4 3 4 7 5 4 4 3 4 2 5 9 13 12 12 16 19 22 24 22 26 25 25 23 23 22 22 23 24 23 21 21 19 17 16 15 13 13 13 12 12 11 11
6 6 2 2 1 1 3 4 6 5 3 5 2 8 5 6 7 5 7 14 19 18 18 19 25 26 24 28 28 26 25 24 24 24 26 25 24 24 22 20 19 18 18 15 14 13 13 11 10
5 3 3 8 4 3 3 5 6 10 5 8 9 8 8 10 10 14 15 13 15 21 21 22 21 23 28 28 28 29 30 28 28 28 27 28 28 27 26 23 21 19 21 18 16 15 15 14 13
5 1 3 2 8 5 6 6 3 3 4 10 9 8 9 13 13 18 22 21 21 19 20 23 26 25 29 31 29 30 32 31 31 30 29 30 31 29 28 26 24 20 21 22 19 19 18 17 15
4 4 7 3 7 3 11 2 4 2 2 7 9 8 8 11 14 21 23 22 22 22 24 24 24 26 29 30 30 28 29 32 33 32 32 32 32 31 30 30 27 24 24 24 23 22 21 20 18
7 4 3 9 3 2 3 6 8 8 3 8 10 11 9 10 15 20 22 20 19 19 22 23 26 26 29 30 26 27 28 32 31 35 34 33 33 33 31 32 31 29 27 27 26 25 24 21 19
9 5 4 2 2 2 4 4 9 11 7 10 12 13 13 9 9 16 21 22 22 23 23 23 25 30 27 25 26 25 28 33 32 35 36 34 35 35 33 35 34 34 34 32 29 27 25 21 20
6 6 4 1 2 2 2 8 14 11 6 5 8 8 7 7 9 12 14 15 16 20 21 24 24 25 32 26 27 25 27 26 33 27 31 36 36 37 35 36 37 37 35 32 33 32 26 22 24
2 5 3 3 1 2 5 5 2 1 4 7 8 4 5 5 8 11 12 10 10 13 16 20 24 26 26 31 29 24 23 23 21 28 31 34 40 39 38 38 38 39 38 38 38 37 35 24 27
4 2 4 4 2 1 4 3 3 3 7 7 7 8 7 8 8 7 11 14 15 14 9 11 17 22 24 24 25 25 24 24 27 28 35 31 35 39 41 40 41 41 40 40 41 40 40 33 26
1 3 4 3 4 2 2 2 3 3 2 4 5 5 6 7 7 8 9 12 18 18 18 9 7 11 17 21 25 28 26 26 28 29 29 32 36 37 41 42 43 43 43 43 43 42 41 41 30
10 5 6 4 2 0 1 2 3 2 3 2 1 4 6 8 8 7 10 12 19 21 20 16 14 8 6 12 17 26 23 25 23 30 30 32 35 36 38 40 43 43 44 44 45 44 42 41 36
1 3 2 2 1 3 2 2 5 3 1 4 2 5 6 6 8 9 11 15 22 25 22 20 15 14 11 8 7 15 24 26 27 28 30 23 27 31 36 38 41 44 45 42 40 40 40 41 38
2 2 4 4 3 1 1 5 2 3 1 4 2 5 5 5 6 7 7 10 17 21 23 21 17 15 13 11 10 9 11 16 23 28 28 27 29 31 29 32 35 38 40 39 36 33 33 35 37
3 2 2 6 2 1 2 5 5 2 4 4 6 7 7 6 6 7 10 13 16 18 19 17 15 15 14 15 14 11 11 14 17 20 22 26 29 30 26 26 27 31 32 33 32 30 34 34 31
2 6 2 2 2 3 3 4 3 3 5 2 7 7 8 7 9 9 9 13 15 18 18 14 9 13 16 16 15 15 12 11 13 17 20 22 24 23 22 20 22 24 26 26 25 26 27 27 24
2 1 4 3 1 3 1 3 6 8 6 1 5 5 5 8 9 10 12 14 16 15 14 13 13 14 16 17 17 16 15 13 11 11 13 15 16 15 15 16 17 20 22 23 24 24 24 24 23
1 4 4 3 3 2 1 4 2 5 3 4 7 6 6 5 7 8 11 13 15 15 16 17 17 16 15 15 14 13 14 12 10 8 7 5 7 9 10 12 15 17 20 21 23 24 24 26 25

GFSSGP_925_spd_060.txt.gz
Wind_Speed
6 4 2 3 5 5 7 4 3 2 4 2 3 5 3 8 3 2 1 7 14 20 20 20 18 17 19 18 18 18 15 13 12 12 9 9 7 5 4 5 6 7 7 12 15 15 11 12 12
7 5 3 2 6 9 8 7 4 4 3 7 4 6 7 1 2 4 7 7 19 20 21 20 18 18 20 19 20 18 16 12 10 9 8 8 7 7 7 8 8 8 7 15 16 13 11 10 10
8 7 5 4 8 12 6 7 7 1 3 3 1 2 3 2 4 3 5 14 21 19 19 18 18 20 20 20 19 19 16 13 9 6 7 8 8 8 10 12 12 11 17 17 13 10 10 10 10
9 6 2 9 15 15 12 3 5 4 1 1 5 3 3 3 2 2 11 18 20 18 17 18 19 19 20 19 18 16 13 12 10 7 5 8 8 9 12 14 12 12 12 12 10 9 9 9 10
7 5 10 14 20 13 11 3 6 2 4 5 7 2 1 3 3 7 13 17 18 16 15 17 19 18 16 16 15 14 12 12 10 7 6 6 8 9 10 12 9 8 9 9 8 7 7 9 9
7 7 11 17 20 17 12 7 8 8 4 4 3 3 2 4 5 7 12 15 17 16 15 16 15 16 14 14 14 13 12 11 10 8 8 7 8 10 11 12 11 8 7 7 7 7 8 9 8
13 11 19 20 18 16 15 11 14 10 9 8 2 4 3 5 5 7 11 13 16 15 15 15 15 16 13 12 12 12 13 12 11 9 9 8 9 10 10 12 11 9 7 7 7 8 8 8 8
8 9 20 17 17 20 14 9 5 9 9 2 2 4 5 5 6 7 9 12 13 15 16 15 15 15 14 13 15 14 14 12 12 9 11 8 8 9 9 11 10 10 9 8 8 8 8 8 8
3 9 16 22 20 16 10 12 7 2 8 4 2 2 4 1 8 9 10 10 11 13 15 15 15 14 14 12 13 15 15 15 14 13 13 9 9 10 10 11 11 11 10 9 8 8 8 8 7
11 14 19 9 9 11 12 11 11 8 9 8 6 2 4 7 9 10 9 9 11 12 14 14 15 14 13 12 11 12 11 12 13 16 16 10 10 10 11 11 12 11 10 10 10 10 9 8 5
13 15 7 7 7 8 11 9 6 8 9 6 6 2 3 6 8 9 10 9 10 11 13 15 15 14 13 13 12 12 12 12 14 16 15 14 12 12 11 10 11 9 10 9 10 9 8 8 7
9 13 7 6 6 5 10 7 6 8 2 5 7 4 2 5 8 10 11 11 11 12 13 14 15 15 15 14 13 12 12 13 14 17 17 16 15 14 14 13 12 11 11 11 11 10 10 9 8
13 5 8 6 6 5 5 6 7 8 6 3 4 3 3 2 6 12 12 11 11 13 14 16 17 17 16 17 14 14 14 15 15 15 17 17 17 17 16 15 14 13 12 12 12 11 11 10 9
12 6 8 10 7 4 7 7 4 3 4 10 10 11 9 8 8 7 11 15 16 15 16 16 18 18 16 18 17 16 16 16 16 16 17 20 18 17 17 16 15 15 14 13 13 12 11 11 9
4 12 13 8 9 10 6 13 13 15 13 11 11 10 9 10 10 12 12 12 12 13 15 17 16 18 20 20 21 20 17 17 17 18 18 20 20 18 17 17 16 16 16 16 14 13 12 11 10
13 6 9 11 16 6 7 14 3 4 10 13 13 13 12 15 16 18 17 16 14 13 14 15 18 19 21 22 23 27 20 19 19 18 18 21 22 21 20 19 18 17 17 17 17 15 14 13 12
14 10 17 5 10 13 16 8 6 6 5 8 8 9 9 12 13 16 17 17 17 18 18 19 19 22 22 22 23 25 30 21 20 19 21 22 23 24 22 21 19 18 18 18 19 17 16 15 13
17 16 14 14 7 10 10 16 6 8 7 11 11 11 10 11 13 13 13 14 15 15 17 18 18 20 22 21 22 24 26 29 22 22 23 22 23 25 25 23 22 20 20 20 20 19 17 17 15
8 16 9 7 6 7 12 11 12 12 13 14 15 14 12 10 11 14 14 14 14 15 16 17 17 19 21 22 21 24 25 30 26 28 24 23 24 25 26 26 24 24 25 25 23 22 19 17 15
12 13 10 5 5 6 5 8 12 14 13 10 10 10 8 5 3 5 7 7 9 12 15 17 19 20 21 24 24 25 22 23 24 23 25 29 26 25 28 29 28 28 27 27 27 25 20 19 20
9 12 10 4 6 1 4 7 6 3 4 5 6 5 5 5 5 7 8 8 6 5 9 13 15 17 19 20 22 22 22 19 18 23 25 28 34 31 31 29 29 27 29 29 31 29 26 22 20
11 4 8 8 7 3 2 3 4 7 9 9 10 8 7 7 7 7 8 10 10 9 8 5 8 12 15 16 19 23 24 24 25 25 24 24 25 32 32 31 29 29 31 29 34 34 33 25 21
4 7 6 5 3 1 4 4 6 9 10 9 8 7 7 7 6 7 8 8 9 10 9 9 6 4 7 12 17 20 23 23 23 23 25 25 24 26 35 32 30 29 30 31 31 33 33 34 26
11 10 7 4 1 4 4 4 8 9 11 9 5 6 5 6 6 8 8 8 10 11 11 9 8 7 5 3 11 18 20 21 20 19 21 22 22 23 28 31 32 32 29 29 31 30 32 33 30
3 9 4 3 3 2 1 4 3 8 6 9 5 5 5 5 6 8 9 10 13 14 13 10 9 8 7 6 3 6 13 16 19 20 19 21 20 20 27 27 28 30 33 31 28 26 28 32 33
7 4 2 3 4 3 3 5 3 7 8 9 2 3 3 5 6 7 8 10 12 13 13 13 11 8 8 8 7 5 6 7 11 15 18 19 20 21 19 21 26 29 28 28 29 26 26 28 31
3 4 2 4 2 2 4 3 4 4 9 7 2 3 4 5 8 8 9 10 11 13 13 13 12 9 8 8 7 7 6 6 9 11 13 15 16 18 18 17 19 24 28 28 28 27 27 27 24
2 8 3 0 4 4 4 3 4 11 14 6 2 4 3 4 5 7 8 10 11 11 11 9 10 10 9 9 8 8 7 7 8 9 10 12 13 13 13 14 19 20 23 26 26 25 24 21 22
4 3 2 1 2 2 2 3 8 15 13 5 4 3 2 4 6 7 7 8 9 10 11 10 11 11 11 11 11 9 9 9 9 8 9 9 9 9 10 12 15 16 18 20 22 23 22 21 19
1 2 3 2 3 1 3 3 5 9 9 2 5 1 2 4 5 5 7 8 9 10 11 11 11 11 12 12 11 11 11 11 10 9 8 9 7 5 6 8 9 10 12 15 18 18 16 18 20

GFSSGP_925_spd_063.txt.gz
Wind_Speed
12 9 7 7 6 6 11 10 3 5 5 3 3 5 3 9 4 1 4 4 16 20 20 20 18 16 15 15 14 14 13 11 10 9 9 7 5 4 4 5 5 6 6 12 13 11 11 10 10
10 9 8 5 7 11 10 10 7 6 4 3 5 7 6 3 7 6 7 7 17 19 19 18 17 15 16 15 14 14 12 9 9 9 8 6 5 5 6 6 6 7 7 14 13 11 11 10 10
9 11 8 5 11 13 10 7 7 5 2 1 3 5 2 4 6 4 4 13 18 17 17 17 16 16 17 16 16 14 12 9 7 5 5 6 7 4 8 8 8 10 15 15 11 9 9 9 10
11 7 8 11 15 17 16 6 6 7 3 2 1 5 5 7 3 5 11 17 17 17 15 16 15 16 17 17 16 14 11 9 8 7 7 8 8 11 13 12 12 13 13 11 9 8 8 8 9
18 8 10 14 20 16 13 4 5 7 3 3 3 6 4 7 8 11 14 17 16 15 16 15 15 17 16 16 15 13 11 11 9 5 6 7 9 10 12 10 8 8 8 8 7 6 6 7 7
7 10 12 18 20 20 12 9 9 7 4 2 5 2 8 9 10 10 13 14 14 15 14 16 16 16 15 14 14 12 11 11 9 5 4 6 8 9 10 10 8 6 6 6 5 5 7 7 6
17 13 19 20 18 19 18 13 12 11 10 6 1 8 9 12 9 8 11 12 13 13 14 15 14 13 12 11 12 12 11 12 8 6 4 4 7 8 9 9 7 5 5 5 5 5 6 6 6
10 13 22 21 18 20 15 13 13 14 12 1 2 5 7 8 8 8 8 12 12 12 13 14 14 13 12 12 10 11 12 12 10 7 6 5 5 7 9 11 9 7 6 6 6 6 6 6 6
8 14 18 24 24 19 11 17 14 7 11 6 6 4 5 8 8 9 7 10 12 11 12 12 14 14 13 13 13 13 12 12 11 9 10 5 6 7 7 8 9 9 8 8 8 7 8 7 7
12 15 23 19 19 10 13 10 15 8 13 13 9 5 5 7 8 9 9 9 8 11 13 12 12 13 12 11 11 12 11 11 11 11 12 8 8 8 9 9 10 10 9 9 8 8 7 7 5
13 17 19 11 4 2 8 14 14 13 13 13 13 10 6 6 7 8 9 10 11 12 12 12 13 12 12 12 11 11 11 11 12 14 14 11 10 10 10 8 11 9 10 9 10 9 8 8 7
11 21 12 7 3 3 10 12 9 13 3 2 7 4 3 7 7 9 11 10 13 12 13 12 12 13 13 11 12 11 11 11 12 14 15 13 12 11 12 11 11 12 12 12 12 10 10 9 9
16 10 12 5 7 9 14 16 12 11 5 4 6 3 3 2 5 10 11 11 10 12 13 13 13 12 13 13 12 12 12 12 13 13 16 15 14 13 14 13 13 13 12 13 13 12 11 11 10
13 13 11 10 10 7 9 13 8 11 10 9 9 8 7 6 5 6 12 13 13 12 12 12 13 14 16 15 15 13 12 12 14 15 16 18 16 15 15 15 15 16 14 13 13 13 12 12 11
2 17 7 14 13 7 8 13 18 13 10 12 10 11 10 9 10 10 10 11 13 14 14 14 14 16 17 17 17 14 14 13 14 15 16 18 20 18 18 18 18 17 20 14 14 14 13 13 12
13 11 15 16 12 12 12 14 17 18 16 17 15 13 13 14 14 16 15 13 11 10 10 12 14 16 17 17 18 20 18 16 15 15 16 19 20 21 21 20 20 18 17 20 17 16 15 14 14
14 13 17 13 22 10 16 9 12 8 9 12 12 12 12 12 14 17 18 16 16 17 16 16 15 17 18 18 19 20 20 20 16 16 17 19 20 22 23 22 21 20 20 19 24 19 18 17 16
19 21 19 18 11 20 17 15 6 9 9 11 11 11 11 11 12 13 13 13 14 16 18 18 17 18 19 20 20 21 23 22 25 19 21 20 21 23 25 23 22 21 22 21 23 23 20 18 17
16 17 12 14 9 11 16 15 18 12 12 12 12 12 13 13 11 7 11 13 14 15 16 17 17 19 19 20 21 17 23 26 23 28 22 22 23 23 25 26 24 24 25 25 24 25 22 19 18
9 16 13 3 9 9 14 15 12 12 15 14 13 11 12 10 8 6 8 8 10 13 14 16 19 20 20 21 21 21 19 23 27 22 29 28 23 26 26 29 28 27 26 25 25 27 23 21 21
12 14 16 6 7 10 4 12 14 10 3 4 6 6 3 3 3 1 2 3 2 2 6 11 14 16 18 19 19 20 20 21 18 21 23 25 28 28 26 27 27 25 28 27 29 28 29 24 24
12 7 9 8 11 6 9 3 10 11 7 8 8 7 6 5 5 4 4 6 7 7 6 4 6 10 14 16 17 18 19 19 20 21 19 21 22 24 28 28 26 27 26 28 29 30 32 26 24
3 9 10 8 8 1 7 5 9 11 11 10 9 7 6 5 4 4 5 5 7 8 8 7 6 3 6 10 15 17 20 20 19 19 21 22 21 21 24 25 29 27 30 29 30 28 31 33 25
10 12 8 4 2 4 10 8 10 11 12 12 8 8 5 4 4 5 4 4 6 7 8 8 7 5 5 4 7 13 17 18 17 17 17 17 17 18 20 24 26 29 31 32 33 32 30 30 30
4 13 4 4 4 4 3 5 4 9 14 12 10 7 4 3 3 4 4 5 6 7 8 8 8 7 6 6 5 5 9 14 17 18 17 18 17 18 20 24 26 28 30 30 31 31 32 33 31
7 3 3 5 7 7 5 7 2 10 9 11 5 3 2 2 3 4 5 6 7 8 9 9 8 7 7 7 7 6 6 7 9 12 16 17 17 18 17 17 19 22 26 30 31 31 30 29 30
4 4 2 2 2 2 7 4 5 8 12 10 4 3 2 0 2 4 6 7 8 9 10 10 9 8 7 8 7 6 7 7 8 9 10 11 13 14 14 15 13 18 20 23 27 30 31 29 26
1 6 3 2 3 5 5 5 4 16 15 10 5 3 2 1 3 5 5 6 7 7 8 8 8 8 7 8 7 7 8 8 8 8 8 9 11 12 13 12 12 17 17 19 22 25 25 24 21
3 2 2 3 3 3 4 4 8 15 16 10 4 2 2 2 3 4 4 5 5 6 7 8 9 9 10 9 9 8 8 9 9 10 10 11 12 12 12 12 11 13 16 15 17 18 16 19 20
6 6 8 3 5 1 4 4 10 16 13 7 3 4 2 1 2 2 2 3 4 5 7 8 10 10 11 11 10 10 10 10 10 11 12 11 11 10 11 9 8 8 8 9 12 14 14 16 14

GFSSGP_925_spd_066.txt.gz
Wind_Speed
11 12 14 14 2 3 7 9 3 3 2 4 8 4 5 7 6 4 10 8 26 23 24 24 20 18 17 17 15 14 14 11 10 8 9 7 6 6 7 8 8 8 12 14 13 14 13 13 12
9 13 12 4 4 6 6 11 6 4 9 8 6 5 4 8 10 8 10 14 24 26 23 22 19 18 18 17 15 15 14 10 8 6 5 6 6 7 10 8 9 9 14 15 13 13 12 12 12
11 11 3 4 6 9 7 10 8 9 6 4 4 3 4 5 9 6 18 19 25 23 23 20 19 18 18 17 16 14 12 9 6 4 3 7 6 8 9 9 9 11 17 12 12 12 12 12 12
6 4 3 6 9 14 15 5 8 10 5 4 4 4 6 15 6 12 17 21 24 22 24 20 18 19 17 17 17 15 10 8 8 5 7 9 9 14 13 13 17 18 14 12 11 10 11 11 11
8 4 7 9 14 12 13 8 3 5 6 7 1 3 6 8 15 15 18 20 23 24 20 19 17 18 17 17 16 14 11 9 9 7 9 10 11 13 12 12 12 12 10 9 8 9 9 9 9
3 3 6 13 13 14 10 9 6 3 6 3 3 5 5 13 15 15 17 17 21 23 20 19 16 17 16 15 15 12 11 10 8 6 6 10 10 11 11 11 9 8 8 7 7 7 8 8 8
3 3 13 13 17 14 15 5 8 6 4 6 3 4 8 12 10 13 14 16 16 21 19 16 16 16 15 13 12 12 11 12 7 6 4 8 11 10 10 9 8 7 7 6 6 7 7 8 7
7 2 7 15 14 11 10 8 10 6 9 6 4 6 4 10 7 8 14 15 15 16 20 17 14 14 12 10 10 12 13 12 10 7 6 5 8 10 10 9 7 5 6 6 6 7 7 7 7
10 8 12 18 19 11 7 6 5 1 4 2 4 9 11 15 10 7 10 14 17 14 18 21 18 15 13 12 12 12 11 12 12 11 9 5 5 8 6 8 7 7 6 7 7 7 7 7 6
9 9 16 20 14 7 11 4 9 5 4 4 6 11 16 14 12 7 7 6 13 15 13 20 23 20 19 19 17 15 14 13 12 11 12 7 9 4 7 8 8 8 8 8 8 8 7 7 5
7 12 16 14 4 7 6 2 1 6 5 8 8 12 10 15 10 12 9 6 3 9 15 13 17 18 18 20 14 14 15 11 13 14 11 10 13 13 11 10 10 11 10 9 9 9 8 9 10
8 17 15 9 3 2 2 4 5 6 5 5 11 9 8 7 8 10 12 17 13 10 9 11 13 12 14 13 13 12 16 13 17 18 18 12 15 14 12 11 10 11 10 10 9 8 9 8 7
17 13 15 4 5 4 5 4 6 4 6 7 9 6 2 2 11 10 9 11 18 16 14 8 14 12 14 14 14 14 15 15 14 16 20 12 17 16 13 16 13 10 16 13 18 14 12 13 12
10 15 7 6 4 1 3 5 6 7 2 6 2 3 4 4 2 11 14 11 12 11 18 15 14 15 15 16 14 14 12 13 15 15 16 17 16 17 17 18 19 16 16 12 16 14 15 16 15
2 10 10 7 8 3 1 8 17 8 5 6 8 7 6 6 5 4 5 15 15 18 18 19 19 18 18 16 15 14 14 14 15 16 16 19 19 18 19 19 18 21 19 15 16 16 17 16 17
4 4 7 8 11 7 8 7 12 9 8 8 9 6 7 8 9 11 9 8 6 7 4 20 22 19 19 20 18 20 15 12 15 14 17 19 21 23 21 20 21 16 21 22 19 17 18 18 18
8 6 13 10 9 5 10 3 15 14 12 9 9 9 8 7 6 5 9 10 11 8 8 9 9 16 20 19 21 19 20 18 16 14 19 20 22 24 25 23 23 23 19 23 25 23 19 21 18
15 14 13 15 17 14 12 10 8 5 3 7 8 7 5 5 5 8 9 5 6 6 14 17 17 18 16 16 22 24 23 21 23 22 17 21 23 25 26 27 25 25 25 23 25 27 23 22 22
12 13 13 14 10 18 17 12 12 6 6 7 8 7 6 6 8 4 6 6 8 10 11 12 12 12 15 20 17 22 25 25 24 27 28 21 24 24 27 29 29 27 29 30 28 28 29 23 22
7 12 16 3 12 9 11 14 13 9 10 9 8 8 7 4 5 8 8 5 7 10 10 11 14 15 17 18 22 18 22 25 28 26 29 29 23 22 27 30 31 31 31 29 29 31 29 25 28
14 12 13 6 5 3 3 8 11 7 3 2 3 5 5 5 5 7 8 7 6 9 7 9 10 12 13 9 12 17 14 19 16 22 24 26 27 31 21 23 28 30 26 29 31 31 34 27 29
11 9 8 10 6 3 8 3 14 15 5 5 6 6 6 5 5 5 8 7 8 6 5 6 7 8 14 16 14 13 14 12 20 20 19 19 18 21 21 27 24 27 28 29 29 32 33 29 23
4 7 8 8 7 1 8 1 2 12 7 6 8 7 6 5 7 7 6 6 7 6 7 7 7 5 4 6 9 14 17 18 20 16 17 17 18 21 23 23 21 32 24 30 31 33 32 35 27
6 8 9 2 1 2 7 6 4 7 12 10 8 8 7 6 6 6 6 4 7 7 8 8 8 7 6 6 6 7 11 16 17 15 14 15 14 13 15 20 22 22 25 32 32 31 32 33 30
6 9 3 2 2 4 2 6 5 12 13 9 8 9 7 7 6 5 6 6 7 8 10 10 10 9 8 8 8 7 7 9 11 13 13 13 12 15 17 19 22 23 24 26 28 31 33 31 31
3 2 3 5 5 4 2 5 4 8 12 9 8 8 6 6 6 5 5 6 9 10 12 12 11 10 9 9 9 10 9 8 7 8 9 9 10 12 11 11 11 15 16 19 22 27 31 33 33
3 3 2 3 3 4 5 3 3 2 9 8 8 7 7 6 5 5 6 9 9 9 10 10 10 9 10 9 9 9 9 9 8 8 7 7 7 8 8 8 10 11 13 15 18 22 26 29 31
1 3 2 1 2 3 4 6 4 11 12 9 8 7 7 5 6 5 6 8 7 7 7 8 9 9 9 9 9 8 9 10 10 9 11 9 10 10 11 12 11 12 13 12 16 18 20 22 22
3 1 2 2 1 1 2 3 4 15 12 9 8 7 7 6 5 4 6 6 5 6 7 9 10 10 11 10 11 10 10 9 8 8 8 8 7 8 9 9 9 10 11 12 12 14 16 17 15
3 3 7 3 3 2 3 2 7 10 9 7 7 6 6 5 4 5 5 3 6 6 7 8 9 10 10 10 10 10 9 8 7 9 9 9 9 7 8 7 7 8 9 8 7 6 6 7 8

GFSSGP_925_spd_069.txt.gz
Wind_Speed
8 9 11 5 3 4 3 6 3 3 3 2 2 6 4 1 2 4 6 17 26 31 26 22 21 21 20 19 17 16 14 14 11 12 11 7 8 9 9 11 10 14 16 15 15 14 13 13 12
6 7 3 0 2 2 5 5 5 3 5 3 6 4 6 2 3 7 14 24 29 32 28 25 22 22 21 19 18 18 16 13 10 8 6 8 9 11 11 12 11 15 16 15 15 14 13 12 13
2 3 2 3 3 5 5 3 5 4 6 4 2 3 4 3 4 11 25 27 26 31 28 24 22 21 21 19 19 17 14 11 10 8 5 9 11 10 11 13 13 17 14 13 13 13 12 13 15
2 5 3 1 5 12 6 6 2 5 4 6 2 6 5 4 5 15 30 29 26 29 25 23 22 21 20 19 18 18 13 11 9 8 9 10 12 13 13 15 16 15 13 13 11 11 11 13 16
5 3 3 3 8 9 4 6 4 5 6 3 2 3 4 7 17 24 29 29 31 28 23 22 21 21 19 19 18 16 12 12 8 10 13 14 15 14 15 18 17 12 11 10 9 9 10 11 13
3 4 4 8 8 11 3 7 7 4 5 4 6 4 3 14 17 19 28 30 31 30 25 21 20 20 20 20 18 16 12 11 9 10 12 13 15 14 14 14 12 10 9 8 9 9 10 10 11
6 7 9 7 14 13 6 5 4 6 2 1 4 5 1 6 11 15 21 29 29 26 24 23 21 20 21 18 17 14 12 12 9 6 9 13 12 12 11 12 10 9 9 9 9 10 10 10 11
3 2 7 5 8 19 10 7 6 7 4 2 5 5 5 4 6 14 25 29 26 23 22 24 23 21 19 17 15 14 12 13 10 7 6 11 13 12 11 11 10 9 9 9 9 10 10 10 10
5 3 5 6 8 11 10 12 2 3 6 5 3 6 9 10 6 13 23 29 28 25 22 24 23 21 17 15 14 13 13 14 10 10 9 8 10 12 12 12 10 9 9 10 10 11 11 11 10
5 8 19 23 20 10 15 2 12 3 4 6 6 11 17 11 6 7 13 14 23 27 25 22 22 20 17 17 15 15 14 14 14 15 12 9 8 10 10 12 11 10 10 11 11 12 11 11 10
7 8 13 10 21 8 7 9 6 5 2 4 9 11 10 13 6 5 6 11 15 19 28 24 19 22 22 21 20 18 17 16 16 16 13 12 12 11 10 11 13 12 11 12 11 12 12 13 12
7 10 5 7 5 10 8 7 1 3 3 8 7 13 9 11 8 8 7 9 11 10 13 25 21 21 24 21 20 16 17 18 18 17 14 14 15 20 15 13 12 13 13 12 12 11 11 12 11
8 2 13 10 4 3 6 3 2 3 4 11 10 7 9 9 15 18 15 11 13 11 11 13 19 21 21 23 17 14 17 19 14 20 19 15 18 21 18 13 12 11 13 13 12 11 11 14 12
8 12 9 3 5 1 1 3 3 1 4 8 9 2 3 9 16 14 14 16 19 17 18 15 15 17 18 20 17 18 20 18 15 19 22 20 20 22 21 15 15 14 13 13 15 13 14 15 15
4 13 7 3 5 2 3 6 6 2 4 3 1 6 3 2 4 14 15 15 16 20 21 21 22 20 19 18 17 18 17 17 18 17 15 19 20 23 23 18 18 20 17 15 18 18 19 16 22
5 5 4 4 7 3 5 6 10 5 3 7 5 5 6 5 6 6 8 10 11 19 21 23 19 19 27 23 23 21 17 17 17 18 20 20 22 21 21 21 21 19 22 20 21 20 20 20 21
4 4 6 4 8 5 4 4 8 6 8 8 6 7 6 6 6 10 9 7 6 7 10 14 20 19 18 23 27 26 24 20 18 17 22 21 23 23 26 25 24 24 25 26 26 25 24 23 23
8 4 4 7 8 7 7 8 4 4 10 10 7 7 8 8 9 8 4 4 4 3 4 6 10 16 17 20 19 21 23 29 25 23 21 20 22 24 27 29 30 27 28 27 28 31 29 25 25
9 8 5 7 7 7 14 8 9 7 3 8 7 7 6 6 2 10 9 6 3 0 2 3 6 3 10 22 24 25 27 26 26 27 29 26 22 24 29 31 32 32 31 32 31 30 32 31 24
4 3 8 3 7 14 10 14 9 12 7 8 9 8 5 2 5 6 9 9 8 5 4 5 6 8 8 9 10 15 22 26 30 28 27 25 27 27 23 26 34 35 34 32 33 32 31 31 30
4 7 4 5 2 2 3 9 14 13 6 7 5 5 4 6 7 6 12 13 9 7 7 6 8 9 10 8 8 8 6 11 15 23 24 24 23 23 27 30 26 31 35 34 32 34 35 28 28
4 6 10 11 5 4 5 4 9 15 9 7 7 6 7 7 6 6 9 10 9 7 5 6 7 5 7 10 11 9 7 7 8 12 19 22 19 18 16 15 19 28 29 32 32 31 33 33 23
6 6 7 3 6 3 2 1 7 8 9 8 8 7 7 6 8 7 8 9 8 6 6 6 8 7 7 7 5 7 8 9 12 12 10 12 19 18 18 19 19 21 23 26 24 26 29 33 30
8 3 8 4 3 1 6 6 5 6 19 6 4 8 8 8 7 7 9 10 8 6 6 8 8 9 8 7 9 9 7 7 8 9 11 8 7 8 9 11 16 19 19 18 20 23 22 25 29
4 6 2 1 0 5 3 7 11 5 4 8 11 9 8 8 8 7 6 8 8 9 8 8 9 10 8 7 8 8 7 7 9 10 8 6 6 8 6 6 11 15 16 18 17 21 24 26 27
9 3 5 6 4 4 2 7 6 7 9 12 11 9 8 8 7 7 7 9 9 8 8 7 8 9 9 7 8 6 6 6 6 7 7 7 6 5 6 5 2 5 9 10 13 15 19 22 25
5 5 4 3 2 3 4 4 6 5 8 11 12 9 8 8 7 7 9 9 8 8 8 8 8 9 9 8 7 8 7 7 7 6 5 6 6 7 8 6 5 6 7 8 10 13 15 17 20
3 4 2 2 2 4 4 4 4 7 10 10 9 8 7 6 7 6 8 8 7 7 7 8 9 10 10 10 10 10 9 8 6 6 7 7 6 7 8 7 7 8 9 10 11 13 14 15 18
4 3 3 0 4 4 2 5 5 14 14 12 9 8 8 8 7 7 8 9 9 8 7 8 8 8 10 8 6 6 6 6 6 7 8 8 7 8 7 7 7 7 8 7 7 8 10 10 10
4 4 3 3 4 1 3 5 4 8 9 8 7 8 7 8 7 7 9 10 9 9 7 7 7 8 9 7 6 7 6 6 7 8 9 8 7 6 6 6 6 7 7 6 5 5 5 4 4

GFSSGP_925_spd_072.txt.gz
Wind_Speed
4 6 5 5 3 4 3 6 3 1 3 2 2 9 7 3 2 4 7 13 28 32 28 26 24 21 20 19 18 16 16 14 13 12 12 10 9 10 11 11 14 15 15 15 13 12 12 12 13
2 4 5 2 3 1 5 5 5 5 6 8 5 5 5 2 3 7 14 24 31 31 28 26 24 23 21 19 18 17 17 14 14 11 7 9 10 11 12 11 15 16 15 14 12 12 12 13 16
10 6 3 3 3 5 4 3 6 3 5 4 4 5 5 1 4 13 15 29 31 30 26 25 24 23 22 20 20 18 16 12 11 9 7 11 11 12 13 13 17 14 13 12 11 12 13 16 18
6 4 4 3 6 7 5 4 6 5 1 5 5 7 3 3 7 12 30 31 34 30 27 25 24 23 22 21 20 18 15 11 9 8 11 13 11 12 15 15 16 12 11 11 11 12 14 17 18
2 4 1 2 7 4 5 6 8 7 1 3 3 2 3 5 11 34 31 30 33 30 26 24 23 22 21 21 20 18 13 11 8 11 12 15 14 15 17 17 15 12 11 10 10 12 14 17 16
4 4 2 6 11 3 6 7 5 6 1 3 6 5 1 3 23 29 29 32 31 30 26 24 22 22 21 21 20 17 13 11 10 14 14 16 16 15 16 17 15 11 10 9 9 11 13 15 16
6 6 7 5 9 7 4 6 4 5 4 2 9 5 1 3 13 28 31 29 31 27 28 24 23 21 21 21 19 16 13 11 12 13 14 15 14 13 13 14 12 10 9 9 9 10 13 14 15
3 3 8 7 4 8 9 13 5 6 3 3 4 6 4 4 12 29 30 31 30 28 27 26 25 23 22 20 18 15 14 12 11 11 14 15 12 9 10 11 10 9 8 8 9 10 12 13 14
4 5 11 12 8 9 9 8 7 7 4 4 5 3 10 17 16 26 25 25 27 25 26 27 26 24 22 19 18 15 15 14 12 10 9 11 12 13 12 12 10 9 7 7 9 9 11 12 12
4 3 10 7 8 5 9 13 12 7 7 6 5 7 14 15 23 20 17 20 23 24 25 26 26 26 22 20 18 17 17 17 15 13 10 9 11 13 13 13 12 10 9 9 9 10 11 11 12
6 16 10 9 7 4 7 16 12 11 6 4 10 6 5 16 16 16 16 25 26 25 25 27 27 27 24 22 20 20 19 19 17 14 12 11 11 12 13 14 14 12 12 12 13 13 12 12 12
7 5 17 6 7 4 3 12 16 7 5 7 10 10 6 8 11 14 16 20 24 26 25 26 27 27 25 22 22 20 20 20 19 17 15 15 14 13 14 15 13 12 13 14 14 14 13 13 13
1 11 7 3 12 15 10 15 17 15 9 2 11 6 8 6 12 14 15 17 19 23 27 25 26 27 26 24 23 22 20 20 18 17 16 16 18 18 19 17 14 13 15 16 15 15 14 15 16
7 3 6 0 6 8 18 15 17 10 8 8 10 8 7 7 9 10 13 16 17 17 18 25 27 24 25 25 23 21 18 16 20 17 16 17 20 22 22 21 17 15 15 16 16 15 15 16 18
3 8 4 7 6 7 8 9 14 9 4 5 5 7 8 8 14 17 18 15 17 19 18 19 21 23 26 26 25 23 19 20 21 20 19 19 24 24 22 23 22 18 17 16 17 17 18 18 19
5 5 6 7 8 6 8 8 13 9 6 3 2 2 4 3 11 17 16 18 18 20 20 22 23 22 21 24 24 23 20 18 22 24 21 20 23 25 23 25 27 22 21 22 22 22 23 25 25
2 4 6 5 10 5 7 4 6 3 8 8 5 4 4 5 5 10 10 9 8 18 23 25 21 20 23 24 22 23 22 21 20 24 24 22 22 24 25 26 29 25 24 25 27 27 27 24 26
6 4 2 3 7 6 6 5 5 5 3 9 8 7 6 6 9 8 9 11 11 11 10 12 22 23 20 19 25 26 25 26 22 23 24 25 25 25 26 27 28 27 28 27 29 29 27 26 27
7 1 5 5 5 5 7 4 10 9 4 7 7 7 6 5 2 7 8 10 12 11 9 8 8 11 18 22 23 22 24 28 30 30 26 24 23 26 27 30 31 31 31 32 31 32 32 31 30
7 6 4 2 4 4 6 14 9 11 6 6 8 8 8 3 4 7 8 9 9 5 3 3 3 4 5 11 21 22 20 23 28 25 26 28 28 27 24 26 29 32 32 33 33 33 32 32 32
1 5 3 4 2 2 4 6 9 8 4 5 7 5 5 9 8 6 8 8 7 5 4 2 5 5 5 7 7 8 13 16 14 17 20 21 23 24 24 24 24 27 27 31 35 36 35 27 29
5 4 6 2 3 4 4 5 6 9 15 10 10 7 8 7 6 5 8 8 6 6 4 5 4 3 1 3 7 10 8 8 6 6 10 14 17 18 19 19 18 17 19 26 29 33 34 30 22
5 3 5 2 5 3 1 1 6 3 9 16 10 9 8 8 9 8 9 11 9 7 6 6 5 5 6 6 3 1 4 7 8 8 9 7 12 14 20 19 19 19 19 18 18 22 23 26 27
3 2 6 4 4 2 5 5 5 6 8 8 5 6 9 9 8 8 12 12 10 8 7 7 7 7 6 6 6 5 4 2 1 2 3 4 1 4 8 10 14 15 16 15 15 13 14 14 18
2 4 2 2 4 5 3 5 15 6 7 7 8 9 8 8 8 8 8 10 9 7 6 5 5 6 6 6 5 7 7 6 5 4 4 3 1 2 3 2 6 9 10 11 10 10 12 15 17
3 3 4 5 4 4 2 8 7 5 7 7 13 13 10 8 7 8 9 11 9 6 4 4 4 4 5 5 4 3 3 3 3 3 2 3 3 3 3 2 2 2 4 7 8 9 10 12 15
4 6 2 2 3 3 5 7 9 2 2 8 12 10 9 8 7 8 10 11 8 6 6 5 5 6 5 5 4 4 3 3 4 4 3 2 3 4 5 5 6 6 6 7 7 7 10 13 12
3 2 2 3 3 3 4 5 6 3 8 11 12 11 9 7 7 7 9 10 9 8 8 7 7 7 7 7 6 6 5 4 4 4 4 4 4 4 4 3 4 5 6 7 8 10 10 9 9
5 4 6 3 4 4 3 5 5 10 12 15 12 12 11 8 7 7 9 10 10 9 8 7 6 6 6 5 5 4 4 4 4 5 5 6 5 5 5 4 4 4 4 4 3 3 4 4 4
7 5 4 4 4 2 3 5 5 7 8 8 10 9 8 8 8 7 11 13 11 10 8 6 6 6 5 4 4 5 5 5 5 7 8 7 7 6 6 6 6 6 6 6 5 4 5 4 4

GFSSGP_925_spd_075.txt.gz
Wind_Speed
6 3 3 6 4 4 3 6 3 5 2 2 2 3 6 3 2 4 6 18 24 32 27 25 23 21 20 18 17 16 14 11 10 12 11 9 9 11 11 13 13 13 13 12 11 11 11 13 14
10 1 5 2 4 2 5 4 4 5 2 5 6 2 5 3 2 5 16 14 30 29 27 26 23 22 21 19 18 16 14 13 13 12 8 8 9 11 11 14 13 13 12 11 10 10 12 13 14
8 4 3 3 3 5 4 3 4 7 4 3 3 4 2 2 3 14 8 26 32 30 28 26 23 22 21 19 18 17 15 16 13 7 5 10 10 12 12 14 13 11 10 9 9 11 14 15 13
4 3 4 3 5 5 4 3 3 9 5 6 4 6 2 3 9 8 25 29 32 29 27 25 24 22 20 20 19 17 15 12 9 6 9 10 11 12 12 16 12 9 8 8 9 12 15 15 13
2 1 4 3 5 3 4 6 6 7 6 2 2 5 2 4 5 21 28 30 31 29 26 25 24 22 20 20 19 18 12 7 5 6 11 10 10 13 13 14 11 8 7 6 8 11 14 14 12
2 3 3 5 6 2 4 4 4 4 4 5 5 5 2 6 23 28 28 30 30 29 26 24 23 22 21 20 19 16 11 7 5 9 10 12 11 13 13 13 11 8 6 4 6 9 12 12 10
5 4 7 5 7 2 1 7 4 7 5 6 7 5 1 4 21 27 27 29 29 28 26 24 22 21 21 20 18 14 10 7 9 13 15 12 10 11 12 12 9 7 5 4 4 8 11 11 9
2 3 7 4 9 3 5 8 5 6 6 5 2 5 5 5 23 24 26 29 28 26 25 24 23 22 21 20 17 14 10 7 11 14 15 13 11 12 12 11 9 7 4 4 5 7 9 10 10
1 3 9 8 6 5 3 7 8 11 4 6 5 3 11 21 27 24 21 21 22 22 21 23 25 23 21 20 17 14 11 11 10 10 13 13 13 11 11 10 8 7 6 6 7 7 8 9 9
5 5 5 2 1 4 4 7 8 8 16 4 1 10 18 26 28 22 17 19 18 19 21 23 26 25 23 21 19 16 15 14 12 11 10 11 12 12 12 10 9 7 7 8 9 9 10 10 10
2 13 7 3 5 7 7 8 8 7 8 1 5 10 7 16 17 20 19 22 28 25 24 25 26 25 25 22 20 18 17 17 14 14 11 10 11 12 13 11 11 11 10 11 11 11 11 11 12
5 6 10 5 4 4 5 6 13 5 9 17 10 4 5 14 13 17 17 24 26 25 24 26 27 26 25 22 21 19 19 19 18 16 15 14 13 13 13 11 11 12 12 13 13 13 12 13 13
1 6 10 9 5 4 5 9 6 18 22 19 8 4 6 6 12 17 25 26 23 24 25 26 27 27 26 23 21 20 20 21 20 19 18 17 15 15 13 12 12 12 13 14 14 14 14 15 15
6 2 12 13 10 7 5 1 3 12 9 16 5 5 6 5 9 12 17 19 21 23 24 24 26 27 26 24 22 22 21 20 20 20 19 18 17 16 15 16 16 14 14 14 16 16 16 16 17
2 5 6 11 11 5 11 6 11 23 20 16 8 8 5 6 10 15 21 23 22 20 23 25 24 26 26 26 24 24 22 21 19 19 18 19 19 19 19 19 20 18 16 17 16 17 17 18 17
4 3 5 9 10 4 12 11 12 18 18 15 6 5 5 4 10 11 13 16 19 19 20 19 24 28 26 26 26 25 24 22 21 20 20 21 22 21 23 22 23 22 21 20 20 18 20 21 21
4 5 6 7 12 7 15 4 15 23 20 15 8 6 6 4 3 12 13 14 15 18 19 22 21 21 22 25 27 27 25 24 22 21 23 23 23 23 24 26 26 25 26 26 24 24 25 25 26
4 2 4 5 9 9 10 5 6 9 11 13 8 7 7 5 6 5 10 12 13 18 21 21 20 19 21 21 20 21 22 22 20 20 21 23 24 23 25 28 28 28 28 29 28 29 29 29 30
6 2 4 2 4 5 5 3 7 10 6 7 9 9 9 8 1 6 11 11 11 12 12 14 19 24 21 18 18 23 27 26 26 26 23 22 22 24 26 28 28 28 27 29 30 30 30 31 29
6 6 2 2 2 3 4 9 8 11 8 7 8 9 10 5 5 7 11 13 9 9 9 9 9 9 13 19 22 20 18 20 23 25 26 29 28 25 23 25 25 26 28 29 30 30 29 30 30
3 4 3 2 2 2 3 6 11 11 6 7 8 7 6 9 9 7 10 11 10 8 6 5 5 6 8 8 10 15 20 21 21 20 20 22 22 23 24 25 24 23 23 25 27 28 30 25 22
3 2 2 2 2 3 5 5 7 9 14 9 11 9 8 8 5 4 10 11 9 7 6 6 5 3 4 7 10 11 12 12 14 15 13 12 12 15 17 19 20 19 19 17 18 20 23 25 21
5 1 6 4 1 2 2 2 5 3 7 17 14 9 8 9 9 9 10 12 11 9 7 7 8 7 6 3 3 7 9 10 10 11 11 10 9 12 13 19 21 19 18 18 15 15 15 16 19
2 5 6 4 3 2 6 5 5 7 8 6 7 9 10 9 8 7 12 13 11 9 9 8 8 8 6 6 5 3 2 2 2 1 3 6 6 6 8 10 13 17 19 18 15 12 12 13 14
3 6 2 1 1 5 3 5 13 5 5 6 8 8 9 9 9 8 8 12 11 9 7 5 5 6 5 4 4 4 4 3 3 3 3 2 2 3 3 3 4 7 9 10 12 12 10 9 8
3 6 4 5 4 4 4 8 6 6 7 7 8 7 7 8 7 9 10 14 11 8 6 5 5 5 3 3 3 3 2 1 1 1 1 2 2 3 4 4 4 3 3 4 6 8 7 6 7
4 3 4 5 3 3 4 8 8 7 8 5 8 9 10 9 8 9 12 14 11 8 6 5 5 5 4 3 3 3 3 2 3 2 2 3 3 4 5 5 5 5 6 5 5 6 7 7 7
1 4 2 2 1 4 5 6 8 5 8 5 8 12 10 8 8 7 10 14 11 9 8 7 5 6 6 4 3 3 3 2 2 2 2 3 3 3 3 3 3 4 4 4 4 4 4 3 4
4 4 2 1 4 5 2 6 7 6 8 8 8 8 11 11 9 7 10 13 13 11 10 8 6 5 5 4 3 2 2 2 2 2 3 3 3 3 3 3 3 3 3 2 2 1 1 2 3
6 7 7 4 5 2 2 6 2 5 6 7 7 9 9 9 8 7 12 15 14 12 10 8 7 6 5 4 3 2 3 3 3 4 4 4 4 4 3 3 3 4 4 4 4 4 5 6 6

GFSSGP_925_spd_078.txt.gz
Wind_Speed
7 9 4 4 4 4 2 4 2 5 1 3 1 4 5 3 5 5 7 10 25 31 28 25 23 20 18 16 16 14 13 9 10 11 10 11 12 12 12 12 14 13 13 11 11 12 13 13 13
8 10 2 3 4 3 4 3 2 3 4 5 0 3 3 2 3 6 16 14 27 30 28 26 23 21 19 17 15 14 12 11 12 10 9 9 11 11 12 12 12 12 12 11 11 11 12 13 12
8 5 3 4 3 5 4 3 2 5 8 3 2 4 3 1 2 14 4 23 32 28 27 25 23 22 19 18 16 14 12 12 11 7 7 10 11 12 12 11 10 10 10 10 11 11 12 12 11
2 1 4 4 4 5 4 3 3 7 5 3 1 3 2 3 10 9 21 26 30 27 26 24 23 21 20 18 17 14 14 11 8 4 8 9 11 11 11 11 9 8 9 10 10 12 12 11 9
2 2 4 3 4 4 3 2 2 5 5 3 2 3 2 5 4 18 24 29 30 27 26 23 22 21 19 19 18 16 11 7 5 4 10 8 10 11 12 10 7 7 8 8 9 11 11 9 8
3 2 4 9 5 2 3 4 2 4 5 5 3 0 0 1 14 21 26 30 27 28 25 23 21 20 19 19 18 15 10 5 4 7 7 8 9 10 11 10 7 5 5 6 7 9 9 8 7
7 3 4 8 6 1 1 8 4 4 6 4 2 2 2 2 10 22 26 27 27 26 25 23 21 19 19 19 17 14 9 4 7 10 12 11 10 11 10 10 7 4 3 4 5 7 7 6 4
4 4 4 4 11 4 2 5 2 6 4 7 2 4 4 5 17 21 22 25 25 24 23 23 21 19 19 18 16 13 8 5 10 13 12 10 10 9 9 7 5 4 3 3 4 6 6 5 4
1 3 5 8 7 5 3 4 6 5 2 5 4 3 5 25 21 21 20 20 22 22 20 20 23 21 19 18 15 12 9 6 9 11 12 11 10 9 9 8 7 6 4 3 3 4 6 7 7
4 5 3 4 3 5 5 3 6 6 10 7 9 13 5 25 24 19 18 18 19 19 18 17 23 23 20 19 17 14 11 9 9 9 11 11 10 9 8 8 8 6 6 5 5 5 6 8 8
2 6 4 5 7 3 5 3 3 4 4 4 7 15 9 12 19 19 18 21 22 19 17 19 22 23 22 21 18 15 13 12 10 10 9 8 9 9 10 10 10 9 8 8 7 7 7 8 10
2 3 5 3 4 2 3 2 4 1 6 7 10 13 10 12 15 19 20 19 20 21 20 20 23 24 23 21 19 17 16 15 14 12 11 10 10 10 11 11 10 11 10 9 8 8 8 9 11
1 4 8 7 5 4 6 4 3 13 4 6 13 10 7 8 12 15 17 18 22 22 20 20 24 24 23 22 20 18 17 16 16 15 14 13 12 12 11 11 11 10 10 10 9 10 10 11 12
6 5 12 7 5 6 6 5 5 13 8 15 16 15 6 7 9 10 17 22 22 20 19 20 23 24 23 23 20 19 18 17 16 16 16 15 15 14 13 13 13 12 11 9 10 11 12 13 14
4 7 6 5 5 3 5 6 10 17 10 14 14 13 8 7 11 13 20 22 24 22 19 19 21 22 23 23 21 19 19 18 17 17 17 17 17 17 16 15 15 14 14 13 12 13 14 15 15
5 5 6 6 13 8 12 7 12 12 8 14 15 13 8 7 10 12 16 17 18 19 20 19 21 23 23 24 23 22 21 21 20 18 18 19 18 18 19 20 19 16 16 17 17 16 17 18 19
3 4 5 7 14 8 9 5 9 7 11 15 16 11 9 6 8 11 11 15 17 19 18 20 21 24 23 23 24 24 23 23 22 20 20 21 21 21 22 22 21 20 20 21 22 22 21 23 23
6 4 2 5 11 10 13 3 12 14 16 17 18 8 8 8 8 8 9 12 14 16 19 20 18 18 19 23 24 25 25 26 25 24 23 21 23 23 23 23 22 22 22 23 23 25 26 27 28
6 5 6 3 4 9 12 8 14 13 8 16 20 14 10 8 6 8 8 10 11 10 14 18 17 19 18 19 19 20 22 23 25 25 23 20 20 21 24 24 22 22 23 25 24 24 27 30 29
6 5 2 1 2 6 8 10 9 16 15 20 21 20 9 6 3 5 8 10 10 10 9 10 12 16 20 20 19 17 15 21 27 25 25 25 25 22 20 21 21 22 23 24 25 25 26 25 24
2 6 3 2 2 1 4 6 8 8 7 11 14 11 6 9 8 6 10 13 12 11 11 9 9 9 9 9 12 15 17 17 16 17 16 15 16 19 21 23 24 24 23 22 22 22 23 22 20
2 3 5 2 3 3 1 4 6 12 13 10 17 15 11 9 6 5 8 10 11 10 9 8 8 7 7 9 10 10 10 11 11 12 12 10 11 12 14 17 19 21 20 20 19 16 16 17 18
2 2 4 3 3 3 2 2 4 3 8 20 16 9 9 9 9 9 12 13 12 11 9 8 6 5 3 4 6 9 11 11 11 9 9 8 8 8 9 12 16 19 19 18 17 16 15 15 16
4 5 6 4 2 2 7 6 4 6 7 5 6 10 12 11 9 8 14 14 13 12 12 11 9 7 5 4 3 2 3 4 6 5 6 8 8 7 7 8 9 11 14 16 16 15 14 13 14
4 3 1 2 1 5 3 5 11 4 7 7 8 8 9 7 9 11 11 16 16 14 13 11 9 9 6 4 4 3 3 2 2 1 0 1 2 4 4 4 4 5 6 7 10 11 11 10 10
4 6 4 5 4 4 1 7 5 5 6 8 8 6 6 8 8 10 12 18 18 15 12 11 9 7 5 4 3 3 2 1 1 1 1 1 2 3 4 4 4 4 2 2 4 6 7 7 8
4 3 4 4 2 3 4 7 8 7 9 8 8 5 7 9 11 10 12 18 16 14 11 10 9 7 6 5 4 3 3 2 1 1 1 2 3 3 4 5 5 6 6 5 4 5 6 6 7
1 5 2 2 2 4 5 5 6 6 7 5 8 8 6 6 6 7 10 17 14 13 12 11 9 8 7 5 4 4 3 2 1 1 2 3 3 4 4 4 3 3 3 3 4 5 5 5 3
3 3 1 3 4 4 3 5 6 5 7 8 8 7 7 7 9 7 9 14 14 13 12 12 10 9 8 5 4 3 2 1 1 2 2 3 3 3 3 3 2 2 1 0 1 2 3 4 4
4 3 5 3 4 1 3 9 3 6 8 7 7 6 7 7 7 7 12 15 15 14 13 11 10 9 8 6 4 3 3 2 2 2 2 3 3 3 3 2 2 2 2 2 4 5 7 7 8

GFSSGP_925_spd_081.txt.gz
Wind_Speed
8 7 6 2 2 2 3 3 1 1 1 1 4 2 3 2 4 2 4 12 25 29 24 24 23 20 19 17 16 14 12 10 10 11 12 12 12 12 14 15 15 14 13 13 14 14 15 15 15
8 5 2 2 3 3 3 2 1 2 3 5 3 0 1 2 2 5 15 14 27 28 24 22 23 20 19 18 16 14 10 10 11 11 9 11 11 12 13 14 14 13 13 11 13 14 13 14 12
4 3 2 4 3 5 3 3 1 4 7 4 0 1 1 1 2 15 7 21 26 26 24 23 22 21 19 17 16 13 11 13 9 8 10 11 11 11 12 12 13 12 12 12 13 13 13 13 13
4 2 3 3 5 3 3 3 2 6 2 3 1 2 1 3 9 7 18 23 26 26 24 24 22 21 18 17 15 14 14 11 7 7 10 12 12 11 11 11 11 12 12 11 13 12 12 12 11
2 2 3 3 4 2 2 1 2 4 4 3 1 1 2 5 2 15 22 22 22 25 24 23 22 20 19 17 16 16 13 7 6 7 10 11 11 11 10 9 10 11 10 11 11 11 11 11 11
2 1 3 6 4 2 2 1 0 3 3 5 2 3 2 2 11 15 21 23 19 24 23 22 21 20 19 18 16 14 10 7 6 9 9 9 12 10 10 8 8 8 8 9 9 9 8 8 9
4 3 5 4 6 2 3 1 3 2 3 5 4 2 1 2 9 18 21 19 18 21 23 21 20 20 19 19 16 12 8 5 10 12 12 9 11 9 6 7 6 6 6 7 6 7 7 6 6
3 2 5 4 10 10 2 2 2 4 2 6 5 4 3 1 12 19 21 20 19 20 22 21 21 20 20 19 16 11 7 5 10 14 13 11 11 9 7 7 5 3 3 4 4 5 6 5 4
2 4 11 10 9 5 2 4 0 2 3 4 6 7 11 8 16 18 21 17 17 19 17 22 22 21 21 19 16 11 7 6 11 13 12 9 9 8 7 5 3 2 1 2 2 4 5 5 5
4 4 6 4 4 6 4 3 1 3 4 4 6 17 19 8 15 15 15 14 17 19 17 18 21 21 20 19 17 13 10 9 11 11 11 9 8 6 6 6 5 4 3 2 3 4 5 6 5
4 5 5 2 5 6 5 3 2 4 3 2 7 13 15 5 9 14 15 16 17 17 17 18 20 21 21 19 18 15 12 10 9 9 10 9 8 8 8 7 7 7 5 5 5 6 6 6 7
6 4 4 5 2 4 4 2 2 1 4 2 3 6 10 5 8 13 17 18 18 18 19 19 20 22 21 19 18 15 13 12 10 10 10 8 8 8 8 8 8 8 7 7 7 7 7 7 8
3 6 7 8 8 6 6 3 3 4 2 1 6 12 13 8 12 13 13 15 18 19 19 20 21 23 22 20 18 16 13 12 11 11 11 10 9 8 8 8 8 7 7 7 7 7 8 8 9
6 5 10 6 5 4 4 1 2 3 5 10 10 11 10 10 12 11 16 17 20 20 20 20 20 23 22 21 18 17 14 13 12 13 12 12 11 10 10 9 9 9 9 7 7 8 9 9 10
10 5 3 1 2 3 4 5 9 2 7 8 10 11 10 13 9 16 17 19 24 24 19 20 20 22 22 20 19 17 15 14 14 13 13 14 13 13 12 12 11 10 10 10 11 10 10 11 11
6 6 4 2 6 1 3 8 6 5 1 6 9 11 11 14 11 12 16 17 21 21 21 20 20 22 21 20 19 18 16 15 15 14 14 14 14 14 15 16 15 13 13 13 14 14 14 14 14
3 5 6 3 4 2 3 5 8 4 2 10 8 10 11 14 15 12 12 15 16 21 20 20 20 20 20 19 19 19 18 17 17 17 16 16 17 17 18 18 17 16 17 17 17 17 17 18 18
5 5 5 7 9 5 9 11 3 2 8 11 10 11 13 12 16 12 9 10 14 18 17 16 18 19 18 18 19 19 20 20 20 20 20 19 20 21 21 22 21 19 19 20 19 19 19 21 21
6 5 5 2 7 8 12 11 7 10 3 5 10 13 15 14 15 9 6 10 11 15 18 18 17 16 17 18 19 20 22 23 24 24 23 22 20 19 20 22 22 21 20 20 19 19 19 20 20
5 7 3 1 2 13 7 14 10 11 9 7 13 16 16 10 6 9 6 8 11 11 14 17 18 19 20 19 18 17 15 17 21 19 19 21 22 23 23 20 22 21 21 20 20 20 18 16 18
2 5 4 4 2 2 4 10 8 9 9 11 10 17 16 12 9 8 10 10 9 11 10 12 14 16 18 19 18 16 15 14 13 13 14 15 16 17 19 21 21 20 20 22 22 21 19 12 16
3 3 5 5 3 3 2 4 6 14 18 17 16 16 17 9 4 5 9 12 12 10 10 10 11 11 11 11 12 12 13 12 11 11 12 12 12 13 14 15 17 19 20 21 21 19 18 16 15
3 3 5 3 3 2 0 2 5 5 18 17 16 17 19 9 10 8 13 16 13 11 10 10 10 9 7 6 7 8 9 9 10 9 8 8 8 8 8 10 12 15 16 18 18 17 17 16 13
7 5 6 3 2 2 5 5 3 5 10 7 14 19 20 17 14 12 14 15 14 14 13 12 10 8 6 4 3 3 4 5 5 5 5 6 7 8 6 7 8 10 11 13 16 17 16 16 15
2 4 2 1 1 4 2 3 10 9 7 6 9 10 13 15 10 11 13 18 19 18 16 14 12 10 8 6 5 4 3 2 2 1 1 1 2 3 4 5 5 5 4 6 9 13 14 14 12
3 4 4 6 4 3 1 5 5 6 7 6 6 4 2 5 6 11 14 19 23 22 18 15 13 11 9 7 6 5 4 3 2 1 2 2 3 4 5 5 5 5 4 4 5 6 8 9 10
4 4 3 4 1 1 3 4 9 6 10 6 7 4 7 6 8 11 14 17 19 19 18 16 14 11 9 8 7 6 5 4 3 2 2 3 4 5 6 6 7 6 6 6 6 7 6 7 8
1 5 2 1 2 4 2 3 5 5 1 6 7 7 6 4 7 8 13 15 16 15 14 13 12 12 11 9 7 6 5 4 3 3 3 3 3 4 4 4 4 4 4 4 5 6 7 6 5
3 3 1 2 3 3 1 4 5 5 2 6 10 8 6 6 8 9 11 15 16 15 15 13 12 11 10 8 8 7 5 4 3 3 2 2 2 2 3 3 3 3 2 2 4 4 4 4 3
2 5 5 3 4 0 1 7 3 5 4 3 9 9 2 6 9 10 13 15 15 15 15 14 13 11 10 9 8 7 6 5 4 2 2 1 1 2 2 1 1 1 1 3 4 5 6 6 6

GFSSGP_925_spd_084.txt.gz
Wind_Speed
4 3 1 4 5 5 11 6 1 5 5 2 3 4 2 6 4 2 11 12 23 27 25 23 22 20 17 16 15 13 12 11 11 11 12 13 13 15 15 15 14 14 14 14 15 15 14 15 15
3 2 3 2 6 10 10 5 8 3 0 3 3 4 5 4 4 7 16 14 25 26 24 23 23 20 19 17 16 13 10 10 11 10 12 11 13 14 14 14 13 13 13 14 15 14 14 13 13
4 2 4 5 8 12 9 8 5 0 2 5 5 2 1 3 4 14 9 22 26 25 24 22 23 21 19 17 15 11 11 12 10 10 12 13 12 13 13 13 12 13 13 13 14 14 13 13 12
7 5 3 8 14 6 2 8 2 3 5 3 1 6 4 4 4 5 16 24 25 24 22 22 22 21 19 17 15 12 15 7 8 10 13 13 12 12 11 12 13 12 13 13 13 13 12 12 11
6 3 10 12 11 7 6 4 2 2 4 2 2 5 4 5 2 9 18 23 24 23 21 21 22 21 19 17 15 15 13 6 7 10 13 13 12 12 8 11 11 12 12 12 12 11 11 11 11
7 4 12 16 16 7 6 2 1 3 2 4 4 4 5 4 8 13 18 21 21 23 21 20 20 20 19 17 16 17 9 7 8 9 11 13 11 13 8 9 10 10 10 10 10 9 9 9 9
11 9 16 17 13 10 7 4 3 3 3 6 2 3 4 6 5 11 16 18 19 21 20 19 18 18 18 18 18 14 9 7 11 11 10 12 12 10 6 7 7 8 8 8 8 7 7 6 6
5 7 16 12 14 14 8 6 2 3 6 1 4 3 6 5 6 13 13 14 17 19 19 19 18 16 16 16 16 12 8 9 12 11 12 11 11 9 7 7 6 5 5 5 6 5 5 4 4
1 5 15 17 16 14 9 7 2 1 5 7 6 5 6 6 11 13 14 13 14 16 17 18 18 17 15 15 14 11 9 10 13 14 13 11 8 8 7 7 4 3 3 3 4 4 4 4 3
6 8 18 14 8 6 9 8 7 5 7 6 7 11 7 5 12 12 15 13 14 17 15 17 18 17 16 13 13 10 9 10 11 11 11 8 8 7 7 5 4 3 3 3 3 4 4 3 4
12 8 7 10 11 8 9 8 3 10 6 7 8 12 7 5 6 10 13 12 14 16 15 15 15 17 17 14 13 11 9 9 10 10 10 8 7 5 5 5 4 4 4 3 2 3 3 5 4
12 11 9 8 6 7 11 7 6 2 7 6 5 9 8 2 4 6 13 16 18 18 16 15 17 16 16 14 13 11 10 9 9 9 10 8 7 6 5 5 5 5 5 4 4 4 5 5 5
12 14 8 7 7 6 8 6 6 6 5 4 3 6 11 5 5 7 13 14 17 18 17 16 16 17 17 15 14 12 10 9 8 9 9 8 7 6 5 5 5 5 5 4 5 5 5 5 6
13 14 12 10 7 4 5 5 4 6 7 6 2 5 8 9 6 9 13 15 15 16 17 17 18 20 18 17 15 13 11 10 9 9 9 9 7 6 6 5 6 6 6 5 5 4 4 5 6
14 11 10 7 8 4 3 11 11 6 8 8 7 1 4 7 9 7 12 13 15 16 16 18 18 19 20 19 16 14 12 11 10 9 9 9 9 8 7 6 6 6 6 7 7 6 6 6 6
12 13 11 9 8 4 5 21 12 8 12 15 12 9 2 4 8 9 9 14 15 16 18 17 16 18 20 18 16 14 13 12 10 9 8 10 10 10 8 8 8 7 7 7 8 8 8 8 9
11 12 17 7 8 5 11 13 6 6 11 13 15 14 6 4 9 9 9 11 13 16 17 17 16 17 19 17 15 15 13 12 11 10 10 10 11 11 10 10 10 9 9 10 10 10 11 11 11
10 11 15 12 11 9 12 14 8 4 6 11 13 17 9 6 8 11 10 8 9 13 15 14 16 16 17 14 14 13 12 12 12 12 12 11 11 11 12 12 12 12 12 12 12 13 12 13 13
11 10 12 8 7 8 15 15 14 10 8 10 11 15 16 12 11 11 11 8 7 12 16 17 17 17 16 16 15 14 14 14 14 13 13 12 12 13 13 13 13 13 15 15 14 14 14 15 13
10 11 9 5 6 8 9 15 15 13 11 12 13 16 21 16 12 12 10 8 8 10 10 14 15 16 18 15 15 12 11 11 10 9 11 12 13 13 15 14 14 14 15 15 15 15 13 12 11
9 14 9 3 5 11 7 14 16 15 15 13 16 12 17 20 15 12 13 11 7 8 8 10 10 11 13 13 11 10 9 9 7 7 8 9 13 14 16 16 15 15 15 15 15 15 16 15 11
11 5 7 8 11 6 8 4 6 14 17 18 17 17 13 14 14 13 12 11 9 8 7 8 12 13 15 16 12 12 11 11 7 6 8 9 12 13 14 17 17 17 16 18 19 16 17 16 13
3 5 9 4 7 3 8 5 9 7 15 16 18 20 19 13 13 13 14 11 10 10 10 9 10 11 12 11 10 8 7 6 7 7 6 7 8 9 10 10 11 13 15 16 17 18 17 14 12
10 8 7 4 5 8 13 11 8 7 10 14 17 19 18 15 15 16 19 14 13 12 12 12 11 10 11 10 9 8 7 5 5 5 4 5 6 8 9 9 9 9 9 9 12 16 17 18 17
9 12 4 5 6 7 1 10 14 8 9 8 7 11 16 14 18 18 12 17 18 19 16 14 12 10 9 8 7 6 5 4 4 3 3 3 3 4 6 7 6 7 8 8 9 12 15 15 17
14 13 4 6 5 3 3 7 3 7 7 9 12 8 3 8 11 13 10 13 14 15 16 15 14 10 8 7 7 6 6 4 4 4 3 3 2 4 6 6 6 7 7 7 7 9 10 12 13
8 6 1 1 1 3 4 4 11 12 10 7 6 7 10 11 8 9 9 15 17 17 16 15 13 11 8 7 6 5 5 4 4 4 4 4 5 5 6 7 7 8 8 8 7 7 7 8 8
4 8 4 2 4 5 4 4 5 6 5 2 4 4 6 7 8 8 10 15 16 16 15 13 11 10 9 8 6 5 5 4 4 4 4 4 5 6 6 7 7 8 7 7 7 6 7 6 8
4 5 4 3 4 3 2 3 1 1 4 7 8 5 5 4 6 7 10 15 16 15 13 13 11 10 9 7 7 6 5 4 3 3 4 4 5 6 6 6 7 7 6 6 3 3 3 3 3
11 12 14 6 6 4 5 6 3 2 5 6 7 4 2 2 4 8 14 18 18 16 15 12 11 11 9 8 7 5 5 4 3 3 4 4 4 5 5 5 5 5 5 4 3 3 4 4 4

GFSSGP_925_spd_087.txt.gz
Wind_Speed
7 5 4 5 5 7 15 12 1 7 6 3 2 5 10 13 3 4 19 14 24 26 25 23 22 19 16 15 13 12 11 11 12 12 13 14 15 16 16 15 15 15 15 15 15 15 15 15 15
8 7 6 5 7 12 13 13 10 8 4 2 4 3 2 10 13 11 14 20 26 25 24 22 22 19 17 15 13 12 10 10 11 12 12 13 14 15 15 15 15 14 14 15 15 14 13 14 13
8 9 6 5 10 14 15 14 11 5 3 6 5 3 2 6 7 15 15 24 25 24 24 22 22 21 19 16 14 11 11 11 9 12 11 13 14 14 14 14 14 14 14 14 14 14 13 13 12
10 8 7 11 17 19 10 13 7 8 4 4 4 6 7 6 5 7 19 25 24 23 23 24 23 21 18 17 13 13 11 8 8 11 12 11 13 12 13 14 15 15 14 13 13 13 12 13 11
15 8 11 14 18 15 3 9 5 7 7 9 6 9 7 8 5 11 19 23 23 22 21 21 22 20 18 16 14 16 10 7 10 12 12 10 12 9 12 13 14 14 13 13 12 12 12 11 11
8 8 13 17 20 10 8 8 6 2 5 5 5 9 8 6 8 16 18 20 21 21 19 19 20 19 17 16 16 15 8 8 12 12 13 11 11 9 9 12 13 12 11 11 10 10 10 11 10
13 13 18 22 18 11 10 7 8 1 8 5 5 6 7 9 8 12 13 11 19 19 19 18 17 18 18 16 18 12 8 9 13 14 13 10 10 7 7 9 10 10 9 8 8 7 7 8 7
8 10 23 21 13 15 11 6 5 2 6 1 6 4 10 5 7 15 13 18 14 19 17 19 18 17 15 15 16 11 8 10 12 12 12 13 11 7 6 6 7 7 7 6 6 4 4 3 3
5 8 16 23 19 16 13 9 3 2 8 7 5 6 5 2 10 14 14 14 12 19 20 17 17 17 16 16 14 11 8 12 12 12 12 11 9 8 7 7 4 5 4 4 4 3 3 2 1
7 11 19 19 14 8 13 10 8 8 9 8 6 8 7 11 12 14 15 16 13 16 17 19 18 18 17 17 13 10 8 10 11 11 12 9 8 8 8 6 4 3 3 2 2 2 2 2 3
17 16 16 2 13 13 8 9 5 7 5 5 6 6 9 6 9 12 14 15 15 16 15 10 17 18 18 15 14 11 8 10 11 11 10 8 8 6 6 4 4 3 1 2 2 2 2 4 4
11 15 3 6 9 6 10 9 8 9 11 8 7 7 9 5 6 2 16 16 16 13 16 13 12 16 16 15 14 12 10 10 10 11 10 8 8 7 6 6 5 5 5 4 5 4 5 5 5
16 8 10 3 4 12 7 7 7 8 9 6 5 6 7 8 6 2 2 10 15 19 17 17 16 14 16 15 14 12 12 10 10 10 11 10 8 7 6 6 6 5 5 5 5 5 5 5 6
12 19 14 6 7 7 12 8 3 11 10 7 4 4 6 6 7 10 8 13 14 14 16 16 18 16 16 15 15 12 12 11 10 10 10 11 9 7 6 6 6 6 6 5 4 4 4 5 6
8 13 11 14 17 7 7 12 11 10 10 11 9 5 4 7 6 9 15 12 14 15 16 17 18 20 17 17 15 15 14 12 11 11 11 11 10 8 7 6 6 6 6 6 6 5 5 6 6
14 12 9 17 13 6 6 16 17 15 12 14 15 12 8 6 9 5 5 12 13 14 16 16 16 19 19 18 17 17 14 13 11 11 10 11 11 10 9 8 7 7 7 7 7 7 7 7 8
11 14 19 14 14 9 12 11 15 10 9 15 17 17 13 10 8 5 3 8 12 15 16 17 18 16 19 20 17 15 14 14 13 12 10 10 11 10 9 8 8 8 8 8 8 9 9 9 9
13 17 20 15 11 13 13 16 16 6 10 14 16 18 18 15 11 8 2 3 8 11 14 14 15 14 18 17 15 15 13 13 12 12 11 10 10 10 10 10 10 10 10 10 10 11 10 10 10
14 16 15 14 8 11 16 16 18 15 12 13 15 15 18 19 15 11 5 3 6 9 13 14 17 17 15 16 15 15 14 13 13 13 12 11 11 11 11 11 11 11 12 13 12 12 12 13 12
9 12 8 5 7 8 12 17 18 18 18 15 16 15 15 18 18 13 10 3 7 9 12 15 16 15 16 15 16 15 14 14 14 13 12 12 12 12 12 11 11 11 12 13 13 13 13 13 11
9 12 12 7 11 11 11 15 17 19 18 17 16 15 12 18 21 17 13 8 8 11 12 14 15 15 16 15 13 14 10 10 6 8 8 8 8 9 11 12 13 13 13 14 13 14 15 14 12
10 8 5 6 5 9 16 6 18 18 19 19 18 16 15 13 17 18 14 11 10 10 11 10 11 14 15 20 16 13 10 11 10 7 6 5 7 7 10 12 14 16 17 18 19 18 16 17 15
2 9 5 5 9 8 9 6 14 11 14 18 17 17 16 12 15 12 14 13 12 13 12 11 9 10 11 11 11 10 11 9 8 7 7 6 7 9 10 10 10 9 9 15 17 17 17 20 20
6 7 8 6 8 6 15 11 10 12 13 13 15 16 16 15 15 15 17 14 13 12 12 14 13 9 8 8 8 7 8 7 6 8 6 6 6 7 9 9 9 9 8 8 9 12 16 17 18
9 12 5 5 5 8 1 10 16 5 5 7 5 8 13 14 15 17 15 15 15 15 14 14 15 13 9 8 7 6 7 7 6 6 5 4 5 4 5 7 7 7 7 7 8 8 10 13 15
13 14 5 9 9 10 5 8 9 8 11 12 7 6 2 8 9 14 14 12 16 16 16 16 17 14 12 10 10 8 7 6 5 5 4 4 3 3 6 5 6 6 7 7 6 7 9 11 13
13 10 9 4 1 4 6 10 12 14 8 6 6 6 8 9 7 11 7 6 12 16 17 16 16 15 13 11 10 8 6 5 5 4 4 3 3 4 5 6 6 7 7 8 7 5 4 7 9
5 5 5 3 4 8 7 7 8 7 8 4 1 2 3 4 7 7 5 8 17 15 17 16 17 17 13 11 10 8 7 6 4 3 2 2 2 3 4 5 6 6 7 6 6 5 5 7 8
9 5 7 3 10 4 6 3 5 3 9 5 6 5 4 3 4 6 9 14 13 16 17 16 14 14 13 11 9 8 6 6 5 3 1 2 3 3 3 4 5 5 5 5 4 3 3 4 4
15 17 14 8 7 7 8 5 5 4 2 3 4 5 5 3 2 2 5 10 13 15 16 18 17 15 13 11 11 9 8 6 5 3 2 2 2 4 4 4 4 4 5 4 3 3 2 3 3

GFSSGP_925_spd_090.txt.gz
Wind_Speed
9 5 4 3 2 3 8 7 7 4 2 5 7 6 8 14 7 9 31 25 36 31 28 26 22 21 18 16 16 13 14 13 17 16 17 18 17 18 17 17 18 18 17 17 17 17 17 17 17
9 10 4 3 3 5 7 15 3 2 9 8 6 4 7 6 4 11 13 31 31 31 28 26 23 20 19 15 16 15 15 15 16 15 17 17 17 17 17 18 18 17 17 16 16 15 16 17 16
11 14 3 4 4 10 7 12 7 4 8 3 4 1 1 5 6 11 25 30 33 29 27 24 22 20 19 15 15 14 14 14 16 15 15 17 16 16 16 17 17 17 17 17 16 15 15 16 16
8 3 3 6 10 14 10 6 8 6 2 6 5 10 6 15 4 17 29 29 31 27 25 24 22 20 19 15 14 15 14 14 16 16 15 14 15 16 16 16 17 17 17 17 15 16 15 15 16
15 3 6 8 14 12 2 12 6 7 7 3 2 6 6 11 10 20 26 27 27 27 26 25 21 19 18 16 16 16 13 14 17 16 15 15 13 15 15 16 16 15 15 15 15 15 14 14 14
4 6 6 11 14 14 7 9 1 4 5 5 2 6 4 7 7 16 23 23 27 28 25 23 20 19 18 17 17 14 11 15 17 17 15 14 13 12 14 14 14 14 14 14 13 13 13 13 11
6 7 11 14 14 6 11 7 4 2 4 6 9 6 4 6 6 11 19 22 28 28 22 21 20 18 17 17 17 11 11 15 17 16 14 14 10 10 11 13 12 12 12 11 11 10 9 9 8
4 2 12 13 14 7 8 5 7 8 4 3 7 4 6 3 7 8 8 16 30 26 21 19 19 17 16 16 15 11 12 15 17 17 14 14 11 8 10 10 10 10 10 8 8 7 6 6 6
2 4 9 16 8 9 11 5 2 1 7 9 7 8 10 14 12 10 8 10 22 26 23 21 18 17 14 15 13 10 12 15 15 13 14 13 9 10 9 8 7 7 7 7 5 4 3 3 3
5 4 8 12 7 15 11 10 7 6 6 6 9 12 13 15 16 11 5 6 7 24 21 22 21 21 18 14 12 7 10 14 14 15 15 15 8 9 8 6 4 4 5 4 3 3 2 2 1
3 5 10 2 13 12 1 10 9 10 7 8 6 12 6 15 14 12 9 9 7 21 21 14 21 20 19 17 13 12 9 11 14 13 12 11 13 11 8 2 4 3 2 3 2 3 4 3 2
2 11 10 7 6 1 4 3 5 3 7 9 7 13 7 9 10 14 15 15 15 13 17 19 20 21 20 17 16 17 10 14 15 16 9 12 10 6 8 7 3 2 1 3 1 3 1 3 5
9 7 8 8 7 6 11 5 5 10 9 8 6 11 10 7 9 11 11 21 20 14 16 18 18 20 19 18 18 15 15 14 11 12 12 10 10 9 9 8 8 7 6 6 6 4 5 4 5
12 9 13 7 4 5 7 7 1 13 9 7 5 8 9 10 12 9 11 17 18 22 18 21 17 17 20 19 18 12 16 15 14 13 13 11 10 9 10 9 8 8 8 6 5 5 4 5 6
15 12 12 11 16 4 5 8 6 3 12 9 7 6 9 7 15 14 13 12 16 20 19 17 21 18 17 20 18 15 14 14 13 13 12 13 11 10 9 9 9 9 8 7 7 6 7 6 7
13 11 3 6 6 2 4 13 8 9 8 8 10 9 8 9 8 9 20 17 18 17 19 20 21 20 23 15 19 18 17 12 13 13 12 13 13 11 10 9 8 8 8 8 8 8 8 8 8
6 4 9 5 10 4 8 5 9 16 11 10 9 8 9 9 11 13 12 13 21 20 20 20 22 22 23 24 18 18 18 17 16 14 15 14 13 13 12 10 9 9 10 9 9 9 10 10 10
10 14 13 11 11 10 9 10 10 5 5 4 5 8 8 9 10 16 11 13 14 16 19 19 21 20 18 23 20 23 17 20 15 15 13 14 13 14 13 11 10 10 11 11 11 12 11 12 12
7 9 11 14 14 12 17 12 11 10 8 7 8 9 9 9 14 24 17 14 14 16 17 20 21 20 19 22 22 22 21 18 16 15 12 11 11 12 14 13 11 11 13 13 12 13 13 14 14
3 9 11 11 10 12 8 11 12 11 10 11 10 9 9 8 8 18 19 17 17 18 16 21 22 22 21 24 23 22 23 19 20 17 15 16 13 12 12 11 11 12 12 13 13 13 14 15 12
7 11 6 5 7 4 3 7 11 13 12 9 10 8 7 8 4 10 19 22 19 19 18 17 21 20 23 21 20 17 18 15 17 15 14 12 10 10 12 13 15 16 15 15 14 13 13 14 14
6 2 7 5 3 3 8 4 8 17 13 12 9 9 9 9 9 8 13 21 20 18 20 19 15 19 21 23 21 16 16 17 13 12 11 11 13 14 15 15 16 18 17 17 18 17 16 13 15
2 6 7 3 5 6 3 3 7 2 15 15 13 10 10 10 10 8 14 21 21 15 18 20 17 16 16 19 20 18 14 10 14 17 17 11 9 9 9 9 9 11 10 11 15 17 17 17 18
5 1 3 3 1 1 7 6 5 5 6 5 8 12 12 10 10 7 19 21 18 17 16 15 16 18 17 15 18 14 13 13 12 11 12 9 8 9 6 7 8 8 8 8 8 10 11 15 17
6 5 2 1 2 5 4 6 9 7 4 2 4 4 4 10 10 9 9 14 19 17 15 16 17 16 16 16 16 18 15 13 11 10 8 10 8 5 6 6 5 6 7 7 8 8 8 11 13
6 6 3 4 4 4 8 6 5 6 5 6 6 4 4 6 3 10 10 18 24 23 18 17 18 16 15 17 17 16 14 12 11 9 10 10 8 7 6 5 4 6 7 6 6 5 8 10 11
6 5 4 2 6 1 5 6 7 8 5 2 2 1 5 4 2 3 7 10 24 26 22 19 17 16 15 14 15 16 14 12 12 10 8 7 7 7 5 5 5 7 8 7 7 6 8 8 9
2 2 2 1 2 3 4 6 5 1 7 7 4 4 2 3 2 4 6 5 16 21 20 18 15 18 16 15 13 15 15 11 9 9 10 8 5 5 5 5 6 6 7 7 6 5 8 8 9
5 2 4 1 4 2 1 2 5 6 9 8 8 6 6 5 1 2 6 7 12 19 23 22 20 17 18 16 13 10 10 11 13 10 6 6 6 5 4 5 5 5 6 6 4 4 7 6 8
8 9 6 3 4 3 3 5 2 8 8 6 8 6 6 4 3 1 7 11 9 18 21 24 22 17 17 19 19 14 13 12 9 8 7 5 4 4 4 5 4 5 6 4 4 4 6 6 7

GFSSGP_925_spd_093.txt.gz
Wind_Speed
15 10 5 2 3 4 3 6 1 7 4 2 6 9 13 6 1 2 24 26 34 37 32 28 25 23 21 20 17 16 16 19 22 22 20 19 19 19 19 20 20 18 19 20 19 19 18 20 23
14 8 6 1 4 4 5 7 1 4 4 9 9 17 7 5 3 12 15 32 38 36 32 29 26 23 21 21 20 17 17 20 20 21 21 20 19 19 19 19 20 18 18 18 18 18 19 21 21
14 7 3 4 4 6 5 9 8 3 6 5 5 5 9 5 2 8 30 32 37 35 32 29 25 22 21 19 18 18 19 20 19 19 20 20 19 19 19 20 18 18 18 17 17 17 18 20 20
3 1 2 4 9 6 3 6 6 6 4 8 7 9 5 7 3 23 34 33 34 32 31 28 24 23 20 17 17 18 20 20 20 17 19 20 19 19 19 19 19 18 18 17 17 17 19 19 19
3 2 2 3 6 4 4 2 3 4 5 6 7 4 4 4 12 38 36 31 34 30 30 26 23 22 18 17 19 17 19 20 20 17 18 18 18 19 19 19 19 17 16 16 15 17 18 19 16
4 3 3 5 6 4 4 4 2 2 3 4 7 8 1 5 12 30 35 33 33 31 29 25 21 20 18 19 18 15 18 20 19 18 17 16 17 18 18 18 17 16 15 15 15 16 15 15 13
5 3 5 5 7 3 4 6 4 4 4 6 3 5 3 2 8 20 29 36 34 30 29 24 21 20 18 19 16 14 17 19 19 18 16 15 15 16 16 16 16 14 14 13 13 14 12 12 11
4 3 3 3 4 2 5 4 2 7 4 2 3 6 4 2 5 23 33 37 34 30 28 25 23 21 20 18 14 13 15 19 19 17 16 15 13 14 15 15 14 12 11 10 10 10 10 9 9
2 3 3 3 6 6 2 5 3 4 8 5 3 4 7 14 11 25 24 25 31 30 28 25 23 20 19 18 14 12 14 17 17 16 16 14 11 13 14 12 12 10 10 8 7 7 7 7 7
3 3 5 1 2 7 4 7 7 4 4 5 8 7 10 13 14 17 15 18 23 27 28 25 24 22 20 18 14 11 15 16 14 15 15 11 10 10 10 9 8 8 8 7 6 4 4 5 5
5 4 1 8 5 7 4 5 4 9 2 3 10 11 9 9 14 13 15 13 25 29 29 27 26 25 19 18 15 12 15 15 14 14 15 14 10 9 8 6 6 6 6 6 5 5 6 5 2
5 4 4 6 8 3 4 4 5 3 5 8 11 11 11 10 7 15 16 18 19 23 27 25 28 25 18 16 16 14 16 17 15 14 14 15 15 11 9 6 6 6 5 6 4 4 4 2 3
1 4 5 11 10 4 5 4 6 5 7 9 11 7 11 11 13 15 18 19 16 18 22 26 26 23 20 18 16 17 17 16 15 14 12 13 16 8 9 9 8 4 6 6 5 3 4 4 4
7 3 3 7 10 9 3 3 8 3 5 8 10 9 6 10 13 11 16 20 22 17 20 26 23 22 23 22 17 19 19 17 17 15 14 15 13 12 11 11 10 8 7 7 6 7 6 7 6
11 10 4 5 3 7 6 1 8 5 7 7 8 8 7 7 14 15 18 19 22 22 21 22 23 22 21 21 18 19 20 21 20 19 18 15 13 14 13 12 12 11 10 9 9 8 7 7 7
6 3 4 3 8 2 4 6 15 5 7 8 7 7 8 8 15 18 20 21 21 22 21 24 23 24 23 22 22 21 16 19 18 18 15 18 19 13 13 13 11 11 11 10 10 10 10 9 8
2 5 4 6 4 6 5 4 14 13 10 9 9 8 9 8 10 16 25 24 24 26 27 22 22 23 26 20 22 22 21 22 17 17 17 16 16 17 15 13 12 11 11 12 10 11 10 10 10
7 6 6 6 3 6 8 10 8 6 6 10 9 8 7 8 11 22 22 23 23 25 26 27 27 28 26 28 21 22 25 22 22 20 19 20 17 17 14 13 12 11 12 13 12 12 12 12 12
5 9 5 12 12 10 17 13 11 5 1 9 9 8 7 9 11 25 26 27 20 26 26 30 29 29 27 28 31 27 27 24 22 13 18 20 17 16 18 15 13 12 12 12 13 13 13 15 13
2 6 6 1 15 5 2 6 8 13 6 7 9 8 8 6 8 13 26 26 27 25 28 32 30 28 28 27 29 29 28 25 23 25 20 16 17 15 16 16 14 12 13 12 12 13 13 13 13
2 4 4 5 4 3 5 6 8 13 7 8 9 8 10 10 8 8 15 27 28 29 26 31 31 30 30 27 26 27 23 26 23 21 20 17 14 12 13 13 13 15 16 15 15 15 14 14 15
2 2 7 9 6 4 7 4 5 14 10 13 13 12 11 10 6 11 12 19 26 33 32 28 31 31 31 29 29 26 24 23 25 23 20 19 17 11 11 12 16 20 18 19 17 17 16 14 18
1 3 6 4 3 3 3 2 6 3 7 15 11 11 11 11 9 13 16 27 29 27 27 28 23 23 29 30 29 27 24 23 21 21 25 23 21 19 18 11 19 17 19 19 18 17 18 19 18
5 3 4 4 3 1 5 5 4 4 6 5 7 14 13 11 11 9 25 29 27 20 20 21 19 17 19 23 29 28 26 23 21 21 22 20 16 14 12 13 14 13 13 11 11 12 13 16 17
2 4 1 3 1 5 4 5 9 7 7 6 10 7 6 8 9 8 10 16 23 21 20 19 19 18 16 14 16 18 19 22 22 21 20 17 12 10 9 8 10 12 11 9 10 10 11 11 13
5 6 4 5 4 4 4 6 5 10 5 3 6 8 7 7 6 8 12 21 26 24 22 20 20 20 18 14 14 13 18 19 13 18 19 15 15 12 9 7 8 8 8 8 8 8 9 11 13
5 3 3 4 3 3 4 5 8 7 5 4 6 5 6 7 5 7 8 18 25 26 25 23 19 16 15 16 15 14 16 19 22 19 15 14 12 11 8 7 8 8 9 9 9 10 11 11 9
2 1 2 2 3 3 4 3 5 2 7 4 7 6 6 6 6 6 5 12 24 27 26 21 20 20 18 18 16 14 15 16 17 16 16 16 13 10 9 7 9 10 8 8 8 9 10 11 10
3 1 1 3 4 4 2 4 4 5 9 9 7 6 5 6 6 2 3 6 12 18 19 20 20 23 23 19 16 11 15 15 14 13 12 10 9 7 6 9 9 7 7 7 7 8 9 12 10
3 5 4 4 4 4 3 4 4 8 7 7 7 6 5 4 5 5 3 4 8 16 19 21 24 26 25 24 17 15 14 15 18 14 9 4 5 6 9 9 6 7 6 7 7 8 10 10 10

GFSSGP_925_spd_096.txt.gz
Wind_Speed
17 13 6 1 3 3 3 6 3 5 6 1 4 5 11 5 3 2 17 23 35 35 31 28 25 23 22 21 16 19 18 22 20 20 21 23 23 23 24 21 20 20 19 19 19 19 19 21 20
16 11 3 1 3 4 5 5 5 13 3 6 7 5 3 4 6 10 12 30 39 36 31 28 26 25 23 21 17 21 20 21 21 20 20 20 21 21 20 19 20 19 19 18 20 22 23 21 19
13 12 4 5 4 11 5 5 5 10 6 5 4 5 3 5 12 10 16 34 38 35 32 30 28 25 24 22 19 22 21 19 20 20 20 20 20 20 19 19 19 19 19 19 21 21 22 20 18
11 1 2 4 8 5 6 4 8 5 6 1 6 6 3 4 5 17 31 36 39 34 31 29 27 24 23 22 20 23 21 20 19 20 20 20 21 21 19 19 18 19 20 19 20 21 20 19 18
6 2 3 4 6 3 6 1 8 8 13 11 6 4 3 4 11 34 34 37 39 35 32 28 26 24 20 20 21 23 21 19 19 20 19 19 20 20 21 19 18 18 19 19 19 19 19 17 16
4 3 4 6 5 6 5 5 6 3 2 4 7 6 3 11 30 27 33 35 38 36 31 27 26 23 19 21 21 23 22 20 18 19 18 18 19 20 20 20 19 19 18 16 17 18 17 15 14
4 4 9 5 8 4 5 3 5 4 4 3 2 9 5 15 15 28 30 35 34 33 31 28 25 22 21 20 19 22 22 21 18 16 16 17 18 18 18 18 18 18 18 16 16 15 14 13 12
3 2 6 3 8 7 5 4 4 5 2 2 3 5 7 11 18 25 29 34 33 31 30 28 26 24 24 19 18 20 22 19 19 16 15 15 15 16 16 16 15 15 15 14 14 13 12 12 10
2 2 5 5 8 5 3 5 2 4 5 3 2 3 13 30 30 27 26 28 28 30 30 29 27 25 23 18 18 19 22 21 19 17 15 13 13 14 13 13 12 12 11 11 10 9 10 9 9
3 3 5 2 4 3 4 5 7 5 2 4 4 10 18 23 37 32 16 21 25 27 31 31 28 26 24 19 17 19 21 21 19 18 16 12 11 11 11 10 9 9 8 8 8 7 7 8 7
2 2 1 6 11 5 5 4 3 10 2 4 10 12 8 13 22 28 32 27 22 28 29 32 29 26 24 20 17 18 19 20 19 17 16 13 13 11 9 8 8 8 7 7 6 6 7 6 5
8 6 6 7 10 6 4 2 4 3 3 7 6 6 7 8 11 23 23 26 27 27 31 32 29 27 24 20 17 17 20 19 18 20 18 16 13 12 10 7 7 7 6 8 6 5 6 5 4
5 3 8 9 13 10 7 7 2 4 6 8 8 4 5 8 8 11 25 25 29 28 30 33 31 28 25 20 18 17 19 18 18 19 19 17 14 14 11 9 8 7 8 7 7 6 6 6 5
5 8 11 12 10 9 3 4 3 3 3 8 7 7 5 5 12 17 18 23 27 30 32 32 31 30 27 20 20 20 20 19 18 17 18 18 16 15 12 11 10 9 8 8 7 7 6 6 8
11 4 9 9 7 6 11 4 3 5 3 6 7 6 5 4 11 15 21 20 24 27 29 34 34 31 28 22 21 21 21 22 21 19 18 15 18 16 13 12 13 11 10 8 8 7 9 10 8
6 6 4 2 5 3 5 5 1 6 7 4 5 5 6 6 8 14 23 24 23 22 23 28 30 29 28 27 25 23 18 25 25 21 20 17 15 16 16 14 13 11 11 11 11 10 10 10 11
2 3 4 3 3 2 5 3 5 4 6 8 6 7 7 6 7 15 15 25 27 28 26 26 25 26 25 26 25 23 19 25 26 24 23 17 20 18 16 16 14 12 12 12 11 12 12 12 12
6 4 2 4 4 4 2 4 6 6 11 10 9 7 7 6 10 22 24 20 22 25 28 30 29 26 25 25 23 20 19 22 22 21 22 19 17 18 19 17 14 13 12 13 13 12 12 12 13
6 9 8 5 11 8 8 5 8 10 12 11 9 8 8 9 12 18 22 28 26 25 27 30 29 29 27 26 25 23 24 22 20 20 22 20 21 19 17 16 14 13 13 14 14 14 14 15 15
2 6 5 3 8 4 5 7 12 12 12 12 10 11 10 6 8 13 19 22 31 31 30 31 32 32 32 33 29 27 28 25 23 22 20 25 26 24 24 20 17 13 11 10 13 15 14 13 12
3 5 5 3 7 2 3 4 11 13 16 11 9 8 9 12 10 9 16 24 31 31 33 33 33 33 32 33 31 28 25 27 24 25 21 20 22 22 22 22 19 17 13 12 15 14 12 13 14
1 2 7 9 8 4 6 4 4 7 13 13 12 10 10 9 6 7 15 21 29 31 32 35 36 35 33 34 32 31 26 25 29 29 26 26 22 22 20 20 22 18 15 16 13 22 17 16 18
2 2 4 4 4 4 5 1 6 2 8 16 10 11 12 12 9 10 13 26 34 31 30 27 30 32 31 32 33 31 29 29 30 30 28 25 25 23 20 20 20 19 19 19 18 23 21 21 19
3 5 7 6 3 1 6 7 4 5 7 4 7 14 15 14 10 9 22 27 28 27 26 23 22 28 28 31 31 30 30 28 27 24 25 27 25 21 20 18 17 17 16 17 17 18 19 19 20
2 3 3 2 3 3 4 4 8 6 8 7 8 10 12 10 9 9 10 12 20 26 26 24 24 23 21 23 29 30 28 27 27 26 26 26 23 17 13 14 14 15 14 12 12 14 15 16 16
5 8 3 5 3 4 5 6 6 10 8 8 8 4 7 9 8 8 9 17 24 27 27 25 21 20 19 16 16 17 21 24 23 22 22 19 17 14 10 11 12 10 10 8 10 12 14 14 15
4 3 4 4 3 3 3 6 8 6 3 2 5 4 3 1 3 9 10 20 25 28 27 26 23 20 17 13 12 12 13 16 18 19 19 18 16 11 16 14 11 13 10 10 12 12 14 15 15
3 5 3 2 5 4 4 4 5 3 7 4 4 5 3 2 4 2 6 13 19 25 26 22 20 19 17 14 13 13 14 14 14 13 15 13 13 14 14 10 11 10 9 9 11 11 13 14 13
3 2 2 3 3 4 1 5 5 7 7 10 8 7 6 4 3 3 3 8 15 16 18 18 18 18 18 18 18 17 16 16 15 14 13 14 13 11 10 10 10 9 10 10 10 12 13 13 14
4 6 7 4 5 2 3 5 4 1 6 6 6 5 4 4 3 5 4 6 7 12 16 20 20 21 22 22 21 21 20 19 17 17 10 7 11 13 13 11 9 9 10 11 12 13 13 13 13

GFSSGP_925_spd_099.txt.gz
Wind_Speed
20 14 9 3 3 3 4 7 2 6 5 5 3 4 7 2 5 4 13 19 33 35 31 27 24 23 20 17 17 18 21 20 22 24 25 25 24 23 21 19 19 19 19 19 19 18 18 18 15
20 16 4 2 3 4 5 5 8 7 4 5 5 3 1 2 4 9 14 29 37 35 31 28 25 23 20 17 18 19 19 21 21 23 24 23 23 20 20 19 19 19 19 19 19 20 19 18 14
22 14 3 5 4 11 5 5 6 12 10 2 3 2 1 4 9 13 18 34 35 34 31 28 26 25 21 18 19 19 19 20 20 21 22 22 20 19 19 19 19 18 18 20 22 21 19 15 13
14 6 2 4 7 7 6 5 6 12 7 7 4 1 2 4 6 15 31 34 36 33 31 29 27 26 24 18 20 19 19 18 19 20 21 21 20 19 19 18 20 21 21 21 21 20 17 15 15
8 0 10 5 8 3 4 3 9 15 19 17 2 5 3 7 11 32 33 34 36 33 31 29 27 25 23 20 22 20 18 18 18 19 18 20 19 18 18 18 20 21 21 20 20 19 16 14 14
6 1 8 12 7 4 5 3 6 12 17 20 5 6 3 8 28 29 37 31 35 33 30 28 26 24 22 22 23 22 18 18 18 19 19 19 18 18 17 16 15 16 18 18 18 17 14 12 11
9 5 9 8 10 7 4 8 5 8 15 11 1 4 5 8 20 31 31 33 31 31 29 27 25 22 21 23 25 22 20 18 18 19 19 20 19 18 16 15 14 13 14 16 16 14 11 10 9
4 1 16 6 8 7 6 2 6 3 4 1 3 6 7 10 27 27 29 33 30 28 28 27 24 23 23 23 26 24 21 19 17 17 18 18 19 17 16 14 13 13 14 13 13 12 9 8 7
6 5 13 7 15 7 5 5 3 2 7 3 2 3 14 33 35 27 22 23 25 25 27 27 23 23 22 22 24 25 21 20 17 17 16 17 16 16 15 14 13 11 11 10 9 9 8 7 7
7 3 3 5 2 5 6 6 11 4 4 2 6 13 25 28 33 30 24 17 20 21 25 26 24 25 22 21 23 25 23 23 20 18 17 15 14 14 13 11 10 9 8 7 7 6 6 6 5
6 7 2 4 5 2 5 5 2 12 1 5 13 18 17 20 21 27 27 20 23 24 24 27 26 26 24 22 23 25 25 23 22 19 17 15 14 14 12 10 10 9 8 7 6 6 6 6 5
7 10 3 2 6 5 4 2 6 2 5 5 12 19 13 17 15 23 28 13 21 26 28 30 28 29 25 22 23 25 26 24 22 21 18 16 16 14 12 9 8 8 7 7 5 5 5 5 5
11 15 5 5 9 17 5 6 5 5 4 8 9 11 15 17 15 22 33 43 28 26 27 33 31 30 27 24 22 24 25 25 23 22 19 17 16 13 11 9 8 8 7 7 6 5 4 5 5
7 10 13 7 10 13 7 5 3 5 3 7 6 8 7 12 17 17 25 26 21 24 29 34 34 32 29 27 23 24 25 23 22 22 21 18 14 13 11 11 10 8 7 7 6 6 5 5 7
4 5 8 16 10 8 9 6 6 4 2 4 3 4 6 8 16 19 24 31 45 37 33 38 36 34 32 29 25 23 24 23 23 23 21 19 16 15 13 12 12 10 8 8 8 7 7 8 8
4 5 4 12 11 7 8 3 4 6 7 6 4 1 1 6 9 17 20 23 35 32 37 38 38 38 35 32 26 25 22 23 23 22 20 19 17 17 17 14 13 10 10 10 9 8 8 7 8
1 4 6 7 9 6 9 3 7 6 7 6 5 5 4 5 4 14 24 24 27 35 36 36 37 35 35 31 29 26 25 24 23 23 22 20 17 18 18 16 14 12 11 10 10 9 9 10 10
4 5 5 6 2 5 8 8 10 6 5 5 5 4 5 5 10 14 15 24 25 26 27 28 31 36 34 30 24 22 23 17 24 25 25 23 21 20 18 18 16 13 12 11 10 10 9 10 10
5 6 10 8 8 3 4 5 16 9 7 8 8 7 6 8 7 14 14 16 21 27 28 27 26 28 28 27 24 23 23 21 19 26 25 26 23 24 21 19 17 15 14 12 11 12 12 12 12
5 6 3 6 14 5 10 8 10 12 10 6 6 9 8 5 7 8 13 16 20 23 27 26 27 29 29 29 29 27 26 22 21 21 22 25 27 26 23 19 18 19 18 16 15 13 13 12 12
2 2 1 4 10 2 8 4 7 9 14 10 10 8 7 12 11 8 12 20 22 24 26 26 29 32 31 30 29 25 20 20 22 25 24 24 27 27 27 24 22 22 19 17 13 13 13 14 9
1 3 5 8 7 3 3 3 4 10 12 14 15 10 10 9 7 7 9 16 23 27 29 29 27 29 33 31 31 30 24 20 29 31 29 25 24 25 28 26 26 25 19 18 18 17 14 16 13
3 4 5 6 4 5 2 1 6 1 11 17 16 10 10 10 9 10 10 21 28 28 28 28 27 25 24 26 28 29 28 29 28 26 31 30 25 22 23 23 22 23 18 15 14 17 17 16 14
1 5 7 5 3 2 6 5 4 5 8 6 8 11 11 11 10 9 18 21 21 28 27 26 24 24 24 26 24 27 29 27 25 24 22 23 22 22 21 17 14 13 14 13 16 19 16 17 14
3 5 2 1 3 4 3 4 7 4 6 7 9 10 10 12 11 9 8 10 19 21 26 24 23 24 24 25 23 24 26 26 26 26 23 22 22 17 13 11 12 12 11 10 12 13 15 16 13
4 6 4 6 3 2 2 6 6 6 5 7 8 8 7 9 8 8 9 15 20 23 27 25 24 24 22 20 21 22 22 24 23 22 21 19 21 18 15 12 4 9 7 8 9 10 14 13 13
4 3 6 3 1 3 4 6 8 9 7 3 6 5 4 3 7 9 10 18 23 22 24 25 24 21 18 17 15 15 14 17 18 18 16 16 18 17 13 11 9 10 12 9 9 10 11 14 15
4 6 4 0 4 4 3 4 5 3 6 2 4 6 3 3 6 4 3 11 20 23 21 18 20 19 16 14 13 13 12 13 13 14 15 16 16 14 13 11 10 9 10 11 11 11 12 14 13
2 2 2 4 2 4 2 5 6 7 5 8 8 4 1 4 4 4 3 2 8 12 15 15 16 16 16 15 13 12 12 13 14 14 16 16 14 12 11 10 9 8 10 10 10 10 11 13 12
2 2 4 3 4 1 3 5 4 5 7 6 5 3 1 2 2 2 3 4 6 8 9 11 12 14 14 15 14 14 14 15 17 18 18 17 18 15 9 6 7 7 9 10 9 9 10 11 10

GFSSGP_925_spd_102.txt.gz
Wind_Speed
20 20 16 5 3 1 4 7 2 6 5 6 4 4 7 2 6 5 12 16 34 36 32 27 24 23 19 16 22 20 16 22 24 24 25 25 24 21 20 19 19 20 20 20 20 19 17 16 16
22 19 11 3 4 5 5 5 15 10 6 8 5 2 3 3 1 8 14 31 38 36 32 28 26 22 19 18 23 21 19 22 24 26 27 25 23 21 18 19 20 20 21 20 20 18 16 15 14
21 22 5 5 8 14 6 7 7 6 13 6 5 1 3 4 5 14 18 33 37 35 33 29 26 22 20 20 23 22 20 23 24 25 25 22 21 20 18 19 19 19 19 21 20 18 16 15 17
7 7 5 5 19 19 9 7 7 9 6 3 3 6 3 2 10 11 32 35 37 34 32 29 26 22 20 20 21 22 20 20 23 24 21 20 19 18 18 18 18 18 20 20 18 16 16 15 15
9 4 3 6 19 22 5 4 9 9 11 9 1 2 3 4 8 28 34 33 33 34 31 29 26 23 20 20 19 21 19 18 20 21 21 18 18 18 18 18 17 17 18 17 16 15 16 15 13
5 3 4 11 20 11 7 6 7 9 17 13 6 4 2 5 26 29 31 28 30 34 30 29 26 24 20 20 19 18 20 19 19 20 20 18 19 18 18 18 16 16 16 16 14 13 13 12 11
6 5 5 5 23 2 9 9 9 8 14 13 8 3 2 7 22 29 31 28 30 32 29 27 26 23 21 21 20 17 18 20 21 22 22 20 20 19 18 18 17 14 15 15 13 12 10 10 9
2 3 15 6 4 4 5 4 10 18 17 5 7 5 4 3 25 31 30 32 29 30 28 27 25 22 21 22 21 19 18 19 21 22 22 21 20 19 18 17 16 14 15 14 13 10 9 7 6
1 1 4 11 6 7 3 6 1 5 10 4 17 6 5 25 27 30 27 25 25 26 26 25 23 21 21 24 20 20 18 18 19 20 21 21 21 19 18 17 16 15 14 13 11 9 8 6 5
3 4 6 6 9 6 4 5 10 7 6 8 11 8 21 26 27 22 20 21 21 22 24 25 21 20 21 25 23 21 21 19 18 19 20 19 18 18 17 15 14 13 12 11 10 8 7 6 4
5 5 3 9 5 11 4 2 3 15 5 7 23 21 19 21 29 21 19 26 21 20 22 24 21 21 20 22 26 23 23 21 19 18 19 18 17 16 15 14 13 11 10 9 8 7 6 5 4
5 6 17 4 6 5 4 2 4 4 2 9 22 23 18 15 10 19 19 20 31 23 23 25 22 24 21 21 25 26 23 25 22 21 19 19 18 16 14 13 12 10 9 7 6 5 5 5 4
4 5 14 15 13 4 4 3 5 5 7 12 24 25 18 13 18 27 24 24 25 24 24 27 25 25 23 21 24 27 26 25 24 22 20 18 18 16 14 12 11 10 8 8 6 5 4 3 2
5 12 17 14 8 11 5 4 2 6 7 8 19 21 23 21 15 24 23 24 29 23 22 25 26 27 26 24 24 26 28 26 24 24 21 19 18 16 13 12 10 9 8 8 7 5 3 3 3
5 5 14 9 11 7 9 6 6 7 5 6 6 11 13 17 17 18 21 25 26 29 19 24 30 29 28 26 24 25 26 27 26 24 21 20 18 16 13 12 11 9 8 8 8 7 5 5 5
5 5 6 12 17 4 4 4 6 9 9 9 6 4 7 15 22 20 22 29 21 28 29 17 23 32 31 30 27 24 25 25 25 23 23 21 18 15 14 13 12 10 10 10 9 7 6 5 4
4 2 3 9 12 6 9 3 6 7 8 8 8 5 2 4 10 22 28 30 34 37 31 25 29 31 33 34 29 26 24 25 24 22 23 22 20 18 16 15 13 12 12 12 10 9 7 6 6
5 2 5 5 7 10 10 8 8 7 7 6 6 7 5 1 6 12 24 31 38 33 31 37 35 33 28 31 29 26 25 25 24 23 23 23 22 20 20 19 17 16 14 13 12 11 9 7 6
2 4 4 4 5 7 7 8 8 7 8 8 6 5 5 6 1 8 13 25 31 36 33 34 34 28 29 19 22 26 26 27 26 26 26 26 25 24 23 22 20 19 18 16 15 14 14 11 8
3 5 4 8 12 7 10 6 9 5 5 5 6 7 6 4 5 4 8 20 28 33 37 39 37 38 40 38 28 26 33 32 29 23 26 28 28 28 26 23 23 22 20 20 19 17 12 9 9
1 4 4 4 8 1 7 3 6 6 5 11 9 8 5 8 8 6 8 15 21 24 28 31 32 36 38 36 34 33 28 28 25 25 23 25 28 32 28 27 24 22 20 20 16 14 11 8 8
1 3 2 7 4 0 3 1 5 10 9 13 14 9 9 8 6 6 8 13 18 22 24 24 28 29 30 30 32 31 28 25 29 30 27 26 26 28 28 27 25 23 20 20 13 13 8 9 11
2 2 5 4 3 2 2 0 4 9 10 21 17 10 8 9 9 9 9 20 23 20 20 21 22 21 22 24 25 26 27 22 24 22 19 21 23 23 23 23 25 22 19 15 10 7 6 12 12
4 5 7 5 2 2 6 4 3 5 13 12 17 11 9 9 9 9 17 21 20 18 20 19 20 22 21 20 22 23 24 24 21 19 16 16 20 20 20 19 18 15 12 5 4 12 15 14 12
3 4 1 0 2 3 3 4 7 4 5 6 9 10 10 8 7 8 9 11 19 20 21 23 20 19 18 17 18 19 19 18 18 17 16 16 16 19 18 16 13 13 12 12 16 12 10 10 10
3 5 4 5 3 2 1 6 6 5 5 6 8 7 4 5 7 9 10 18 24 23 21 20 22 20 18 18 18 17 16 15 15 16 16 16 17 17 15 15 16 16 14 13 10 9 7 7 9
2 2 3 6 2 2 4 6 8 8 9 6 7 4 4 4 5 8 7 14 21 20 19 21 22 19 16 15 14 14 14 15 15 14 15 14 13 16 17 17 16 13 12 9 6 4 4 7 9
3 5 3 2 3 4 3 4 5 4 5 3 5 3 3 4 5 5 1 5 6 11 15 15 16 16 14 14 14 13 11 11 11 11 12 13 17 20 20 17 13 9 6 5 5 4 5 6 8
2 2 1 3 3 4 1 5 5 5 5 5 7 1 4 4 4 5 6 7 3 5 8 11 12 14 14 13 12 11 10 10 9 9 10 14 19 19 17 13 11 8 7 5 3 4 6 7 9
2 3 4 3 3 2 3 5 2 5 7 6 2 5 2 3 3 4 6 6 5 7 8 11 13 14 13 12 10 10 10 11 12 12 14 16 17 16 15 14 12 9 4 2 3 5 6 7 7

GFSSGP_925_spd_105.txt.gz
Wind_Speed
21 22 17 5 5 3 14 10 7 12 11 5 5 5 9 4 9 3 7 13 32 32 29 27 25 22 20 23 21 22 26 26 25 26 26 25 23 22 21 20 21 21 20 20 20 19 18 18 18
22 19 10 4 7 10 13 14 17 12 10 12 2 4 3 4 2 7 12 21 32 32 29 26 25 22 19 24 21 21 27 27 26 26 27 25 22 21 21 21 22 21 20 20 18 16 16 16 16
21 21 4 6 8 17 15 12 12 11 9 11 7 1 3 2 4 16 13 29 31 30 28 27 26 21 22 25 23 21 25 26 27 27 27 25 22 21 21 21 22 21 21 19 17 16 18 17 16
10 6 4 7 22 17 20 13 13 12 5 9 3 3 1 3 12 12 29 32 30 29 27 29 25 22 23 29 24 24 25 25 25 26 25 23 21 22 22 21 23 23 21 19 17 16 18 18 16
10 5 12 13 17 17 19 6 15 17 12 12 11 3 3 2 5 26 31 33 30 28 27 27 24 22 23 30 25 24 26 27 26 22 22 21 21 21 22 21 21 22 20 17 17 17 17 15 14
5 2 9 10 11 23 16 17 12 14 16 15 11 4 3 3 18 30 32 32 29 29 26 26 25 23 22 28 28 23 24 25 24 21 19 20 21 22 22 21 21 22 20 17 16 16 15 13 12
6 7 3 2 14 13 20 19 9 15 16 18 17 7 4 8 24 31 31 31 28 27 27 27 24 23 22 22 25 25 22 21 22 21 19 22 22 21 21 20 20 20 20 17 16 14 13 12 11
4 3 4 7 7 16 13 9 5 12 17 14 14 9 5 5 28 28 29 31 28 29 28 28 26 22 22 20 20 21 23 22 22 20 21 21 21 21 21 19 19 18 19 17 15 13 12 11 9
3 5 2 13 6 8 6 16 1 2 9 2 8 8 8 15 33 29 30 28 27 27 28 28 27 24 23 21 19 18 20 22 23 22 22 22 19 19 20 19 18 17 17 17 14 11 10 9 9
2 4 2 10 8 5 9 9 9 4 6 4 7 12 16 12 33 29 26 26 26 27 28 27 27 24 23 22 21 19 19 20 22 22 22 22 21 21 20 19 17 17 15 15 13 11 10 8 6
3 4 5 9 12 5 12 10 3 9 11 12 18 16 13 13 14 26 21 24 25 28 27 24 25 23 24 25 23 20 19 18 19 20 21 21 21 20 19 19 17 16 14 14 12 10 9 8 7
3 7 6 13 13 7 21 7 5 9 2 13 18 20 24 25 13 12 6 23 24 25 28 27 24 24 23 26 23 22 20 19 19 20 21 21 20 19 18 17 16 14 13 11 10 9 8 8 7
1 4 8 14 15 13 15 14 5 3 9 9 17 16 19 17 23 22 13 18 20 25 27 27 24 25 23 24 26 23 21 20 20 20 19 19 19 18 17 15 13 12 11 10 9 8 8 7 5
5 8 13 13 18 21 13 14 2 5 14 12 23 21 17 21 18 21 24 25 23 23 27 30 23 24 24 22 24 26 24 22 20 20 19 18 17 16 14 13 12 11 9 9 8 7 6 6 5
7 3 11 9 16 10 2 11 4 11 9 15 22 20 19 21 27 23 35 34 30 28 26 29 25 23 25 23 23 25 26 24 21 21 20 18 17 16 13 12 11 10 9 9 9 7 6 5 4
5 6 5 5 16 13 11 11 4 10 8 10 2 12 13 14 22 25 21 22 30 30 31 25 24 23 23 22 22 23 25 26 26 24 23 21 19 18 15 13 12 11 11 10 10 9 7 7 5
1 3 3 8 10 13 7 4 4 7 11 9 6 1 9 17 15 26 26 25 28 33 32 26 20 17 21 23 21 21 21 24 26 25 24 23 22 20 18 16 14 13 13 13 12 11 10 9 7
7 6 5 4 3 13 11 4 5 5 9 6 5 2 2 7 10 15 23 24 28 30 32 30 14 13 16 17 23 23 20 21 24 25 24 25 25 22 20 19 17 15 15 15 15 14 12 10 9
4 9 4 3 5 8 7 11 7 6 3 5 4 3 2 3 1 11 16 27 27 19 19 19 19 16 14 20 20 18 19 20 23 25 24 26 26 24 24 23 20 19 19 18 17 16 14 13 8
3 7 3 1 8 8 5 14 8 3 3 2 2 2 2 3 3 5 15 21 27 26 26 24 32 35 25 20 14 15 15 19 25 26 26 29 27 26 26 26 24 23 23 21 19 17 12 11 9
1 4 5 5 7 0 2 7 5 1 2 4 4 3 3 6 7 7 9 18 23 29 32 32 32 29 27 24 23 14 14 22 21 24 27 30 32 32 28 27 26 25 26 25 21 19 15 5 1
2 1 4 8 8 1 2 2 4 4 6 3 6 5 7 6 4 5 8 12 19 29 34 39 37 32 27 38 29 31 25 20 22 21 16 36 24 27 26 25 24 25 24 23 17 15 9 4 5
3 2 6 4 2 3 3 1 5 5 5 8 11 8 9 8 8 8 7 16 20 20 23 28 29 34 39 37 33 38 41 36 37 28 35 37 22 24 23 23 24 24 25 23 20 15 8 11 13
4 5 6 4 2 1 5 5 4 6 5 5 4 11 9 9 8 8 13 9 13 14 18 19 19 24 34 33 31 32 35 31 29 27 26 26 23 21 21 20 20 21 23 21 20 19 17 17 18
1 3 1 2 2 3 3 4 6 5 4 6 7 6 6 6 9 7 8 8 12 17 16 18 20 22 23 23 23 24 23 22 19 17 16 16 14 15 16 16 16 16 18 20 18 18 16 15 16
4 3 4 5 4 2 2 6 5 6 5 6 6 5 4 8 6 5 8 13 17 18 18 19 20 21 20 19 20 20 17 16 15 14 13 14 14 14 14 15 14 17 19 17 15 14 13 10 9
1 4 2 5 2 1 3 4 10 5 7 6 5 4 4 3 3 7 9 14 18 22 22 19 18 18 16 18 16 15 14 15 15 13 12 13 13 14 16 17 18 19 18 16 14 11 10 9 7
3 1 2 2 4 3 3 4 5 5 6 5 3 3 4 5 4 1 3 9 15 20 19 14 14 16 17 16 15 14 12 12 11 11 12 14 14 16 20 22 22 20 17 15 12 11 8 6 4
1 2 1 1 2 3 2 4 4 4 4 6 4 3 2 5 3 3 3 3 7 7 10 12 13 17 17 17 14 12 11 10 10 10 11 13 16 21 22 21 19 17 15 13 11 9 7 5 3
3 1 2 3 4 1 2 4 2 4 6 4 4 5 3 3 4 3 5 9 9 8 10 12 13 13 13 13 12 12 11 11 11 11 13 14 18 20 20 18 17 15 13 10 7 6 4 3 3

GFSSGP_925_spd_108.txt.gz
Wind_Speed
20 21 13 7 8 10 26 31 21 25 29 21 8 14 19 8 11 2 3 17 31 32 31 30 27 23 22 22 22 22 29 28 25 26 25 25 23 22 21 21 22 22 20 19 19 20 19 19 17
19 21 9 4 9 18 23 32 31 23 23 19 12 7 12 12 2 8 12 18 31 32 30 27 26 24 23 22 23 26 30 28 27 26 25 24 23 22 21 22 23 22 21 19 17 18 16 16 15
18 22 4 6 16 24 26 28 24 23 22 22 12 8 2 3 4 11 9 27 31 31 29 27 26 24 24 22 24 27 30 28 27 27 26 25 23 22 22 23 23 21 21 18 16 15 16 15 14
8 8 6 13 21 22 35 24 24 22 15 21 18 8 4 2 5 9 25 30 30 30 28 28 26 24 26 23 26 29 28 28 28 28 26 23 22 23 24 25 24 22 21 18 19 18 18 15 14
9 5 15 9 36 22 26 26 25 27 19 21 21 12 5 3 3 14 28 31 31 29 27 27 26 27 29 24 26 28 28 28 29 28 25 23 22 22 22 26 25 23 20 19 20 18 17 14 14
5 4 13 18 13 24 21 28 25 29 25 19 21 18 6 5 13 21 27 30 31 29 29 26 25 28 31 26 26 28 29 29 29 27 24 23 22 22 22 25 25 23 18 19 19 18 16 13 14
8 12 15 22 17 21 18 26 15 24 26 23 15 22 10 10 17 25 27 29 30 29 28 27 24 25 32 27 27 28 30 29 25 23 23 23 23 23 22 24 24 22 19 19 17 16 14 13 12
6 7 23 10 10 12 21 22 24 19 23 18 22 12 19 10 20 27 27 29 30 30 28 27 26 24 27 25 26 27 26 25 24 21 22 23 22 22 22 23 21 21 18 17 16 14 13 12 11
9 8 14 10 14 9 12 20 22 13 15 15 22 10 14 27 26 29 28 27 28 29 29 28 28 27 25 25 24 25 23 22 21 21 22 21 18 18 18 17 20 19 17 16 14 13 11 10 9
8 10 10 4 8 11 13 14 22 22 17 14 18 4 17 21 29 26 27 25 27 27 28 28 28 28 26 24 23 21 19 18 17 19 21 19 18 16 14 16 17 17 16 14 12 10 10 8 6
6 9 11 7 9 13 18 19 17 24 20 17 22 17 17 18 26 11 23 25 27 25 25 27 27 27 25 25 24 21 20 19 19 19 19 17 17 16 15 14 13 12 14 10 9 8 6 6 5
7 6 3 4 8 17 11 19 17 23 26 12 20 20 19 16 18 2 14 9 18 23 25 24 25 25 23 24 22 21 20 19 19 19 18 17 15 16 15 14 13 11 11 10 9 8 7 7 6
5 6 3 6 9 15 16 19 14 16 14 12 17 17 18 15 22 25 22 9 8 20 24 24 24 23 24 21 21 19 19 17 17 17 17 15 14 15 14 13 12 11 10 9 8 7 7 6 5
7 7 8 12 16 12 16 15 16 10 11 14 16 19 18 18 18 22 24 20 18 26 25 23 22 21 23 23 20 19 19 17 16 15 15 15 14 14 13 12 11 10 9 8 8 8 8 7 6
7 7 4 9 9 8 19 11 14 15 14 14 18 16 18 19 25 28 30 28 25 26 28 25 23 21 22 21 21 18 18 18 16 14 14 14 13 12 11 11 10 10 10 9 9 8 7 7 6
5 4 4 3 11 5 6 11 16 8 10 12 21 19 21 21 23 27 28 32 23 28 25 26 22 22 21 19 19 18 17 15 17 15 14 14 13 13 11 10 10 10 9 9 9 8 7 8 7
6 4 6 5 5 4 7 13 4 5 3 4 12 15 19 19 18 22 24 25 27 27 30 27 25 22 21 19 17 15 16 16 14 16 15 15 14 15 13 11 11 11 10 9 9 9 8 8 8
6 6 7 9 4 3 5 10 6 2 1 7 9 10 9 18 20 22 24 22 29 27 29 28 24 21 19 17 15 13 13 13 13 15 15 16 17 17 16 14 13 13 12 11 11 10 9 8 7
4 6 8 2 6 1 2 10 15 1 5 5 8 7 9 7 5 22 19 20 24 30 25 21 23 22 21 20 17 13 14 13 12 12 13 15 16 17 17 15 14 15 14 14 13 11 10 9 6
3 5 5 2 0 4 1 12 13 3 5 6 9 8 10 11 10 10 17 23 18 24 23 21 18 21 24 17 17 11 11 8 9 9 11 12 14 15 16 17 16 16 15 15 14 14 11 10 8
1 2 4 1 3 7 6 6 3 4 6 6 6 9 8 10 15 16 21 23 10 21 25 24 23 21 21 19 17 12 6 5 4 8 9 13 15 16 17 17 17 17 20 20 17 13 12 10 6
2 2 4 6 7 2 1 1 10 9 9 9 12 12 12 11 10 13 17 20 25 31 20 26 20 14 23 20 12 6 5 11 9 16 13 14 18 19 16 19 24 26 25 23 21 18 17 14 10
3 3 3 6 2 3 4 5 8 10 7 11 13 12 12 13 12 10 9 19 23 33 40 29 32 28 16 11 13 23 18 26 26 20 17 16 15 16 15 22 32 28 26 21 22 21 19 20 19
2 4 5 4 3 4 4 5 5 8 14 15 11 9 12 13 12 11 12 9 13 18 29 29 29 31 36 36 36 32 30 29 25 25 25 21 23 23 25 35 36 29 27 24 23 24 27 24 19
6 6 3 4 3 3 2 5 7 3 4 4 6 11 10 10 11 12 13 13 14 20 19 17 20 24 35 39 42 39 35 36 38 35 29 30 29 31 34 34 28 24 21 20 21 30 28 27 21
8 4 3 5 4 2 2 4 1 6 2 4 5 7 7 9 11 9 8 10 14 15 16 18 19 17 18 25 32 31 34 33 33 33 35 32 34 32 29 25 20 17 16 20 25 27 23 21 17
1 6 3 1 1 3 2 4 9 5 2 2 4 5 6 7 11 9 6 11 16 15 18 19 18 18 18 18 19 21 23 23 27 27 26 25 24 22 19 21 18 17 19 21 22 19 18 18 15
3 2 2 3 5 5 3 4 5 10 10 7 6 2 3 2 5 4 5 11 12 10 13 16 18 18 17 16 15 15 14 15 15 13 15 16 17 18 19 21 20 20 20 19 18 16 15 12 11
1 3 3 2 4 2 3 3 5 7 8 8 5 4 3 3 4 2 3 4 4 10 14 14 14 15 16 15 14 14 14 15 14 12 15 15 15 16 19 20 20 19 18 17 15 14 12 10 9
1 3 5 4 3 0 6 4 8 9 8 6 3 5 5 4 4 4 4 5 2 5 11 13 12 14 13 13 13 13 13 13 12 12 13 14 16 18 21 22 20 18 17 15 13 12 11 8 8

GFSSGP_925_spd_111.txt.gz
Wind_Speed
14 14 8 6 6 8 27 40 28 34 33 30 24 20 22 22 20 6 4 16 30 31 31 30 28 25 23 21 22 26 25 27 26 25 26 24 22 21 22 23 21 21 19 21 21 19 18 17 17
11 12 5 3 9 16 25 36 37 28 31 25 26 14 19 21 5 10 13 14 28 33 33 28 28 25 24 23 23 29 27 27 26 26 26 25 23 21 21 22 24 21 19 22 21 19 17 15 15
10 10 2 5 12 22 35 29 27 28 24 25 24 13 14 18 12 13 7 23 30 32 31 28 28 27 26 24 25 31 28 27 26 26 26 25 23 20 20 24 24 23 19 18 19 17 16 14 14
5 4 4 10 23 30 38 25 24 29 26 18 21 18 3 9 11 14 20 29 29 29 29 30 28 27 25 25 27 32 29 28 27 27 28 25 24 22 20 23 22 20 20 18 17 17 15 14 15
10 4 13 18 21 32 23 30 31 23 26 22 19 19 18 6 7 15 26 29 30 28 27 27 28 26 25 25 29 33 28 28 28 29 28 26 25 25 23 23 21 21 19 20 19 18 15 15 15
7 6 13 22 32 21 28 21 32 24 21 27 18 18 13 13 14 20 28 27 30 28 28 26 26 26 25 27 31 31 28 29 29 29 27 25 27 25 26 23 22 19 20 19 18 17 15 15 15
16 13 19 23 25 29 21 22 28 17 28 25 23 22 11 14 18 25 26 26 27 26 26 24 23 25 23 26 30 29 29 29 29 28 24 24 25 25 27 22 21 17 19 19 17 15 13 13 12
11 13 24 23 22 29 13 20 25 25 27 30 21 20 15 15 21 27 26 23 26 29 26 24 24 24 22 23 28 29 29 29 28 26 25 24 23 24 23 22 19 15 17 16 16 13 12 11 10
13 9 15 25 23 23 4 13 20 24 17 32 16 26 13 31 27 29 27 19 24 28 26 24 25 27 24 23 28 30 31 28 23 23 24 24 20 20 23 20 18 16 14 14 13 12 11 10 9
10 12 21 15 6 9 7 11 15 18 25 27 13 16 26 36 30 26 27 20 25 27 28 25 25 28 27 23 29 29 28 25 22 22 23 19 20 19 18 17 19 15 14 13 12 10 9 8 4
12 14 18 9 4 7 12 14 19 17 25 21 15 9 22 20 22 23 29 19 29 29 28 27 28 27 27 23 23 22 22 19 18 20 21 19 20 19 17 17 18 16 14 10 9 9 7 4 5
8 19 10 6 1 3 6 16 15 23 30 10 12 33 18 23 19 16 24 16 11 18 26 28 28 30 25 23 24 23 21 21 21 22 21 21 19 19 17 17 15 13 13 10 9 8 7 7 6
16 7 4 4 6 3 7 16 18 21 15 15 22 30 23 21 18 20 18 17 15 23 21 26 28 29 27 25 23 22 21 21 21 23 20 19 17 18 16 15 14 13 12 10 9 8 8 7 7
6 7 7 5 7 5 5 19 10 17 19 14 20 28 21 22 19 14 8 9 22 24 23 25 27 27 29 25 23 21 21 20 20 20 19 18 17 16 15 14 13 11 10 9 8 7 7 7 6
4 8 8 5 2 5 9 12 17 19 16 13 18 12 14 16 21 18 20 11 23 27 30 26 27 28 27 27 24 24 23 21 20 19 19 17 16 16 15 13 12 11 10 9 8 8 6 6 6
8 12 10 12 6 4 4 12 12 12 14 16 15 12 17 17 18 23 22 26 30 24 31 28 26 25 25 25 26 20 19 21 18 18 18 16 15 15 14 13 12 11 10 10 9 9 7 6 6
11 8 12 8 9 6 5 9 6 13 16 13 11 15 17 16 17 19 22 27 35 29 32 30 26 25 25 22 22 22 20 20 17 16 16 16 15 15 15 12 11 11 10 10 10 9 9 8 8
9 16 12 17 7 3 6 11 7 14 11 12 11 17 17 18 19 19 21 22 25 27 32 33 30 24 23 22 19 18 20 18 16 16 14 16 14 14 13 10 10 11 10 9 9 9 9 7 8
11 12 13 2 5 5 9 7 7 12 7 10 11 11 15 15 16 19 19 20 19 17 13 27 31 28 25 24 21 19 19 17 14 14 15 16 15 14 14 12 12 11 10 10 10 9 9 8 6
9 9 6 3 1 4 7 10 11 8 9 9 11 13 15 12 15 15 16 12 14 17 16 6 23 30 27 25 22 18 18 16 14 14 13 12 12 13 15 14 12 10 11 11 12 12 9 10 9
5 10 3 9 3 8 9 15 10 8 9 7 8 10 17 17 16 9 11 13 8 11 11 9 5 20 21 22 21 20 17 15 12 13 13 14 13 14 14 14 12 9 10 12 11 13 13 10 9
14 4 7 5 7 3 2 4 13 12 14 13 12 12 12 14 14 15 12 20 30 24 13 14 16 16 16 19 22 28 17 15 11 10 8 10 10 13 14 16 15 18 13 12 14 18 16 14 12
6 9 9 9 9 8 4 5 9 12 13 15 14 12 12 10 8 17 19 22 25 28 31 31 29 22 20 21 17 16 15 14 14 14 8 6 6 10 11 16 13 13 15 15 18 18 20 19 21
11 10 7 6 4 4 3 2 9 8 12 13 15 16 15 14 12 10 15 19 23 21 23 27 30 28 26 22 22 19 18 20 16 13 9 11 17 17 18 16 16 16 13 18 28 28 29 27 27
9 9 3 3 3 2 5 4 6 6 4 5 10 11 13 15 14 13 11 10 14 19 27 28 32 35 36 37 34 27 25 23 18 15 15 12 25 29 35 26 27 24 20 26 31 30 28 25 28
10 9 5 4 2 1 3 2 4 3 6 5 2 2 6 8 11 12 12 13 16 19 19 26 28 28 29 31 36 34 28 21 13 22 19 31 37 27 29 33 31 29 27 26 29 27 29 28 28
4 4 8 6 3 3 4 4 9 13 7 1 2 2 1 3 6 8 11 15 18 20 21 23 23 31 36 40 39 43 39 31 31 37 38 37 31 31 34 32 24 24 23 22 22 25 26 23 16
4 1 2 1 3 4 5 1 8 12 10 7 5 3 6 3 2 6 5 5 9 13 17 21 22 21 20 21 22 26 29 30 34 31 30 31 29 30 29 24 22 22 18 19 21 19 17 16 12
4 3 4 1 4 3 2 6 8 10 9 8 5 7 8 8 5 4 4 6 6 6 8 11 15 17 17 18 16 18 16 20 22 25 22 24 24 24 24 23 23 21 20 19 19 16 16 14 14
6 5 4 3 4 2 3 4 9 12 11 7 8 7 7 8 7 7 7 6 5 7 9 10 13 15 15 16 16 15 16 19 21 18 21 20 20 21 23 23 23 22 20 18 17 17 16 14 10

GFSSGP_925_spd_114.txt.gz
Wind_Speed
8 7 3 2 4 6 24 34 14 18 26 15 21 13 20 15 8 6 25 19 37 40 42 35 31 28 26 25 26 26 27 26 25 23 23 22 22 21 23 21 20 21 22 22 20 20 20 19 18
6 5 3 1 5 12 29 21 26 14 15 20 17 24 24 16 4 8 13 25 39 36 42 36 32 30 27 25 27 26 28 27 26 26 25 25 24 23 22 20 21 22 24 22 20 19 18 19 18
5 4 2 3 10 25 34 9 15 16 16 17 22 18 23 1 6 15 20 31 38 34 34 32 32 31 26 25 28 26 28 27 26 25 26 26 25 23 24 22 20 23 24 21 19 18 16 17 17
6 5 1 6 22 35 31 12 16 19 18 19 19 17 8 10 5 12 23 33 39 35 30 31 31 30 27 24 29 28 29 28 26 26 26 27 25 26 27 24 20 19 20 19 17 16 16 16 18
9 2 8 10 24 25 24 17 26 24 23 23 21 15 9 11 11 21 23 36 35 33 30 31 30 30 27 26 29 28 29 28 27 27 28 26 26 25 26 24 21 18 17 17 16 15 16 17 18
4 3 7 18 24 26 21 19 19 26 19 25 21 9 9 22 20 18 22 31 32 32 31 31 29 29 27 26 31 29 28 28 28 29 29 26 26 25 25 22 19 17 18 18 16 14 15 16 17
10 9 14 17 19 21 25 19 13 16 17 27 16 16 3 9 23 26 25 27 29 33 29 28 29 26 26 27 32 29 28 28 29 30 27 26 26 25 26 23 21 19 17 17 15 14 14 14 14
8 6 18 16 19 24 23 19 22 18 18 22 19 7 11 1 28 30 27 27 29 32 30 28 27 27 25 29 31 29 28 28 30 29 25 25 26 27 24 22 19 21 18 16 14 14 13 12 11
7 4 8 20 20 22 17 4 15 8 9 21 18 14 17 26 28 27 29 25 30 29 31 28 28 26 26 31 29 29 28 30 30 29 25 25 25 26 24 22 19 19 18 16 13 12 12 11 10
8 5 14 15 17 18 9 9 16 9 12 21 22 20 29 30 31 25 23 24 30 29 30 29 30 29 30 31 31 32 32 32 31 27 28 24 28 21 22 21 18 16 16 15 12 11 10 9 7
10 14 14 15 15 7 2 9 7 6 17 20 21 23 9 4 26 20 27 28 30 34 30 31 32 34 33 33 36 36 34 31 29 27 29 23 24 24 23 23 20 16 15 14 12 11 10 7 6
15 16 18 17 12 5 9 4 5 9 15 18 22 19 11 19 18 22 20 24 23 26 19 28 30 33 34 36 37 38 32 29 25 27 28 27 27 25 24 24 20 16 14 10 9 8 7 2 6
14 17 10 6 9 7 6 8 8 17 19 17 20 25 16 10 20 24 21 25 22 27 11 8 27 26 36 36 36 34 30 27 29 28 25 28 27 24 19 25 20 15 15 14 10 7 9 7 6
6 13 14 7 11 10 12 10 7 16 17 17 18 18 10 5 17 14 15 20 24 29 18 14 3 32 29 28 29 31 28 27 29 28 24 25 28 22 20 22 19 17 13 13 12 11 10 8 9
8 9 10 12 14 8 11 8 14 22 9 11 16 11 12 10 14 9 14 16 26 25 26 12 22 29 32 28 28 27 27 27 30 26 24 22 26 23 21 21 18 16 15 12 11 10 9 9 8
5 7 7 10 14 5 6 11 6 8 10 13 12 16 13 5 20 29 17 19 24 22 20 18 25 29 36 31 33 26 28 26 27 26 24 22 24 22 20 20 18 16 14 12 11 8 9 7 7
7 5 12 11 14 3 6 8 3 1 4 6 11 15 9 13 13 18 13 14 22 29 34 21 21 25 36 33 32 30 29 28 26 26 25 23 23 22 21 18 16 14 13 12 11 10 9 9 8
6 7 13 9 11 10 11 15 11 5 6 8 13 14 16 15 10 14 12 12 12 20 22 16 17 20 36 35 34 29 30 29 27 28 28 25 23 21 21 16 15 15 13 11 11 11 10 6 8
14 14 15 11 9 5 13 14 5 7 6 13 15 14 14 13 4 10 10 10 8 8 5 16 14 26 28 33 30 30 29 28 28 28 26 25 22 21 19 16 15 16 14 12 12 10 10 10 5
14 17 12 4 9 3 10 12 2 9 10 10 9 7 12 18 12 7 12 12 14 12 17 8 24 31 31 33 31 29 28 29 26 28 25 24 22 19 19 16 15 15 14 13 13 14 11 10 10
13 12 10 9 1 7 9 9 6 9 11 10 5 5 9 16 16 10 7 12 12 11 10 10 6 31 32 31 28 23 23 21 21 21 22 22 21 21 18 16 15 13 14 14 12 14 14 10 11
10 4 14 11 9 3 7 5 3 7 9 6 6 6 11 14 14 12 11 13 15 14 10 10 7 12 19 34 31 32 27 23 25 25 22 19 17 16 16 17 15 14 14 17 17 14 12 9 13
6 12 13 10 8 7 4 2 10 5 8 7 7 7 5 11 14 13 9 20 15 14 17 10 10 9 9 22 30 33 26 25 26 22 20 20 18 16 15 13 15 13 13 16 18 10 9 14 10
12 12 12 8 2 1 5 3 6 4 4 6 8 9 7 7 9 11 9 18 20 15 16 17 19 23 8 5 12 19 21 19 24 26 25 22 17 14 13 8 10 6 7 13 15 13 12 17 15
5 6 3 2 1 3 3 2 4 8 3 4 14 4 10 7 5 4 11 12 23 29 25 19 29 25 20 14 17 19 13 14 19 27 25 20 20 20 18 16 13 13 12 21 21 18 17 20 26
9 3 2 2 3 2 4 5 6 8 9 8 6 5 4 8 8 7 6 7 17 23 23 22 26 37 34 21 24 21 18 20 23 19 17 20 20 17 17 20 20 21 23 28 29 29 27 22 25
6 4 3 4 3 1 5 6 9 14 15 9 9 4 8 8 5 8 8 13 18 19 22 27 25 24 24 31 36 32 32 24 24 21 17 19 21 21 17 15 9 22 29 31 29 28 25 21 23
5 5 4 3 5 3 8 7 6 12 10 11 13 10 8 9 9 7 5 5 15 16 19 18 27 27 30 32 36 38 31 32 32 28 34 29 19 19 23 17 20 24 30 29 27 29 23 19 18
5 4 3 2 1 3 2 2 7 8 8 8 9 9 9 8 7 7 7 9 7 5 14 20 23 24 28 29 34 33 30 34 34 34 34 31 32 36 32 26 29 29 29 26 22 20 17 19 16
9 6 3 2 4 2 2 1 10 8 8 9 8 8 6 6 7 6 5 6 4 2 4 9 8 12 9 16 22 20 21 20 22 21 22 28 31 30 30 27 23 24 23 19 19 18 17 16 16

GFSSGP_925_spd_117.txt.gz
Wind_Speed
1 4 3 1 2 6 20 8 8 2 5 7 12 7 12 15 5 5 15 19 34 46 45 42 39 36 35 32 30 29 28 27 27 25 25 24 23 24 22 21 20 22 22 20 23 22 21 21 23
1 0 2 1 5 8 7 18 18 3 6 5 9 15 19 22 5 2 18 24 37 42 43 42 41 37 36 34 31 30 29 28 27 25 26 25 24 25 24 25 23 22 20 20 21 20 20 23 23
4 2 3 3 5 18 8 4 7 3 11 11 7 8 9 5 4 18 13 34 41 33 36 41 41 39 36 35 32 31 30 29 28 27 26 26 25 25 23 24 26 25 21 20 19 19 20 21 21
2 2 2 5 20 27 13 12 19 17 17 2 12 10 10 8 15 14 41 39 41 41 34 36 38 38 35 35 32 33 31 30 28 28 27 27 26 26 27 26 27 24 20 18 18 18 18 20 23
4 1 3 7 25 16 12 10 15 15 13 13 8 9 13 17 13 33 39 38 38 39 39 37 35 36 35 35 32 32 32 31 29 28 29 29 28 28 27 25 25 24 20 17 16 18 20 22 22
1 2 4 13 24 17 12 10 12 18 21 7 8 9 8 15 11 31 44 39 38 38 38 36 33 31 33 35 33 33 33 31 29 29 30 28 31 29 26 24 23 22 20 17 16 18 19 20 20
4 2 6 14 16 17 15 8 13 20 21 15 2 5 6 20 21 11 32 41 36 39 39 37 34 30 29 34 35 34 34 32 30 30 29 28 28 27 26 24 22 21 22 18 17 17 18 18 19
3 3 7 11 16 22 17 9 13 15 25 5 7 7 6 4 28 31 12 34 40 38 39 38 36 32 29 32 35 34 34 33 32 33 31 29 28 28 24 22 23 21 20 18 17 16 16 16 17
2 5 11 17 15 23 14 14 9 5 5 10 5 7 13 26 29 33 34 27 29 31 37 36 36 32 32 32 36 34 33 33 34 33 29 28 30 26 25 22 24 22 20 17 17 15 14 14 15
6 5 13 7 11 13 15 12 8 3 9 15 8 14 20 19 16 16 25 24 32 31 35 38 36 33 33 34 37 36 35 37 37 36 33 32 30 26 25 23 23 21 19 17 15 14 13 12 12
6 8 13 14 12 13 12 8 2 3 8 16 14 19 13 9 16 8 26 24 31 37 34 35 36 34 34 32 36 38 40 41 40 35 35 35 31 29 28 25 22 22 20 18 15 15 14 12 11
11 12 15 16 16 15 12 12 6 9 15 14 8 17 14 11 10 16 18 21 26 32 38 34 33 35 32 31 31 33 36 39 37 37 34 39 32 30 29 26 23 21 19 17 15 14 13 9 8
10 15 15 17 16 19 16 18 20 21 24 19 24 17 11 12 14 27 19 22 26 28 35 33 34 36 32 33 32 33 35 38 33 36 34 39 35 34 31 26 23 20 18 16 14 14 12 9 9
5 9 15 17 17 7 14 19 7 20 22 20 20 16 13 12 15 13 13 8 5 33 34 31 27 27 35 33 33 32 38 31 35 39 36 36 38 35 34 29 25 21 20 17 13 11 11 9 10
10 12 11 10 12 9 8 20 23 30 20 17 16 13 13 12 14 11 10 5 18 30 37 33 30 18 24 37 36 32 36 33 34 40 34 37 34 31 31 32 27 22 20 15 14 12 12 11 10
4 3 2 3 12 7 9 23 16 10 5 9 9 13 13 11 15 13 11 7 12 25 32 30 31 24 17 29 37 29 35 30 38 37 31 36 33 30 27 30 26 21 19 17 16 14 14 11 12
3 4 5 11 10 8 12 11 12 8 4 7 9 9 8 8 9 19 24 21 22 17 22 33 28 28 30 21 33 33 33 39 37 34 38 38 32 31 29 29 25 23 21 17 16 13 14 11 10
5 7 8 11 6 16 10 20 20 16 9 7 7 7 6 7 7 15 18 17 16 14 22 20 25 20 24 26 35 34 32 39 38 33 34 35 31 30 29 26 25 22 21 18 17 15 13 13 12
14 12 15 16 9 5 17 19 19 14 7 4 8 7 10 13 9 20 14 9 12 11 17 24 18 20 30 34 35 35 32 36 34 33 30 31 31 30 29 26 25 23 21 20 19 15 16 12 9
8 11 12 7 6 5 9 16 16 7 5 5 8 7 9 11 14 12 15 16 16 14 10 10 21 23 29 32 35 34 36 35 36 35 33 31 31 31 30 26 25 24 21 19 18 17 14 12 11
6 5 7 14 10 9 6 8 8 1 4 5 9 2 14 15 16 13 12 15 15 17 16 14 21 27 35 39 34 33 33 33 32 32 33 32 31 31 28 25 23 25 21 19 18 19 16 12 12
5 3 12 14 10 4 4 4 8 15 4 6 7 6 11 11 9 9 11 12 19 19 15 8 18 32 33 36 29 30 29 28 28 33 34 35 33 30 29 24 21 20 20 18 16 16 14 12 10
7 7 11 8 9 4 4 3 9 7 12 13 5 4 5 14 18 12 9 14 17 19 14 9 16 32 31 35 31 30 31 32 32 34 35 33 32 30 28 27 24 21 18 17 15 12 8 9 9
12 9 10 3 1 2 4 3 9 14 9 13 11 8 1 7 13 8 12 14 18 20 20 12 16 23 25 28 31 36 35 28 30 31 30 28 28 27 26 26 24 21 19 17 15 14 9 6 14
14 5 3 3 3 4 4 10 8 17 9 9 13 15 5 5 11 8 5 7 11 19 18 18 21 21 17 25 33 28 33 30 32 35 34 30 26 24 24 21 22 22 19 15 15 17 15 12 15
5 3 3 4 1 3 8 5 6 13 10 6 14 15 8 4 5 5 6 11 16 14 15 18 19 16 20 16 29 26 20 25 28 25 23 25 29 27 25 25 23 24 21 17 18 21 15 14 16
7 3 1 3 1 3 4 8 6 18 17 13 13 14 12 12 5 4 5 4 11 21 22 22 21 21 22 25 19 15 14 13 18 19 19 20 21 22 21 20 20 20 20 24 19 17 13 9 19
4 4 4 4 4 4 3 4 7 13 11 12 13 11 9 10 10 10 7 4 9 15 12 19 22 30 27 28 31 23 24 24 25 23 21 21 21 22 19 15 18 16 18 22 19 14 12 12 20
6 5 4 4 3 4 1 4 12 11 9 8 9 8 8 10 9 7 6 9 6 1 13 18 20 22 26 26 25 27 29 31 30 28 29 32 28 23 18 16 16 15 15 15 20 17 20 22 21
4 5 3 3 4 3 2 3 8 13 9 8 10 10 9 7 7 7 7 11 13 10 6 7 13 18 26 29 30 32 35 35 32 34 33 34 35 29 25 23 21 22 27 27 30 26 23 24 25